GFSGL_250_spd_000.txt.gz
Wind_Speed
62 64 69 75 81 88 93 100 105 109 116 116 118 119 116 118 118 115 107 101 95 90 86 82 78 75 73 69 65 63 60 57 53 63 67 70 68 68 68 69 76 81 84
64 69 75 81 87 93 99 107 113 117 120 123 119 117 118 118 112 104 98 93 90 85 81 78 75 71 69 65 63 59 56 54 49 52 62 65 65 62 64 63 70 75 77
70 76 82 87 96 101 106 113 120 121 124 120 120 120 118 112 101 96 91 89 84 79 76 72 69 67 65 62 59 56 54 53 49 47 58 59 62 59 60 60 63 69 72
77 82 88 94 101 106 114 122 122 126 122 120 121 119 111 102 94 90 86 82 77 73 69 67 65 62 60 58 56 54 50 49 46 45 49 54 55 55 55 56 56 62 68
84 89 96 103 108 113 124 127 128 124 123 123 119 112 101 94 89 85 80 76 72 69 66 63 61 58 56 54 52 52 49 48 45 44 46 48 49 51 48 51 53 54 62
93 96 104 110 115 121 128 130 124 123 121 116 111 99 93 87 83 78 75 73 69 64 61 62 60 57 55 53 50 48 47 47 44 41 42 45 46 48 46 45 50 51 54
97 103 110 114 119 128 130 125 122 122 117 110 98 92 87 82 77 73 71 68 64 61 58 59 57 53 51 48 46 43 42 42 41 40 40 42 43 41 43 43 44 46 50
104 110 114 118 124 130 125 123 122 119 112 101 93 87 82 77 72 70 67 64 61 56 53 53 51 49 48 47 45 41 39 38 36 35 34 36 39 39 38 38 40 44 47
110 115 120 125 127 125 124 123 119 112 102 95 88 84 78 73 69 67 66 64 60 55 51 49 47 46 44 43 41 38 36 34 34 33 32 32 32 34 34 35 39 41 42
114 122 125 126 123 122 123 119 113 105 97 89 83 78 73 69 66 64 63 61 59 55 50 48 45 42 40 38 35 33 31 30 31 30 29 29 28 29 31 31 33 33 34
121 124 124 121 120 122 119 115 107 99 92 84 77 72 69 66 63 62 60 58 56 53 50 46 41 38 35 33 31 28 26 26 26 24 23 24 25 26 27 29 30 30 34
123 124 121 119 120 119 114 109 101 95 87 79 73 69 66 64 62 60 57 55 53 50 47 43 39 36 33 30 28 25 23 22 21 21 19 20 22 22 24 25 26 29 33
122 122 119 118 117 114 111 103 96 90 81 74 70 67 63 62 60 57 54 51 48 45 42 40 38 34 31 27 25 22 21 19 19 19 18 18 19 20 22 24 27 30 31
119 117 115 115 113 111 106 97 90 83 75 71 68 64 61 59 56 54 50 47 44 42 40 39 37 32 28 26 23 20 18 16 17 17 17 18 18 19 22 24 25 26 26
116 115 113 113 111 107 100 92 85 77 72 69 65 61 59 56 53 50 47 44 43 41 38 39 36 31 27 24 21 19 17 16 15 16 16 17 18 19 20 22 24 25 25
114 113 112 109 105 100 94 88 79 73 71 66 62 58 56 53 51 48 46 43 42 41 38 36 35 31 27 24 21 19 17 15 15 15 15 16 16 18 19 20 23 24 24
112 110 108 104 99 93 87 82 74 70 66 64 59 56 53 51 49 46 44 41 40 39 38 35 33 32 27 24 22 19 17 16 15 15 15 16 16 17 19 20 22 24 25
109 106 103 98 92 87 82 75 72 68 63 60 57 54 51 50 47 44 41 39 38 37 36 34 32 30 28 25 23 21 18 17 17 16 15 17 17 18 19 21 22 22 24
104 100 97 91 85 82 76 72 69 65 61 57 53 51 49 49 46 43 40 38 37 35 34 33 31 29 27 25 23 21 19 18 18 18 18 17 18 19 20 21 22 23 24
99 95 91 84 80 76 72 69 66 62 59 54 50 48 47 47 45 42 39 37 36 34 33 32 31 29 27 26 24 21 20 19 19 19 20 20 20 20 22 23 24 24 25
93 88 84 79 75 71 70 67 63 59 56 51 48 47 46 45 43 41 39 36 35 34 32 32 31 30 27 26 25 23 21 20 19 20 21 23 23 23 23 24 26 27 28
87 81 78 75 70 68 67 63 60 56 53 51 48 46 45 44 41 39 38 36 34 33 32 31 31 31 27 27 26 24 22 22 22 21 22 23 24 26 27 27 26 28 29
81 76 74 71 67 65 63 59 56 54 52 51 49 47 45 43 40 38 37 36 35 33 32 31 31 30 27 25 26 26 24 23 22 22 23 23 25 27 28 29 30 29 30
77 72 70 68 65 62 59 57 54 52 51 50 49 48 44 41 39 37 37 36 36 35 32 31 29 29 27 24 24 25 26 25 24 23 24 24 25 26 28 29 31 32 33
74 70 66 65 63 59 57 54 53 51 50 49 48 47 44 41 38 38 37 36 36 35 33 31 29 28 27 25 24 24 25 26 25 24 25 26 26 27 27 29 30 31 33
70 67 64 62 60 57 54 52 51 50 49 49 48 46 43 40 40 39 36 35 35 34 32 30 28 27 27 27 26 25 24 25 26 26 25 26 26 27 28 28 29 30 31

GFSGL_250_spd_003.txt.gz
Wind_Speed
61 61 62 64 68 73 79 84 90 94 100 107 111 114 116 115 117 116 109 102 96 91 87 85 81 77 74 70 66 63 60 55 52 66 65 67 63 59 59 63 63 66 70
62 62 65 68 73 80 84 88 93 99 107 110 115 116 116 118 117 109 102 95 89 85 82 80 76 72 69 67 64 61 57 53 48 57 60 62 62 59 55 57 61 62 67
60 64 69 76 81 86 90 94 100 107 111 115 116 116 118 116 108 100 94 88 84 81 77 74 71 68 66 64 61 58 54 50 46 47 56 56 54 56 55 53 56 59 64
68 71 76 81 86 93 97 103 108 113 117 118 117 117 115 108 99 92 87 82 79 76 72 69 66 64 63 62 60 57 53 50 47 43 50 51 51 50 51 51 48 52 58
76 79 85 88 95 99 104 110 115 117 116 118 117 116 107 100 92 86 82 78 75 72 69 67 64 61 60 57 55 53 50 49 45 42 45 47 48 48 47 48 45 47 55
82 87 91 96 101 106 111 115 117 117 117 115 113 107 100 93 86 81 78 74 72 69 67 65 61 59 56 53 49 47 47 47 45 41 40 41 43 46 44 42 40 45 53
89 94 98 103 108 111 114 117 118 116 115 113 107 101 93 87 81 76 73 70 68 65 63 61 58 55 53 51 48 46 45 45 43 41 38 37 38 40 41 37 36 40 45
95 100 105 108 111 113 114 115 113 112 111 109 103 96 90 82 77 72 69 67 64 61 59 56 54 51 48 48 46 43 41 39 38 37 37 34 34 35 37 35 34 36 42
101 106 110 111 113 113 115 111 112 111 109 106 98 92 85 78 73 70 68 66 62 60 57 52 48 46 44 43 41 39 36 35 34 31 31 30 29 31 32 33 34 36 37
107 111 113 113 112 112 109 109 111 109 106 101 95 87 80 73 71 69 66 63 60 58 53 48 44 42 40 39 37 36 34 33 32 29 28 28 27 27 28 30 31 32 33
111 112 112 112 110 109 109 109 109 106 103 97 89 82 75 72 69 66 63 60 57 55 51 47 43 40 38 37 35 34 31 30 29 27 26 25 25 25 25 26 28 31 34
112 112 111 108 108 107 109 108 105 105 99 93 84 77 72 70 66 63 59 57 55 52 50 46 42 39 37 35 32 31 29 28 26 25 24 22 22 22 22 24 26 29 33
112 110 104 104 106 108 107 105 104 101 95 87 80 73 70 67 63 60 57 54 52 50 47 45 41 37 35 33 30 28 27 25 24 23 22 20 20 20 20 22 24 26 28
107 101 102 105 107 106 105 103 102 96 88 81 74 69 66 63 59 57 55 52 50 48 45 42 40 38 34 32 30 27 25 23 22 21 20 19 20 19 19 20 21 23 25
102 101 104 106 106 105 103 101 96 90 82 76 70 67 64 61 57 54 53 50 49 45 42 40 38 36 35 31 27 25 24 22 20 19 19 18 18 19 18 19 20 22 25
103 105 105 104 104 102 100 97 90 83 78 72 68 64 61 58 54 51 49 48 46 43 41 39 36 34 33 30 28 24 23 21 20 19 18 17 17 18 18 19 20 21 23
105 105 104 103 102 100 97 90 83 77 73 67 65 62 57 54 51 49 48 47 43 40 39 38 36 33 31 29 27 24 22 21 20 19 19 17 17 18 18 18 19 21 23
106 103 101 101 98 96 90 82 76 72 68 64 61 59 55 52 50 48 47 46 42 38 37 36 35 33 30 28 26 24 22 21 20 19 19 19 18 17 18 18 19 20 21
103 101 98 96 94 90 82 75 71 67 64 61 58 56 52 50 49 47 46 45 41 37 35 34 32 32 30 27 26 23 22 20 20 20 19 19 20 19 18 19 20 20 21
100 97 94 92 87 82 76 72 68 63 60 57 55 53 50 48 47 46 45 43 39 36 34 33 32 31 30 27 26 24 21 20 20 20 20 20 21 22 21 20 21 22 22
95 92 90 85 80 76 72 70 65 61 58 56 53 50 48 47 46 46 43 40 38 35 34 33 32 31 31 29 26 24 23 20 20 20 21 22 22 23 24 24 23 24 24
89 85 82 79 75 71 69 67 63 59 56 54 50 47 45 44 44 42 41 39 37 35 34 33 32 31 30 30 28 24 22 22 20 21 21 22 23 24 25 27 28 27 26
83 80 77 73 70 68 66 63 60 57 54 51 48 45 43 43 42 41 39 38 36 35 34 33 32 30 29 29 29 26 23 22 22 21 21 23 24 25 25 26 29 30 30
77 75 72 69 68 65 62 59 57 54 52 49 45 43 41 41 40 40 39 37 36 35 33 32 32 31 29 28 29 28 25 24 23 23 23 23 24 26 27 27 28 29 32
73 70 68 66 65 61 58 55 54 52 49 47 45 43 41 40 40 38 38 37 35 34 33 32 32 31 29 29 29 29 28 26 25 24 24 24 24 26 27 29 29 29 31
68 67 65 63 60 56 54 52 50 49 48 45 44 41 40 40 39 37 37 36 35 34 32 33 33 32 30 30 29 29 29 27 25 25 25 25 25 25 26 28 29 30 31

GFSGL_250_spd_009.txt.gz
Wind_Speed
65 67 72 73 73 76 77 79 82 84 88 92 97 102 106 108 111 110 110 108 104 104 105 98 96 93 90 86 81 75 70 67 61 71 71 66 63 60 59 59 62 64 65
71 72 76 77 79 81 82 85 87 90 96 101 105 108 109 113 112 110 107 106 107 106 98 95 91 86 82 77 72 69 67 66 60 59 69 62 59 58 58 56 57 60 61
75 77 80 82 83 84 87 90 93 98 103 106 109 111 110 110 108 107 106 107 104 97 95 89 84 79 75 71 69 66 64 62 60 57 61 58 57 54 54 54 55 55 58
80 82 84 85 87 89 93 96 100 104 108 112 113 110 108 107 109 107 107 102 97 94 89 82 76 73 69 68 66 63 60 58 56 54 52 53 50 49 50 49 51 51 53
85 86 86 88 90 94 97 102 106 109 111 113 109 108 108 107 108 106 100 95 93 86 80 74 70 68 67 65 62 59 57 55 52 50 49 47 45 45 46 47 48 48 50
86 87 89 91 96 99 103 107 111 112 110 105 106 109 109 110 106 99 95 92 86 79 73 70 67 66 65 61 59 56 52 50 49 47 44 43 41 40 41 44 45 48 47
87 89 91 95 99 104 108 110 111 106 101 105 109 110 109 107 102 95 91 86 79 73 70 67 65 64 61 56 54 52 50 48 47 45 43 40 40 38 39 38 39 43 45
90 93 97 100 105 110 109 107 102 100 104 107 107 106 103 98 93 89 85 80 73 70 68 66 63 61 57 53 51 50 46 44 43 42 41 38 37 35 35 35 37 38 40
95 99 101 105 108 107 103 102 104 105 108 106 101 98 98 92 91 86 81 76 71 68 65 63 60 56 53 50 49 46 43 42 40 40 37 35 33 30 30 31 32 34 37
99 102 105 108 104 103 104 107 109 108 103 96 98 101 98 93 90 83 78 73 69 66 63 60 58 52 49 48 46 43 40 38 38 36 34 32 30 27 26 27 28 29 32
104 107 109 107 106 105 106 107 105 103 98 99 102 101 97 93 85 81 75 70 67 63 61 57 53 51 49 46 43 40 39 36 33 33 31 29 27 25 23 23 24 25 28
107 104 104 106 109 110 109 108 105 102 106 106 106 101 94 89 84 74 71 68 64 61 58 54 51 49 47 45 40 38 37 34 31 30 28 27 24 21 20 20 20 22 25
108 108 105 108 111 113 113 112 112 110 112 106 101 97 91 83 78 74 68 66 61 59 55 51 48 47 45 43 39 35 34 33 30 28 26 25 23 20 17 18 19 20 22
105 107 113 116 116 115 114 114 116 111 102 98 95 91 84 78 72 69 66 63 58 57 53 49 46 45 44 41 38 35 31 30 29 27 24 23 22 20 16 16 17 19 20
108 112 114 115 118 119 115 108 102 101 98 91 87 84 79 74 69 66 62 60 58 55 50 47 45 44 42 40 37 35 31 29 28 26 24 22 21 20 17 15 16 18 19
113 114 115 117 116 112 108 103 99 95 90 85 82 78 72 69 66 64 60 57 55 51 47 45 43 42 40 37 35 33 32 29 28 26 23 21 21 20 18 16 15 17 18
113 115 111 106 105 101 99 93 88 85 84 81 78 73 70 67 64 61 57 54 52 48 44 42 41 39 37 35 34 32 32 30 27 27 24 21 20 20 18 16 15 16 17
115 113 110 107 102 95 89 85 84 83 79 74 74 70 67 64 61 59 55 52 50 45 42 40 39 37 35 34 33 32 31 30 27 26 24 21 19 19 19 17 16 16 17
107 107 104 99 94 91 89 86 81 78 73 71 69 67 65 61 59 56 53 50 47 43 41 39 38 36 34 33 32 31 31 30 28 25 23 20 19 19 19 18 17 16 17
105 104 100 96 93 89 85 79 77 75 71 70 67 63 61 61 56 53 51 46 44 41 40 38 38 36 34 33 32 30 29 28 27 26 23 21 19 19 19 19 18 18 18
99 98 94 90 87 83 77 75 74 72 68 65 64 61 58 56 54 52 48 46 42 39 39 38 37 35 35 33 32 29 28 27 26 25 24 21 19 18 19 19 20 19 19
95 90 86 82 80 78 75 72 71 69 66 63 60 58 56 54 51 49 46 45 42 38 37 37 35 34 33 33 31 29 28 27 25 24 24 23 21 19 19 19 20 21 21
86 83 81 77 76 73 70 70 68 66 63 59 57 55 52 51 48 46 44 43 40 39 37 35 33 33 34 32 31 29 28 27 26 24 24 24 23 21 20 20 21 22 23
80 77 75 70 70 69 66 65 64 61 58 55 53 52 50 47 45 44 42 41 40 38 36 34 33 31 31 30 29 29 28 27 26 25 25 24 24 24 23 22 22 23 24
75 72 71 71 67 67 61 58 57 56 53 51 50 49 47 45 44 42 40 39 39 37 36 34 31 30 29 30 29 29 28 28 27 25 24 25 25 24 25 24 24 24 24
72 71 68 66 63 62 57 57 56 55 52 51 49 48 47 45 43 42 40 39 38 36 35 34 32 30 30 30 30 30 29 28 27 26 26 26 26 25 24 25 25 24 25

GFSGL_250_spd_012.txt.gz
Wind_Speed
65 69 71 75 78 81 85 85 84 85 86 90 95 100 106 110 110 107 104 105 106 109 108 106 98 93 90 88 86 84 79 75 69 70 76 71 66 61 63 62 62 63 66
69 69 75 78 82 84 83 83 84 88 92 97 101 106 111 109 103 104 104 107 110 111 109 103 97 92 90 86 80 76 72 69 66 62 69 66 61 57 57 58 58 57 58
69 73 79 83 85 83 85 86 89 93 97 102 106 110 110 105 102 106 108 111 110 107 105 98 92 87 85 79 72 69 66 65 62 59 60 60 58 55 54 52 52 54 55
77 80 84 84 84 84 85 90 94 98 103 108 109 104 103 104 104 105 106 107 106 104 95 90 85 81 78 72 69 65 63 61 59 57 54 56 54 51 48 49 48 49 51
82 86 87 86 86 88 92 97 101 104 108 109 103 103 105 107 106 105 100 99 99 89 85 82 80 74 72 67 65 61 59 59 57 55 53 52 50 47 44 44 44 44 46
86 88 89 90 90 91 97 104 107 111 110 104 102 104 104 106 110 101 94 92 87 82 81 79 74 68 66 63 62 59 57 55 54 49 49 47 45 43 41 39 39 41 44
89 90 92 93 95 98 104 109 113 112 108 105 107 109 110 110 106 98 92 88 86 86 80 76 71 65 63 60 57 57 56 53 52 51 48 41 40 39 38 38 38 39 40
91 93 94 95 99 104 108 113 111 107 106 107 110 111 108 105 97 95 92 90 88 84 79 73 67 62 62 58 56 54 53 51 50 46 42 41 36 35 36 36 37 36 38
92 94 97 100 105 109 111 112 108 105 107 111 111 109 102 100 100 96 95 90 83 81 75 69 65 60 58 56 54 54 52 50 47 43 40 37 35 34 34 33 34 34 34
96 97 101 108 111 111 110 111 112 114 112 109 106 106 104 101 99 93 86 83 83 78 71 65 65 59 55 52 51 51 50 47 44 39 36 35 34 32 31 32 30 31 31
99 104 110 112 110 112 111 109 112 115 110 107 107 107 105 99 94 89 85 83 80 74 67 63 61 60 54 50 49 49 47 46 40 37 34 33 32 30 28 28 28 27 27
105 110 112 113 114 113 112 112 116 116 114 108 106 103 97 93 90 89 84 78 73 69 64 61 58 55 52 49 47 46 46 43 38 35 32 31 30 27 25 25 24 24 25
111 114 114 114 112 113 115 118 118 114 105 103 97 94 92 88 84 82 78 73 69 66 63 59 56 52 49 46 45 44 42 39 35 32 31 29 28 26 23 22 22 22 22
115 114 114 114 114 114 115 115 111 108 106 102 97 92 89 83 77 73 72 70 67 64 59 56 52 49 47 44 43 42 40 35 32 30 29 28 26 24 21 20 20 20 20
117 117 115 113 111 110 108 109 108 104 98 95 92 86 82 78 75 69 66 66 64 62 58 54 50 47 45 43 41 40 37 34 30 28 28 26 25 23 21 19 18 19 19
116 115 113 113 111 111 112 106 105 102 98 92 85 81 79 76 73 69 64 60 58 57 55 52 49 45 43 41 41 39 36 33 31 28 27 26 24 23 20 18 17 18 18
116 114 114 113 111 108 105 103 100 95 91 88 83 79 76 73 70 65 62 59 56 54 51 49 46 44 41 39 39 39 36 33 31 29 27 25 23 22 20 17 17 18 17
114 113 110 110 106 103 102 97 92 89 87 84 81 77 74 70 67 63 60 57 54 52 50 47 45 43 40 37 37 38 36 33 31 29 27 24 22 21 20 17 15 16 18
111 112 109 105 104 101 96 93 89 85 81 80 77 73 69 68 65 59 57 55 51 49 48 45 43 42 39 37 35 35 34 33 31 28 26 24 22 20 20 18 15 16 18
108 107 105 102 99 95 92 88 86 83 78 73 72 71 67 64 63 58 53 51 49 46 45 44 42 41 38 36 35 34 32 31 29 27 26 25 21 20 19 18 17 16 17
101 99 97 93 88 86 84 81 79 78 75 73 69 67 63 60 59 58 53 49 46 44 43 41 40 39 37 35 35 33 31 30 28 26 25 25 23 21 19 18 18 17 18
98 94 89 85 82 79 78 76 73 72 69 67 65 64 61 58 56 53 50 48 46 44 42 40 38 38 37 35 34 32 30 29 27 26 25 25 23 22 21 20 19 18 18
93 87 82 80 79 76 72 71 69 68 64 62 62 60 60 57 55 53 49 46 44 43 41 40 38 36 35 34 32 31 29 28 27 27 26 25 24 23 22 21 20 20 20
86 83 81 78 75 73 70 68 65 64 63 60 60 59 58 55 53 51 49 46 43 42 40 39 37 34 34 33 33 29 29 28 28 28 26 26 25 23 23 22 22 21 22
82 79 77 74 72 70 68 66 64 63 62 59 59 56 53 51 50 48 47 44 42 40 39 38 37 35 33 31 31 29 29 28 28 28 27 26 24 23 23 22 22 22 23
80 77 75 73 70 67 65 64 64 62 60 58 57 54 51 50 47 45 43 42 40 38 37 37 37 35 33 31 30 30 29 28 28 28 26 26 24 23 22 23 22 22 23

GFSGL_250_spd_015.txt.gz
Wind_Speed
58 61 61 62 67 72 78 81 86 88 88 89 90 92 96 102 107 111 110 105 106 106 108 109 107 101 98 96 95 91 89 81 75 73 71 70 66 63 61 61 62 62 62
63 67 66 67 73 79 82 85 89 90 90 90 91 96 101 107 110 108 103 103 104 105 105 101 97 97 93 87 84 80 78 72 68 65 67 65 62 59 57 58 58 56 57
63 66 70 72 80 83 86 89 92 90 92 94 98 103 107 109 105 102 101 104 105 106 102 98 94 91 87 83 77 74 69 66 64 62 61 60 59 55 54 52 52 51 53
66 70 73 79 85 88 89 95 92 93 95 98 104 108 106 102 102 104 103 104 100 102 98 93 88 84 80 78 74 67 65 63 62 59 56 55 53 50 47 50 49 48 48
75 78 79 85 87 91 95 92 94 96 100 106 110 105 103 102 104 107 105 101 99 95 93 88 84 79 77 74 70 65 62 60 58 57 53 51 49 49 48 46 47 46 44
81 85 87 89 91 96 95 96 98 101 107 109 107 107 105 105 105 108 108 101 98 95 89 85 84 78 73 69 67 64 60 57 55 54 50 48 46 47 45 42 42 43 42
87 90 92 93 97 96 98 101 104 109 110 109 108 106 105 106 110 109 104 98 97 94 89 87 83 76 71 68 64 61 58 55 53 52 50 47 46 44 40 39 40 38 38
89 92 95 96 96 99 102 106 111 112 111 111 109 109 108 106 104 100 97 95 92 89 86 81 77 73 69 66 62 59 54 52 50 47 46 45 44 42 40 37 35 36 37
93 97 94 94 98 101 108 111 114 114 114 111 110 109 107 104 99 96 94 92 91 87 81 77 73 69 65 62 60 57 53 49 46 44 44 44 42 39 38 34 35 35 35
97 96 96 98 101 108 114 116 118 115 113 110 111 110 106 101 97 96 93 89 85 80 76 72 69 66 62 60 57 54 51 47 44 42 42 41 38 36 36 34 34 34 33
101 98 99 103 109 113 118 118 119 120 119 119 115 110 104 99 96 92 84 80 78 75 72 69 66 63 59 57 54 51 48 44 42 41 41 38 33 32 32 32 32 32 30
101 101 104 109 113 118 121 122 120 118 118 116 113 107 102 95 92 87 82 80 76 72 69 66 63 60 56 54 51 47 45 43 40 40 39 35 31 30 29 30 30 29 28
102 105 110 114 120 122 123 122 120 117 115 112 107 102 97 91 84 81 79 77 74 70 68 64 61 58 54 51 49 45 41 39 38 38 37 33 30 29 29 29 28 28 26
106 110 114 119 123 124 122 119 117 115 112 108 103 97 91 87 81 78 76 75 73 68 64 61 58 55 50 47 44 42 40 37 35 36 34 32 29 28 28 27 26 26 25
110 115 118 123 125 121 118 116 114 113 108 103 99 93 86 81 76 73 70 68 67 64 60 57 54 51 47 44 41 39 38 34 33 33 31 30 28 26 26 26 24 23 24
115 119 123 125 122 118 115 113 111 107 105 101 96 88 83 77 73 69 66 64 61 60 57 55 52 48 45 42 39 37 37 34 32 31 30 29 27 25 25 24 23 22 22
120 121 124 122 117 114 113 109 105 102 98 93 89 84 80 76 72 68 64 60 55 54 53 52 50 47 43 41 38 36 35 34 32 30 28 27 26 24 23 22 21 21 21
123 124 120 117 114 110 107 103 98 91 85 83 83 82 77 73 69 65 61 58 55 51 50 49 46 44 41 39 37 35 34 33 32 29 28 25 24 23 22 21 20 19 20
122 120 116 113 110 107 103 96 90 84 79 76 75 75 71 67 65 61 58 57 55 52 49 47 46 42 40 38 36 34 32 32 30 28 26 24 23 22 21 20 19 18 20
119 115 112 110 107 102 94 88 82 80 78 75 73 71 66 63 62 60 58 56 54 52 50 47 44 41 39 37 35 32 31 29 28 27 26 24 22 21 20 20 19 18 19
114 112 108 104 98 92 86 81 79 75 73 69 68 68 61 58 60 59 59 57 54 51 48 46 44 40 39 38 36 33 30 28 27 26 25 23 22 21 20 19 19 19 18
109 105 102 95 89 85 81 77 74 72 70 67 62 66 62 58 58 57 55 53 52 49 47 44 42 39 36 34 33 32 30 27 26 24 23 22 22 22 21 20 20 20 20
104 99 93 87 83 79 75 74 71 69 66 63 60 61 64 60 57 55 52 49 47 47 44 42 40 38 35 33 31 30 29 28 24 24 23 22 22 22 22 22 21 21 21
98 93 88 82 79 75 72 70 68 65 64 64 61 59 59 60 56 53 50 47 45 43 41 39 38 37 35 32 31 29 28 27 25 24 24 23 22 23 23 23 23 22 21
91 86 82 78 74 72 70 68 65 63 63 64 65 60 58 56 52 50 46 44 42 40 39 38 35 34 34 32 30 29 28 28 26 24 24 23 23 22 23 23 23 23 23
82 79 76 74 72 69 66 64 64 63 62 61 61 59 55 54 50 47 45 43 40 38 37 36 34 33 32 32 29 29 28 25 26 25 25 24 23 22 22 23 23 24 24

GFSGL_250_spd_018.txt.gz
Wind_Speed
52 57 61 63 62 63 70 76 80 82 84 87 90 94 92 95 98 102 106 106 103 102 101 102 103 103 101 97 94 94 90 86 80 77 76 73 72 67 63 59 57 56 56
57 61 63 64 66 69 75 80 83 86 89 92 93 92 93 98 103 104 103 102 101 100 101 102 103 103 102 100 95 90 85 79 72 71 74 70 65 60 60 57 55 54 54
61 63 65 68 69 74 80 84 86 92 92 91 91 93 97 102 104 105 103 101 101 102 103 104 103 103 101 99 94 89 83 77 71 67 67 63 60 57 57 53 52 51 52
61 63 66 69 74 79 83 87 89 95 92 91 92 97 103 107 108 106 103 103 103 103 103 100 99 99 97 92 88 82 78 73 70 65 61 59 57 55 54 52 50 49 49
61 65 70 76 79 83 86 88 93 96 92 92 97 102 106 109 111 109 107 104 104 102 99 98 97 95 90 84 80 75 72 69 66 62 58 56 54 52 52 48 47 48 44
66 70 76 81 86 88 90 91 98 96 95 99 103 107 111 113 111 110 110 106 99 97 96 94 94 91 86 82 79 73 68 66 64 60 54 53 50 49 48 46 46 44 43
74 79 84 87 91 91 93 98 99 97 100 104 109 113 117 115 112 110 110 107 104 97 94 92 89 85 82 78 74 70 66 62 60 58 55 50 48 46 45 43 42 39 39
81 84 89 92 95 96 98 102 98 101 105 109 114 117 117 113 112 111 107 102 97 93 90 86 82 80 76 73 69 65 61 58 53 51 51 50 46 44 43 42 42 35 33
87 90 93 96 98 98 103 99 102 106 110 114 117 119 116 113 112 109 103 98 95 90 86 81 78 74 71 68 65 61 58 54 51 49 47 46 43 41 41 40 37 35 31
90 93 96 97 98 105 103 102 107 112 116 118 120 120 117 115 112 107 101 97 91 84 79 76 73 69 66 64 62 58 55 51 47 45 44 42 40 38 38 37 34 33 33
94 97 98 100 104 102 102 107 112 115 118 120 120 118 117 113 109 105 100 93 86 79 74 72 69 66 63 61 57 53 51 48 44 42 40 37 36 36 35 33 32 32 33
98 99 101 105 104 103 107 111 115 118 122 122 118 117 116 112 106 101 94 86 82 76 71 67 64 63 60 57 53 49 48 45 42 39 37 34 33 32 30 30 30 31 31
101 102 105 105 104 107 111 114 119 123 122 118 117 114 111 106 101 93 86 81 79 75 68 64 61 58 56 52 49 47 45 43 40 38 36 33 32 30 28 29 28 29 29
102 106 105 104 107 111 114 117 120 123 121 119 113 108 104 100 93 86 82 79 75 72 67 62 58 54 52 49 47 44 43 41 38 36 34 32 31 30 28 28 28 28 28
106 103 103 107 111 113 116 119 121 121 119 115 110 103 97 91 84 80 78 74 70 68 64 58 54 52 50 47 45 43 41 38 37 34 32 31 30 29 27 27 27 26 26
102 104 108 111 113 116 118 120 121 116 112 108 104 97 90 83 79 75 71 68 66 62 59 56 54 50 47 45 43 40 39 37 35 33 30 29 29 28 27 25 26 25 24
106 109 112 113 115 118 119 117 112 112 107 101 97 89 85 79 75 72 67 63 61 57 56 55 53 50 47 44 42 39 37 36 34 31 29 28 28 27 25 23 24 24 23
109 112 112 116 119 119 115 112 108 101 96 94 92 87 81 75 70 68 63 59 58 55 55 54 53 51 48 43 41 39 37 35 34 31 29 27 26 25 24 21 22 23 22
110 112 114 116 116 113 110 107 102 95 90 85 83 83 82 75 68 67 59 57 55 54 53 53 51 49 46 43 40 37 36 34 33 30 29 27 24 24 23 21 20 22 22
113 114 115 114 110 107 104 97 92 88 84 81 76 75 71 70 66 65 59 56 56 55 53 49 48 47 44 41 39 36 33 33 31 29 28 26 23 22 21 20 19 20 21
114 114 112 108 105 101 95 91 87 83 79 74 72 70 67 63 62 62 60 55 56 53 50 47 46 46 43 39 38 36 31 30 30 28 28 26 23 21 20 20 19 19 20
111 109 106 103 96 91 88 85 81 77 74 72 69 66 62 59 59 60 60 55 54 50 48 45 43 43 41 38 36 35 31 29 28 26 26 24 22 21 20 19 19 18 19
109 104 101 94 89 86 82 78 75 73 70 68 65 61 61 58 57 56 57 53 50 47 44 42 41 40 39 36 34 34 31 29 28 26 25 24 23 21 21 20 20 20 19
102 97 91 86 83 80 77 74 72 70 67 65 63 62 60 58 57 54 52 50 48 46 44 41 38 37 38 35 34 32 30 29 28 26 25 24 23 23 22 21 21 20 20
95 90 85 81 79 77 75 72 69 66 65 64 62 61 60 57 54 51 49 47 45 43 41 40 38 36 36 35 33 32 29 27 26 26 25 24 23 24 23 22 22 21 21
89 85 81 78 76 73 70 68 67 65 63 61 59 58 57 56 53 48 45 42 41 40 39 38 36 35 35 34 33 32 30 27 26 25 25 24 23 24 23 23 22 23 23

GFSGL_250_spd_021.txt.gz
Wind_Speed
47 49 50 53 59 63 64 65 68 71 76 79 84 85 88 91 95 91 91 95 98 102 108 110 109 108 107 105 102 100 99 96 93 89 87 81 78 74 71 68 64 59 56
47 50 54 59 64 66 67 69 73 78 84 85 88 90 91 96 94 93 96 99 103 107 111 111 109 108 106 102 98 94 93 91 88 84 80 75 69 65 64 64 60 55 53
51 57 61 64 68 67 69 74 79 85 89 91 93 92 96 96 94 98 101 104 107 108 109 109 109 108 104 99 96 94 91 88 83 78 74 69 67 63 62 59 57 52 51
56 60 65 70 69 71 74 79 85 88 91 94 95 96 98 95 98 101 105 110 111 111 109 109 108 104 99 97 93 89 85 81 78 74 71 68 64 62 58 56 54 51 48
61 65 69 71 72 75 80 85 88 90 93 94 96 100 98 99 103 104 108 111 113 111 111 108 104 103 98 93 87 81 77 76 74 71 67 64 60 57 55 52 52 49 42
65 68 72 74 77 80 86 90 91 93 95 96 100 98 99 104 106 109 113 114 114 113 109 107 104 98 90 85 80 76 74 72 70 66 64 59 56 53 52 50 47 45 42
68 73 75 78 82 87 91 92 94 96 98 102 101 100 104 106 110 113 115 118 115 112 110 105 98 92 85 81 77 73 71 68 65 64 61 56 53 50 48 44 43 42 41
73 76 79 83 87 91 94 97 98 99 103 102 102 106 107 110 113 116 118 117 117 114 108 102 94 87 82 79 76 71 67 64 62 58 56 54 51 49 45 42 40 37 38
77 81 85 89 92 95 99 99 101 103 102 100 105 108 110 113 116 118 118 118 115 111 105 95 88 84 80 76 71 68 64 61 58 55 53 51 49 45 43 39 38 37 36
81 85 90 94 97 99 100 101 103 102 101 105 108 110 113 116 119 121 119 115 110 106 97 88 83 80 77 72 69 64 61 57 55 51 48 47 46 42 39 38 36 36 37
86 90 94 98 101 101 101 103 101 101 105 108 108 112 116 120 123 122 117 112 106 98 90 84 80 75 73 68 64 59 56 54 52 50 46 42 41 40 38 37 35 36 33
92 96 99 101 101 102 103 100 102 106 109 109 111 115 120 122 121 117 111 106 98 91 86 81 77 71 71 64 58 54 52 51 49 47 43 39 36 34 35 34 35 35 32
96 99 99 99 102 103 99 103 107 111 111 112 115 118 119 118 116 111 105 98 92 87 82 78 73 67 66 60 56 52 49 47 46 44 41 38 36 33 31 32 33 33 32
97 97 99 103 102 100 103 108 110 112 113 115 117 117 115 112 110 104 97 92 87 82 77 74 69 63 61 57 54 51 48 46 43 42 39 37 36 34 31 30 31 31 30
97 100 102 102 101 105 109 110 111 113 115 115 117 114 111 105 101 95 90 86 82 78 73 70 66 60 58 55 53 50 46 44 42 40 38 36 35 33 31 30 30 30 28
102 103 102 103 106 109 111 112 115 115 115 116 113 109 104 99 92 90 85 80 77 73 70 66 62 57 56 54 52 49 44 42 40 38 36 36 34 31 31 29 28 29 27
102 104 106 108 112 113 115 114 111 112 117 114 110 103 98 94 89 82 80 75 75 71 67 62 60 56 54 54 51 47 42 40 39 37 35 35 33 31 29 28 27 27 25
105 107 109 112 114 115 115 115 114 113 106 105 105 100 95 91 87 79 76 70 66 68 62 59 58 55 53 52 49 46 41 38 38 35 34 33 32 30 28 27 26 26 25
107 110 112 114 115 115 115 113 110 106 101 94 90 89 89 85 84 78 73 70 64 62 60 58 56 53 51 50 47 45 41 37 37 34 32 31 31 28 27 27 25 25 24
111 112 114 116 116 115 113 109 106 100 94 89 84 83 80 77 76 73 69 66 64 61 59 56 53 50 48 47 45 43 39 36 35 34 32 31 29 28 26 26 24 24 23
113 116 116 115 112 112 108 104 97 91 87 84 82 80 77 71 68 65 65 65 62 59 55 52 49 46 45 44 43 41 38 34 32 33 31 30 29 27 24 24 24 22 22
116 115 113 111 109 106 101 95 91 86 82 79 76 74 71 68 65 62 62 61 60 56 51 48 47 44 42 42 41 39 37 32 30 31 30 29 28 27 25 24 24 23 22
114 112 110 108 104 100 94 89 86 81 77 74 70 68 67 67 64 61 58 56 55 52 51 46 44 43 40 40 40 37 36 32 30 30 28 28 27 27 25 24 24 23 23
111 108 105 102 97 94 89 85 81 77 74 70 67 66 65 63 61 59 56 54 51 49 48 46 43 41 39 39 38 36 34 31 29 28 27 27 27 25 25 24 23 23 23
106 103 99 94 91 87 84 80 77 74 70 68 67 64 62 60 59 56 54 51 49 46 45 44 42 40 39 38 37 35 34 31 28 27 27 28 27 25 25 24 24 24 22
100 96 92 88 86 82 78 76 73 71 69 66 63 61 59 58 56 53 50 49 47 43 42 41 41 39 38 37 37 36 33 30 28 26 26 27 27 26 25 24 24 24 23

GFSGL_250_spd_024.txt.gz
Wind_Speed
35 39 45 51 57 59 60 64 67 70 74 74 75 80 84 87 88 90 94 97 101 99 98 104 105 106 109 111 111 110 108 105 98 94 93 88 82 76 73 71 68 65 62
37 44 51 56 57 64 67 69 71 73 76 78 81 86 91 92 94 96 98 102 101 99 105 108 107 109 112 113 111 109 104 97 92 88 84 80 76 71 68 66 62 58 55
46 50 53 56 63 67 69 71 73 78 80 82 86 91 95 98 98 101 102 102 101 105 108 107 109 113 114 112 109 104 98 91 85 80 78 75 72 67 64 62 58 54 49
48 54 57 60 66 70 71 73 78 82 83 87 91 95 100 102 102 104 105 102 106 110 111 112 115 116 114 109 105 100 93 86 81 78 75 72 68 64 61 60 57 51 48
54 58 61 64 69 72 74 78 82 85 88 92 96 98 102 104 106 104 102 107 111 113 115 117 118 116 112 107 103 96 89 82 79 75 71 69 66 63 59 55 54 52 45
59 63 65 68 71 75 78 82 84 88 91 95 100 100 101 105 104 104 108 111 114 116 117 118 117 114 111 107 100 92 85 79 75 71 69 67 64 60 55 50 50 49 46
63 65 69 72 76 79 81 84 87 91 95 99 100 104 107 107 105 109 112 115 117 118 119 118 115 112 109 102 94 87 82 75 70 68 66 64 61 57 52 48 44 43 43
65 68 73 76 79 81 84 87 92 96 98 100 102 106 105 106 109 113 117 117 118 119 118 118 114 111 104 96 89 83 78 71 67 63 61 59 57 55 52 47 44 39 38
70 73 76 79 82 84 87 92 95 98 101 103 106 106 106 109 114 117 118 117 118 118 119 117 112 104 97 90 83 78 73 67 63 59 57 57 56 53 51 46 41 40 35
74 76 79 82 84 88 91 94 97 99 102 105 106 107 110 113 118 119 118 118 118 118 117 113 104 97 92 84 77 75 70 65 59 56 55 55 53 51 49 46 41 36 36
76 79 82 85 88 90 94 97 98 101 105 105 107 110 114 117 118 119 119 119 120 116 112 104 96 91 87 78 72 72 66 62 56 54 53 53 50 47 45 44 40 38 34
80 83 86 89 91 95 98 98 102 106 105 108 109 113 117 119 118 121 120 119 116 110 103 95 91 87 81 73 68 69 62 59 55 52 51 51 50 45 42 40 39 37 35
85 89 90 93 96 99 99 102 105 105 107 109 113 114 115 118 122 121 119 115 110 101 95 90 88 83 76 72 65 64 59 56 54 52 50 49 48 44 41 37 37 33 33
88 91 94 96 97 98 101 103 103 109 110 114 115 115 115 116 119 119 115 110 102 95 90 88 86 80 72 68 63 60 57 55 53 51 47 46 45 42 40 36 34 33 32
92 94 95 97 98 100 103 103 108 111 115 114 116 115 116 114 116 116 112 101 94 90 85 85 82 77 68 62 59 58 55 54 52 49 45 43 43 41 38 36 33 32 32
94 96 98 99 102 104 103 107 113 114 115 118 117 116 112 112 110 107 99 95 89 86 81 79 77 71 63 58 57 56 53 51 50 47 43 41 40 39 36 35 32 31 30
98 99 100 103 105 106 111 112 111 112 117 120 122 119 117 112 108 101 93 87 84 82 78 71 66 68 62 58 55 53 51 49 48 44 41 39 38 37 34 33 31 30 29
100 102 105 105 108 113 114 114 112 111 108 111 114 113 110 105 99 93 91 84 79 77 73 68 64 62 61 58 55 52 50 47 45 42 39 37 36 34 33 32 29 27 28
105 106 107 111 114 114 113 113 112 112 109 107 106 106 100 96 91 87 83 79 73 71 70 67 64 59 56 55 51 49 47 44 42 40 36 34 34 33 32 30 29 26 26
108 109 112 113 112 112 112 111 110 110 109 106 102 96 91 87 84 82 79 75 68 68 67 64 63 58 54 51 48 45 44 41 39 38 35 33 31 31 30 28 27 26 24
111 112 111 112 111 110 110 109 109 109 106 102 95 90 85 81 78 75 74 72 69 67 64 61 59 54 51 49 46 44 42 40 37 35 34 32 30 29 29 27 26 25 23
110 110 110 109 109 110 109 109 108 104 99 92 87 84 81 78 74 70 69 68 65 63 60 57 55 52 48 46 43 41 39 37 34 34 33 30 29 28 28 27 25 24 23
108 109 108 108 109 109 108 107 103 97 90 86 82 79 76 74 72 69 65 63 60 57 57 54 50 47 45 43 41 40 38 36 34 33 32 30 28 27 27 27 24 23 23
106 108 109 109 110 108 104 100 94 90 85 81 78 75 73 70 68 65 61 59 57 54 51 50 47 44 43 40 40 39 37 36 34 32 31 29 27 27 26 26 25 24 23
107 109 109 109 105 101 96 92 89 85 81 77 75 72 69 66 63 60 58 56 54 51 48 46 46 44 41 39 37 38 36 34 33 31 29 28 27 26 25 25 24 24 22
109 109 106 103 99 94 91 87 84 80 78 74 71 69 66 63 60 58 55 52 51 49 47 45 42 41 40 38 36 36 35 31 31 29 27 26 26 25 24 23 23 23 22

GFSGL_250_spd_027.txt.gz
Wind_Speed
26 29 32 37 38 47 56 59 59 63 66 74 77 78 80 82 86 87 89 91 94 95 99 104 103 102 105 109 110 114 115 114 112 109 103 98 89 82 77 74 70 67 65
30 32 34 41 46 51 55 59 64 69 72 75 77 80 83 86 91 93 93 95 98 100 104 101 103 106 112 114 116 117 116 114 109 103 97 88 83 79 75 71 66 62 59
35 39 43 47 50 55 60 64 68 69 73 76 80 85 88 89 93 97 99 95 101 106 106 107 110 113 116 118 118 118 116 112 104 96 91 86 80 76 72 68 63 59 55
43 45 48 52 56 61 65 67 69 72 77 81 85 89 90 92 96 99 101 103 106 108 109 111 114 117 119 121 120 118 114 106 99 93 87 81 76 72 68 64 62 54 52
46 50 54 58 62 65 67 70 74 77 80 84 88 90 91 94 99 101 102 105 110 110 112 114 117 120 122 121 120 116 109 103 94 90 84 78 72 69 65 60 56 53 49
52 55 58 62 66 68 71 74 78 81 84 86 90 91 95 96 100 102 106 109 111 112 113 117 120 122 121 119 116 111 105 96 91 86 80 74 70 67 63 57 51 49 49
56 60 64 67 69 72 75 78 82 84 86 88 92 96 99 103 103 106 109 110 112 113 116 120 121 123 119 116 112 107 99 92 86 81 77 70 68 64 60 55 50 45 44
60 65 68 70 73 75 79 82 84 86 89 92 94 98 101 104 106 108 111 111 113 116 120 121 122 121 117 112 109 101 93 85 81 77 73 68 65 60 57 55 51 45 41
65 68 70 72 75 80 83 84 86 88 91 94 97 101 103 105 107 111 111 114 117 120 120 122 121 118 114 108 103 96 89 82 79 74 70 65 61 56 55 53 51 46 40
67 69 72 76 81 83 84 87 89 91 94 98 101 103 105 106 111 112 116 118 120 119 121 122 120 116 110 104 99 92 85 80 76 71 65 61 57 54 52 52 51 46 40
69 73 77 79 81 85 87 89 91 95 99 100 103 105 106 111 111 115 119 120 120 120 120 119 115 112 105 99 93 88 81 75 73 67 60 57 54 52 51 50 49 45 41
74 77 79 82 84 87 90 93 97 100 101 104 104 106 111 113 117 120 121 119 120 119 116 115 111 106 99 92 86 82 76 70 67 63 55 55 53 50 50 48 45 42 40
76 79 82 84 87 91 95 98 101 103 104 104 107 108 110 116 121 124 122 120 118 114 112 109 102 98 92 86 81 74 70 64 62 61 53 53 51 49 48 46 42 39 38
79 82 85 89 93 97 100 101 103 104 106 109 110 112 115 118 119 118 117 117 115 110 105 100 96 90 86 82 75 69 64 61 59 59 54 52 49 47 46 44 40 37 34
85 88 92 95 98 101 102 102 103 108 110 112 115 117 115 113 112 111 109 108 107 104 98 94 87 85 81 77 70 65 61 58 57 55 53 51 48 46 43 42 39 35 33
90 92 94 95 97 100 103 107 110 111 114 116 117 115 113 112 109 107 104 100 99 95 89 86 82 79 75 70 66 64 61 57 53 52 51 48 46 43 40 39 37 34 31
88 91 95 98 101 103 105 106 108 112 114 114 113 110 111 111 111 106 101 96 94 89 85 81 77 73 70 65 63 62 59 57 52 50 48 45 43 40 38 37 35 33 30
92 95 97 100 101 102 103 104 105 105 105 106 108 110 111 110 106 101 95 89 87 84 77 74 73 69 67 64 61 58 55 54 51 47 45 42 40 38 36 35 33 31 29
95 97 98 99 101 102 102 102 102 102 104 105 106 108 106 106 103 97 90 84 79 77 74 72 69 66 62 61 58 54 51 50 47 45 42 39 38 35 34 33 30 28 27
99 99 100 100 101 102 101 102 104 105 106 106 105 102 101 99 95 91 87 81 76 71 68 66 65 62 59 56 53 49 47 45 43 41 39 37 36 33 32 31 29 27 25
100 101 102 101 101 103 104 105 106 106 106 104 103 99 94 88 86 82 79 77 73 70 67 64 62 58 54 51 47 45 43 41 38 36 35 34 34 30 30 29 27 25 24
103 103 103 104 105 105 106 107 108 107 105 103 98 93 88 84 79 76 74 71 67 65 64 61 58 53 49 46 43 42 41 39 36 34 33 33 32 29 29 27 26 23 23
105 106 107 107 106 108 109 109 108 106 102 96 91 87 83 79 76 73 71 69 65 61 59 56 54 49 45 42 40 39 39 37 34 32 31 31 30 27 27 27 26 23 22
109 110 110 110 111 111 110 109 106 101 96 90 86 83 78 75 71 70 69 66 62 57 54 51 49 47 43 40 39 36 36 35 33 30 30 29 27 26 26 25 24 22 21
113 114 114 113 112 111 110 105 100 96 91 86 82 78 74 71 69 66 63 61 58 55 50 47 45 44 43 38 36 35 33 33 31 29 28 26 25 24 24 25 24 22 21
115 114 112 112 110 107 102 99 95 90 86 82 78 74 71 69 65 63 59 57 54 50 47 44 43 42 40 38 35 33 32 32 30 27 26 25 24 23 24 24 23 22 21

GFSGL_250_spd_030.txt.gz
Wind_Speed
36 33 32 32 30 34 40 48 50 56 61 62 65 71 76 79 83 85 86 89 93 95 97 100 102 102 102 106 110 110 115 118 118 120 118 114 107 102 93 83 78 75 72
37 36 35 38 36 38 45 51 56 60 62 64 70 75 78 80 84 88 90 93 97 100 102 102 105 105 108 111 112 115 119 121 123 120 119 112 103 95 86 79 75 70 68
40 40 38 39 42 46 51 57 62 65 68 72 76 77 79 83 86 89 93 97 99 102 106 107 108 110 111 115 116 119 123 124 123 121 117 108 100 90 82 76 72 68 64
42 43 43 44 48 51 56 61 65 69 72 74 77 79 83 86 90 93 95 99 100 104 107 108 110 111 115 118 120 124 126 126 124 119 110 104 95 86 79 74 71 66 61
47 48 49 51 54 58 62 66 69 73 74 77 80 83 87 90 94 97 98 101 103 105 107 110 111 114 118 121 124 127 127 126 121 114 108 98 91 83 77 71 66 63 58
53 54 55 57 60 63 66 70 73 75 77 81 83 87 90 95 96 101 102 103 106 108 111 112 114 118 121 124 127 127 128 123 117 111 102 94 88 81 75 68 64 59 55
55 57 60 63 65 67 70 73 76 78 81 84 87 90 92 95 99 100 103 106 108 111 111 114 117 122 125 128 128 127 124 119 114 103 98 90 84 79 73 66 61 57 52
58 61 64 66 68 71 74 76 79 82 85 88 90 93 95 97 99 103 106 108 110 111 115 118 122 126 129 129 127 122 120 114 107 97 92 85 80 74 68 62 57 55 51
57 61 65 68 71 73 76 80 83 85 87 90 93 95 96 100 104 108 109 108 110 116 118 122 126 128 128 125 122 119 116 109 95 91 86 81 77 70 64 58 55 54 53
61 64 68 71 73 76 79 82 83 85 88 90 93 97 101 105 108 109 110 112 115 118 121 124 126 126 124 120 117 113 109 100 88 84 82 77 70 64 61 56 54 54 51
62 65 68 70 73 76 79 81 83 87 90 94 98 102 104 104 107 112 115 117 118 118 120 122 122 120 119 115 111 106 100 92 83 79 75 71 65 62 60 56 54 52 50
62 65 68 71 74 77 79 82 85 89 93 95 97 100 104 107 110 112 115 117 118 118 117 115 114 113 111 108 102 97 91 84 80 74 72 64 61 59 57 53 51 49 47
63 67 70 72 74 75 78 82 85 88 93 96 97 100 105 109 111 112 115 117 119 119 116 113 109 107 104 99 93 89 85 79 74 69 66 60 60 56 54 51 48 46 44
63 65 69 73 77 79 81 85 88 91 94 98 101 104 106 109 111 112 111 110 111 111 112 111 109 102 97 93 88 83 79 73 67 65 63 58 57 53 51 49 46 43 41
66 69 72 75 78 82 86 87 91 96 100 101 103 106 107 109 108 106 106 106 105 105 103 102 97 96 91 88 83 78 72 68 66 62 60 56 54 51 49 46 44 41 39
70 75 77 82 84 86 87 90 97 101 102 104 105 104 104 103 103 104 104 105 104 100 94 91 89 87 84 80 77 73 70 65 61 58 56 54 50 47 46 43 41 38 37
78 80 83 87 87 88 93 99 101 100 102 103 104 103 104 105 105 105 104 103 101 95 89 86 83 80 78 74 71 67 64 62 58 55 53 52 47 44 43 39 38 36 35
85 89 90 92 92 96 98 98 100 100 101 103 104 105 108 108 107 105 101 97 93 89 84 79 76 75 72 69 66 64 61 58 55 52 50 47 43 41 39 35 36 34 32
92 94 93 96 99 99 100 101 102 103 103 104 107 109 108 108 106 102 96 90 86 83 79 76 71 69 68 66 62 59 56 54 51 49 46 43 40 38 36 34 34 31 30
93 94 99 101 101 101 103 105 105 106 107 109 111 111 110 108 102 95 89 86 83 79 75 72 69 67 63 60 57 54 52 49 47 44 41 40 37 35 33 32 31 30 28
98 101 103 103 102 105 108 108 109 111 112 113 113 111 108 100 92 87 83 80 77 74 72 70 68 62 58 55 52 48 47 45 42 40 38 37 35 33 31 30 29 28 27
106 105 105 105 109 111 112 113 113 113 114 116 114 107 98 91 85 82 78 75 72 70 69 67 62 57 54 51 48 45 42 41 40 38 35 35 33 31 29 28 28 27 25
107 107 110 113 114 115 115 114 114 116 115 111 104 97 91 86 82 78 75 72 70 67 65 61 58 55 50 48 45 42 39 38 38 36 33 32 31 29 27 27 27 26 24
113 113 115 115 116 116 116 116 117 114 108 100 94 89 86 83 79 75 72 69 67 64 61 58 55 52 47 44 42 41 38 35 35 35 32 30 29 27 25 25 26 25 23
116 116 117 117 118 117 117 114 110 104 97 93 90 87 82 78 75 72 69 65 62 59 57 54 52 48 45 42 40 39 37 34 33 33 30 28 28 26 24 24 25 25 23
117 118 119 119 117 115 112 107 100 96 93 90 86 82 79 75 71 68 65 61 58 55 53 52 48 44 42 41 38 36 34 32 30 31 29 27 26 25 23 24 24 24 22

GFSGL_250_spd_033.txt.gz
Wind_Speed
40 41 41 41 38 40 41 46 46 48 48 53 57 61 66 71 76 81 84 87 91 93 93 93 100 101 103 108 110 113 115 118 117 117 123 124 123 119 112 107 106 101 92
42 40 41 40 39 41 42 47 49 53 55 58 63 67 72 77 82 84 88 91 90 92 95 96 101 105 107 109 113 116 117 118 119 122 124 125 122 117 108 107 104 98 88
44 43 41 43 44 47 49 53 53 56 59 63 68 72 76 80 83 85 89 92 94 95 98 99 102 104 107 112 115 116 118 121 125 126 122 121 116 112 107 106 99 90 83
43 41 43 45 49 53 54 56 57 61 65 69 72 75 79 82 84 87 91 94 99 99 103 106 108 112 115 117 117 120 124 126 125 124 121 117 115 110 106 101 93 85 79
42 40 41 46 48 53 56 59 62 66 69 73 76 80 82 83 86 91 93 96 99 100 103 107 110 112 114 117 122 124 125 126 126 124 120 115 113 111 103 95 86 79 76
47 46 49 53 55 59 62 65 68 70 73 77 80 81 83 86 90 92 95 96 98 101 105 107 110 112 117 120 123 124 124 124 125 126 121 118 112 109 98 90 82 76 72
50 50 52 55 59 62 66 69 71 74 76 77 79 82 85 88 90 92 94 96 98 102 105 108 113 117 120 123 122 121 123 125 124 122 118 117 111 104 91 83 78 71 67
47 48 48 51 55 59 62 64 66 70 74 78 82 84 86 87 89 91 94 97 99 103 108 111 114 117 120 123 124 124 122 118 119 119 116 111 103 94 86 79 74 67 63
45 47 49 53 56 58 62 66 70 73 76 78 80 83 86 87 89 92 94 97 101 106 110 113 116 119 121 123 124 120 118 117 116 113 108 101 95 87 81 74 68 63 60
48 49 51 54 57 60 64 67 69 71 74 77 80 82 84 88 91 94 98 103 105 108 111 114 116 117 118 117 119 120 117 115 114 107 98 90 89 79 75 72 65 61 56
53 54 56 58 60 62 64 66 67 70 74 78 83 87 89 93 94 97 101 106 109 110 112 111 111 113 114 115 115 115 115 111 105 100 92 81 77 78 71 68 63 59 55
57 58 59 60 61 61 62 66 70 74 77 80 84 88 90 93 94 99 104 109 112 111 111 110 110 111 111 111 113 110 106 103 95 92 85 80 74 68 67 66 61 61 55
59 57 56 57 60 64 68 71 73 76 81 83 88 90 92 95 100 102 107 110 111 110 110 110 110 113 114 111 107 104 99 94 89 83 79 75 71 66 62 59 55 55 52
51 53 57 61 65 69 72 76 80 84 85 87 91 94 95 98 103 106 106 108 108 108 107 109 113 113 109 105 101 97 91 86 82 78 75 70 66 62 61 56 52 52 48
56 59 63 68 70 74 78 80 81 84 88 92 95 98 99 105 107 107 109 110 107 106 106 108 105 101 98 95 94 89 84 80 77 75 70 67 64 60 57 52 48 47 45
61 65 71 74 76 78 78 80 83 86 92 97 100 101 105 105 106 109 111 107 107 108 105 100 94 92 91 89 86 83 79 75 72 71 67 63 59 55 52 49 45 45 42
68 73 78 76 74 77 82 84 84 92 99 103 103 103 105 107 109 110 108 108 108 105 97 92 90 87 84 81 79 77 74 71 69 65 61 57 55 51 47 44 43 41 38
71 72 75 75 78 82 87 90 93 99 103 101 99 103 107 112 112 111 110 109 105 99 93 89 86 83 79 75 74 72 70 67 62 60 55 53 51 47 43 42 40 38 36
75 81 82 83 87 92 96 100 104 106 108 105 107 110 112 114 113 112 111 105 98 95 91 88 83 79 75 73 69 67 64 60 58 56 53 50 47 44 41 39 37 35 34
91 90 91 95 98 103 104 108 109 110 109 114 115 116 117 117 116 111 105 98 95 90 85 82 79 77 73 69 66 63 59 56 53 51 49 47 44 41 39 38 35 34 32
96 101 105 108 110 110 112 113 114 115 117 117 118 119 121 118 113 105 100 95 91 84 79 77 75 72 68 65 62 59 55 51 49 48 45 45 42 40 38 35 33 32 30
106 107 111 114 114 117 117 117 118 118 120 121 121 120 117 111 105 100 96 91 86 80 75 74 72 67 64 61 57 54 52 49 46 45 42 43 40 37 35 33 32 31 30
114 115 118 120 119 118 119 120 121 122 122 121 120 116 110 103 99 96 91 86 81 77 72 70 67 63 59 57 54 51 49 46 43 43 41 41 38 35 34 31 30 30 29
115 120 121 122 121 121 122 123 123 123 122 119 114 108 103 99 95 91 87 82 77 73 68 66 62 60 56 54 51 48 45 44 41 41 39 38 35 32 33 30 29 29 28
121 123 123 124 123 125 124 123 122 120 116 111 107 104 100 95 90 86 83 78 72 68 65 62 60 58 54 50 48 43 41 41 40 39 38 36 33 31 31 29 28 28 27
123 123 124 125 124 122 121 119 117 112 107 104 101 97 93 89 85 81 77 72 68 65 63 60 57 54 49 46 44 40 39 39 38 36 35 34 31 29 29 26 26 27 26

GFSGL_250_spd_036.txt.gz
Wind_Speed
42 37 37 32 34 43 52 53 50 50 54 57 61 62 63 66 66 69 72 77 82 87 91 93 95 98 99 101 103 106 109 114 116 116 117 120 121 122 117 114 111 105 105
41 33 41 43 43 42 43 47 51 51 54 58 61 64 66 68 71 74 78 82 87 89 94 95 97 99 101 104 107 111 114 115 117 117 118 120 120 118 116 112 111 109 105
44 37 44 47 45 42 48 56 52 53 55 59 62 67 70 72 75 78 83 86 88 92 94 96 99 101 103 105 108 109 112 115 119 121 118 118 117 117 112 112 112 109 104
45 41 44 44 38 45 52 51 54 58 61 66 69 68 69 73 78 83 85 87 89 91 95 99 100 101 103 105 108 111 115 119 121 121 120 120 120 120 118 112 108 106 100
40 40 43 45 46 47 49 52 54 56 59 63 67 71 74 79 81 83 85 86 89 93 96 97 97 100 104 108 110 114 118 121 120 122 122 122 122 124 120 113 108 102 96
41 46 46 46 50 53 53 54 56 58 61 63 66 70 73 75 77 79 83 87 89 91 93 96 101 104 107 109 111 114 118 121 122 124 123 125 125 124 121 115 107 97 90
43 43 45 47 50 53 53 53 52 52 54 57 60 65 69 74 78 80 82 85 88 91 95 97 100 104 105 108 113 114 118 118 120 122 122 123 125 123 119 111 102 90 83
41 42 43 45 46 47 48 49 52 54 57 61 65 68 71 75 76 77 80 83 86 90 93 97 97 101 107 111 115 117 117 117 119 122 125 122 119 116 108 101 94 84 78
46 49 51 51 52 53 54 55 58 60 63 66 68 70 70 70 73 78 82 86 89 91 96 97 101 104 109 115 118 119 118 116 119 122 124 121 112 102 97 92 88 77 73
54 56 55 55 56 57 58 60 63 64 64 64 63 67 70 72 78 83 85 86 88 93 99 102 104 107 113 116 117 118 117 117 117 117 115 111 102 95 90 86 82 74 69
58 60 60 60 60 59 60 61 61 59 60 66 70 73 76 78 80 81 84 88 93 96 99 102 105 109 111 116 119 119 119 117 112 109 104 98 95 90 84 79 75 71 64
52 53 54 54 55 55 55 56 58 63 66 71 75 78 78 79 78 83 88 94 99 104 105 107 105 108 113 114 113 113 112 111 107 101 96 92 89 84 79 75 70 68 63
54 53 54 52 53 55 58 62 65 68 73 79 82 78 78 81 85 90 95 100 103 108 108 106 107 111 112 110 108 108 106 103 100 96 92 88 84 80 73 70 66 63 62
55 55 55 56 58 61 65 65 68 72 76 81 79 82 88 92 97 97 101 104 107 108 107 107 110 111 108 106 105 104 102 99 95 91 87 83 79 75 70 65 60 55 54
56 56 58 57 53 53 56 60 63 71 73 77 84 89 93 95 98 101 106 108 108 107 107 109 109 106 104 103 101 98 96 94 90 86 82 78 75 69 65 60 56 52 49
59 56 58 58 60 61 64 66 73 77 85 90 94 99 101 103 103 107 110 110 108 108 111 109 105 102 100 98 94 91 91 89 86 82 78 73 70 63 59 56 52 49 46
65 64 62 62 69 69 72 77 81 89 93 101 102 104 106 109 109 112 111 110 113 115 113 109 105 102 97 92 88 86 85 85 82 78 74 68 64 58 55 52 48 45 43
69 66 70 70 77 80 83 85 89 97 103 109 107 111 115 118 117 114 114 116 119 117 112 108 103 98 92 89 85 82 81 80 76 73 68 62 57 54 51 49 44 42 40
83 77 75 79 83 87 91 97 104 108 113 114 115 115 116 119 118 118 119 121 120 116 112 108 101 94 90 86 83 80 78 74 71 66 62 58 53 50 49 45 42 40 38
90 86 86 88 92 97 101 107 113 118 121 120 122 122 123 121 119 120 121 120 118 113 108 102 97 92 87 83 81 78 74 69 64 60 57 54 50 48 45 42 40 38 36
96 95 95 97 101 106 110 116 121 124 122 126 123 122 122 123 123 124 123 120 114 108 102 98 94 88 85 79 75 73 69 64 60 56 54 51 48 45 42 40 38 36 34
100 99 101 104 108 112 118 123 124 122 125 123 124 123 125 125 127 125 120 113 108 103 98 93 90 86 80 75 71 69 65 60 56 53 51 48 45 42 40 37 36 34 33
104 106 109 111 115 120 123 123 122 124 123 125 126 127 127 126 123 118 111 107 103 98 93 89 85 82 77 72 68 65 62 56 52 49 47 45 42 40 38 36 34 33 31
107 110 113 115 119 121 122 125 124 123 125 127 129 127 124 120 115 110 106 102 98 93 89 84 80 76 72 67 63 59 55 52 48 45 43 42 40 38 36 34 32 30 29
114 115 117 121 124 123 123 124 123 124 127 126 124 121 116 111 108 104 99 95 92 87 82 77 72 69 66 61 55 52 49 46 44 41 41 40 38 35 33 31 31 29 28
117 118 121 123 123 122 121 121 123 124 123 121 117 113 108 105 100 96 92 89 84 80 75 71 67 63 60 55 50 47 46 44 41 39 38 37 36 34 30 29 29 27 27

GFSGL_250_spd_039.txt.gz
Wind_Speed
44 42 32 33 37 40 31 34 35 49 51 54 58 64 72 74 73 72 72 74 78 80 81 85 89 93 95 99 102 103 104 107 105 106 110 114 115 117 119 118 117 115 117
38 33 36 29 17 22 39 37 39 58 61 59 63 67 70 73 75 74 75 78 81 83 90 91 90 95 99 99 99 103 104 106 107 108 108 110 111 115 118 119 118 118 118
32 38 41 36 42 48 47 51 56 60 62 65 67 69 73 76 76 77 80 83 87 89 89 92 94 94 93 97 99 100 104 106 108 109 105 107 111 116 118 120 122 122 119
41 45 48 50 50 61 63 64 62 64 66 67 68 71 72 75 76 76 78 80 83 86 86 86 87 91 93 95 97 100 104 107 108 109 108 109 112 116 122 126 126 123 119
45 50 53 55 57 53 52 53 57 59 64 69 70 69 68 69 71 73 74 74 76 79 83 86 88 89 91 95 97 100 101 103 107 109 110 112 114 120 125 126 128 124 117
37 42 44 47 48 50 53 57 58 59 60 62 64 65 65 64 65 68 71 75 77 80 83 84 86 91 94 95 95 97 104 106 109 112 110 115 118 123 124 126 129 125 114
35 38 41 42 44 47 49 51 51 54 56 58 59 61 63 65 67 71 74 75 79 80 80 86 91 94 96 95 98 104 107 110 113 113 114 118 121 121 126 125 122 117 106
33 36 38 41 45 50 53 54 56 58 59 61 62 64 65 69 71 72 72 73 76 82 87 90 87 89 93 98 101 101 105 107 109 114 118 119 121 122 125 123 117 107 97
32 34 38 42 47 51 54 57 59 59 61 62 62 64 66 67 67 67 70 73 80 82 81 88 90 94 96 98 99 102 103 105 108 113 116 118 119 120 118 114 104 99 92
30 37 40 43 45 47 50 51 53 55 57 59 60 60 60 63 67 72 75 76 74 78 83 88 92 95 100 101 104 106 104 106 109 109 110 109 110 109 108 104 97 92 84
40 45 46 50 52 53 53 54 55 57 58 57 58 61 65 66 66 66 67 72 82 83 88 96 100 102 105 109 110 110 109 110 109 109 105 101 100 98 97 94 91 86 80
49 50 53 55 57 57 56 55 58 60 61 62 62 63 63 63 67 70 76 82 87 93 96 101 102 107 109 110 110 111 112 110 108 104 100 95 95 93 90 85 84 81 77
56 58 58 59 57 61 59 60 58 57 58 60 59 61 64 69 71 80 85 89 96 100 103 105 106 108 109 110 111 112 112 111 106 101 97 95 93 89 86 80 77 75 72
62 61 63 64 65 66 68 68 65 65 66 64 68 74 74 76 80 86 90 95 103 106 108 109 108 109 113 116 114 115 115 112 107 101 97 92 89 84 83 77 71 69 66
69 69 69 71 69 72 74 77 69 68 69 71 75 80 81 84 86 91 96 104 108 112 113 110 113 119 120 117 117 116 115 111 106 101 95 89 84 80 79 72 67 63 61
71 71 74 74 75 79 79 81 80 79 77 77 80 82 87 92 95 97 105 110 113 115 114 118 121 121 117 116 115 114 110 105 99 95 90 86 80 76 73 66 62 58 55
74 77 77 77 81 84 85 87 86 87 88 87 87 87 91 97 100 103 111 116 120 118 120 122 121 119 117 116 113 109 105 100 94 90 86 80 75 69 67 61 59 54 51
80 81 82 83 85 89 91 94 94 95 96 95 96 94 99 106 111 113 116 124 124 125 123 124 122 117 116 114 110 105 99 93 89 87 81 75 69 64 61 58 55 52 48
85 88 88 88 90 94 96 99 99 99 100 101 101 101 106 113 119 122 124 128 128 127 127 125 121 119 116 109 104 98 93 88 85 81 76 71 65 60 57 55 52 48 45
91 92 92 93 95 100 102 105 106 105 105 106 106 107 112 117 121 124 128 129 129 127 122 119 119 113 107 103 98 94 90 85 79 74 70 66 61 56 54 52 48 44 41
93 95 98 99 102 108 110 109 109 107 107 110 113 115 121 122 124 128 128 129 126 121 120 117 112 108 103 97 94 90 85 78 72 69 65 61 56 52 49 47 44 40 38
97 99 101 105 111 116 113 110 111 110 113 116 118 122 125 127 129 128 129 127 123 120 115 110 106 101 97 94 89 82 77 72 67 63 59 55 51 48 45 42 40 37 36
101 102 107 113 116 113 112 113 113 115 117 119 124 125 128 129 128 128 124 120 118 114 109 104 99 97 92 87 79 74 70 67 63 58 54 51 48 45 42 39 37 35 34
106 111 116 117 115 116 114 114 116 117 121 123 127 128 128 129 126 122 118 115 111 107 102 98 94 90 85 79 73 68 64 61 58 53 50 47 45 42 39 37 35 33 33
116 116 116 116 116 114 116 119 120 122 125 126 127 127 125 121 116 114 110 106 103 100 96 91 86 82 77 71 67 64 60 56 52 49 47 44 42 39 37 34 33 31 31
115 116 116 116 116 117 118 119 120 123 125 124 122 118 116 112 108 106 103 100 96 91 87 83 78 73 68 65 61 58 54 51 48 45 43 41 39 36 34 32 31 30 28

GFSGL_250_spd_042.txt.gz
Wind_Speed
44 36 36 33 23 26 30 28 28 28 28 41 53 57 57 59 65 68 72 78 80 80 82 87 90 91 92 95 98 98 98 96 92 97 100 106 109 112 112 114 117 117 117
36 34 30 35 35 35 32 24 43 33 38 51 60 66 58 61 71 80 84 85 87 87 89 88 90 93 95 95 96 92 91 95 95 97 101 104 106 108 112 115 116 116 114
31 36 40 32 33 38 39 45 34 43 48 49 58 65 73 78 81 86 88 89 88 90 91 92 92 91 90 86 88 90 91 92 96 97 96 99 103 108 110 113 113 113 116
38 39 39 40 42 44 40 49 54 56 66 74 77 78 79 81 86 90 90 88 89 91 93 90 83 81 83 85 85 85 90 90 90 93 93 96 101 106 109 110 108 113 117
41 46 47 46 51 48 52 58 59 63 67 71 75 81 88 88 87 86 87 87 85 81 79 79 80 82 81 80 83 85 87 86 89 92 95 98 101 102 104 105 111 115 115
40 42 45 52 56 61 62 64 69 73 76 78 80 81 80 81 78 77 77 78 77 78 79 80 79 79 79 82 84 85 85 88 94 95 97 102 105 108 108 109 111 113 111
34 39 45 51 55 58 62 62 63 64 66 67 67 70 74 75 76 78 78 79 80 79 77 75 76 79 81 84 85 84 88 93 96 98 99 107 110 113 111 111 113 114 112
24 26 28 34 41 45 49 52 56 61 66 70 74 77 77 77 77 75 72 71 72 72 73 76 78 74 77 79 85 89 92 97 102 105 111 114 116 113 114 114 114 110 107
17 22 24 22 26 30 32 33 36 37 42 48 54 59 62 64 64 65 68 70 72 75 79 81 77 79 84 81 86 90 93 98 102 106 111 115 117 115 116 115 113 109 103
25 25 26 28 30 32 34 40 41 41 43 49 50 51 57 60 63 67 70 72 71 72 72 76 80 82 84 86 91 93 96 97 102 108 114 119 117 116 119 117 111 104 100
40 39 38 38 38 40 42 44 45 49 51 53 55 57 56 59 66 71 72 73 72 78 86 84 82 85 87 91 95 98 101 102 108 111 116 115 116 116 113 113 109 101 95
47 49 50 50 49 49 51 53 53 55 55 58 61 62 61 64 65 66 68 72 77 81 85 84 85 88 91 95 99 104 106 110 115 117 116 117 114 111 110 107 102 97 93
53 56 56 57 57 57 59 60 60 60 62 63 67 68 71 72 72 73 75 76 79 83 86 90 90 91 95 99 104 108 113 117 119 121 119 114 109 106 103 97 96 91 87
60 60 62 62 61 63 66 67 66 68 68 69 71 74 76 80 83 86 85 86 88 88 87 91 94 96 100 103 110 116 118 122 125 123 118 111 108 103 99 93 89 85 78
64 64 66 67 67 68 69 71 72 75 77 77 77 79 82 86 90 92 90 92 93 93 95 97 98 101 105 110 117 120 125 128 127 123 117 111 106 100 97 89 84 78 73
69 70 71 72 73 74 74 76 78 80 83 83 84 85 87 92 96 98 96 97 97 98 99 102 105 109 114 118 123 126 130 129 125 119 114 106 99 96 92 85 77 72 69
75 77 78 76 78 79 79 82 84 86 88 88 88 90 93 99 102 102 103 103 103 102 102 106 110 115 120 126 128 130 128 125 119 113 106 100 95 91 84 76 73 66 63
80 83 82 81 83 85 85 89 91 93 92 93 94 97 102 105 110 109 110 107 107 107 109 113 117 122 126 129 130 128 124 120 112 105 100 95 89 83 77 70 67 62 58
86 87 86 87 89 90 93 95 97 97 97 98 100 105 110 114 116 117 112 110 111 112 116 119 123 128 131 129 128 125 118 111 104 99 95 89 82 76 72 65 62 58 53
89 91 92 92 94 95 99 101 102 100 100 103 107 113 117 118 119 117 114 114 116 118 121 125 128 131 129 128 122 115 108 103 98 92 87 80 74 69 66 61 57 52 49
96 95 94 97 99 103 106 105 105 103 105 110 116 121 119 119 117 115 115 117 119 122 125 127 129 128 125 117 111 104 100 97 90 84 80 75 68 64 60 56 53 49 45
94 94 97 100 105 109 108 108 106 110 114 119 123 121 120 118 117 117 117 119 122 126 127 127 125 120 112 107 101 97 93 89 84 78 73 67 62 59 56 52 49 45 42
97 99 103 108 109 108 106 108 112 117 121 120 120 121 120 117 116 118 120 123 125 125 124 120 113 108 104 98 94 89 85 81 77 70 66 61 57 55 51 48 45 42 39
102 108 110 109 105 107 111 115 119 120 120 121 120 119 118 119 120 121 122 122 121 119 113 107 103 99 96 92 88 83 77 73 68 64 60 56 53 51 47 44 41 39 37
108 107 106 108 110 114 117 119 120 121 121 119 118 118 119 119 119 119 119 116 112 107 103 98 96 92 88 84 80 75 70 65 61 58 55 52 49 46 43 40 39 37 35
106 108 110 112 115 118 119 119 118 118 117 118 118 117 117 117 116 114 110 105 101 98 95 91 87 85 81 76 72 68 62 59 56 54 51 48 45 42 39 37 36 35 33

GFSGL_250_spd_045.txt.gz
Wind_Speed
51 46 44 42 40 41 40 35 36 36 38 33 37 39 39 46 55 59 60 65 65 72 83 78 85 87 88 89 92 97 95 95 88 83 87 90 92 93 98 102 101 104 105
40 47 52 53 53 52 50 45 43 43 37 42 44 45 54 50 61 69 71 74 75 80 83 81 85 98 99 99 98 95 87 83 86 89 90 90 91 97 98 99 100 101 105
36 39 45 49 49 51 48 43 48 48 43 45 49 50 60 66 66 71 71 77 85 85 91 94 97 102 103 94 95 90 88 88 90 86 85 90 94 96 94 96 97 99 103
31 32 37 44 47 50 48 45 50 48 48 52 59 58 59 69 78 85 80 85 90 91 94 100 101 101 98 95 94 90 91 87 85 86 92 92 91 96 96 96 96 101 102
32 32 32 39 42 46 47 54 56 52 53 57 60 64 66 72 76 84 90 93 96 100 104 106 102 98 94 94 89 85 81 84 88 90 91 95 101 103 99 100 98 97 101
30 32 31 35 40 45 52 54 54 56 60 65 65 70 74 78 83 88 93 99 101 101 97 95 93 89 85 83 80 83 85 88 87 90 94 97 101 99 99 101 102 103 102
25 25 29 34 41 47 49 54 61 63 64 65 69 72 75 79 84 89 91 91 91 79 74 74 74 74 78 81 83 82 78 85 93 93 95 100 96 101 101 102 102 107 110
31 30 31 34 39 41 43 46 50 54 56 60 60 54 49 53 54 52 52 51 52 55 59 63 68 72 75 78 82 85 90 95 97 98 100 99 99 100 101 104 105 109 109
34 34 34 31 33 38 41 43 45 48 49 51 54 56 55 56 58 59 58 59 60 61 62 64 66 69 72 74 76 81 86 92 95 94 94 97 99 102 107 107 108 113 114
42 37 36 41 38 37 43 47 48 50 53 55 56 56 58 59 61 64 65 66 65 67 69 70 74 76 77 79 82 85 89 93 95 97 96 98 102 105 112 116 116 118 120
48 46 41 41 43 43 47 46 50 54 59 61 63 64 64 65 65 67 69 70 70 71 74 76 81 84 88 87 90 91 91 93 95 94 96 98 103 109 115 119 121 122 119
49 48 48 47 48 50 53 54 55 56 57 59 63 67 69 70 71 73 73 76 77 77 78 80 85 89 94 93 93 94 94 96 96 97 100 102 106 111 117 119 124 126 122
53 51 52 52 53 57 58 58 61 63 65 67 68 70 72 73 74 77 79 80 81 83 83 84 90 96 98 97 99 99 100 101 101 102 103 106 110 116 119 122 124 120 114
53 54 56 56 60 62 63 64 66 68 71 74 74 74 75 75 79 81 83 86 88 88 89 91 97 103 102 102 105 106 106 105 104 105 107 112 115 117 121 121 117 109 103
60 57 59 61 63 66 67 71 71 74 77 81 81 81 81 83 85 89 90 91 93 93 95 98 103 106 107 107 109 110 108 108 107 108 114 115 116 119 119 114 108 100 95
66 64 63 65 67 71 74 76 78 81 85 87 88 87 85 88 89 95 96 97 97 97 100 105 109 110 111 113 114 112 111 110 112 116 117 117 118 115 112 108 100 95 89
69 68 68 71 73 77 81 82 84 86 90 91 92 92 92 94 95 99 100 100 99 103 106 111 115 115 117 118 117 115 113 114 117 118 119 119 114 110 105 99 95 88 83
74 76 75 79 82 83 85 87 87 92 93 95 97 96 98 98 101 103 102 102 105 109 114 117 119 119 121 119 116 115 114 117 118 118 118 113 108 102 97 93 88 81 77
79 78 80 82 83 85 86 88 92 94 97 99 101 102 101 104 105 105 106 109 113 117 121 122 123 124 119 117 115 115 117 118 117 116 111 107 100 95 91 86 81 75 70
76 79 82 86 88 92 93 94 96 100 101 106 105 104 107 108 109 111 114 117 121 124 126 127 125 121 119 115 115 117 117 117 114 108 103 97 92 85 81 79 73 68 64
82 85 87 91 95 94 96 96 101 104 108 104 106 108 109 111 113 116 118 122 125 127 127 123 121 118 114 115 116 116 114 110 105 100 96 92 87 80 75 71 67 63 60
87 90 94 94 93 95 99 103 103 107 105 107 110 113 115 116 118 121 123 125 128 125 121 118 116 115 115 115 114 111 107 102 97 93 89 84 78 72 69 65 61 58 55
89 91 93 95 97 100 102 104 106 107 109 113 118 118 118 121 123 125 125 124 120 118 116 115 115 115 114 111 107 102 98 93 89 86 81 76 70 66 63 59 57 53 50
92 93 98 102 100 102 106 109 109 113 117 121 119 121 123 124 124 122 120 117 116 115 114 113 112 109 106 102 97 93 88 84 80 76 72 68 64 60 58 55 52 48 45
102 101 103 106 107 107 108 111 115 119 119 121 122 124 123 121 119 116 114 114 113 113 110 107 103 100 96 93 88 84 79 75 72 69 65 62 58 55 53 50 47 44 41
104 105 106 108 109 110 112 112 113 117 120 121 122 120 118 115 113 113 111 110 107 104 100 97 94 91 88 84 80 76 72 69 66 62 59 55 53 51 48 45 42 39 37

GFSGL_250_spd_048.txt.gz
Wind_Speed
36 43 51 48 46 46 44 44 44 46 48 45 46 48 51 48 41 39 48 53 51 60 63 65 67 72 77 84 75 84 96 101 102 97 98 100 96 92 89 86 86 89 94
30 36 41 48 52 59 57 54 59 55 52 52 51 55 52 51 51 42 47 52 61 71 68 70 76 82 80 84 95 98 103 107 108 105 102 96 90 85 84 88 89 88 94
27 32 39 41 40 39 43 51 56 56 56 59 61 61 58 52 52 51 52 59 62 67 69 74 80 84 89 96 101 106 107 110 111 98 86 84 83 86 88 86 87 93 101
27 26 32 36 39 41 40 40 44 47 49 54 57 53 54 57 59 57 58 64 67 70 74 79 85 90 96 102 104 109 106 92 79 75 76 77 81 86 87 88 92 101 105
28 27 25 29 34 37 39 40 43 45 46 46 50 53 57 62 62 61 64 65 68 74 79 87 94 95 90 90 92 69 59 62 66 70 74 78 82 85 88 92 95 98 100
32 28 25 21 26 34 39 42 44 45 46 48 49 54 57 58 63 66 69 72 72 73 78 71 64 72 61 66 70 70 71 71 70 75 78 81 85 87 90 92 92 93 94
41 36 34 30 25 23 25 32 38 40 45 47 50 57 60 62 67 70 73 74 63 61 62 67 73 73 72 72 74 74 73 75 77 81 86 88 88 90 91 92 94 95 98
41 41 40 38 34 32 31 33 35 38 41 45 47 50 54 56 56 57 60 61 65 67 70 71 73 73 75 76 77 76 77 79 81 84 89 93 93 94 96 97 97 97 98
42 42 37 34 34 33 33 35 38 41 44 45 48 52 53 54 59 64 65 69 73 74 73 75 76 77 78 79 78 80 81 83 85 88 93 97 97 98 100 102 103 102 100
46 48 45 43 40 39 36 39 40 43 45 48 48 46 46 50 53 54 57 61 64 67 70 69 72 74 76 80 81 84 87 87 89 92 98 101 102 103 105 108 108 108 110
48 50 53 55 53 50 45 46 46 50 52 53 54 57 59 59 60 63 66 69 70 71 75 75 76 80 79 84 86 88 88 90 93 97 104 106 108 110 113 115 116 115 113
52 54 54 58 59 59 59 58 57 56 57 58 60 61 63 64 66 69 71 74 77 79 80 81 83 86 86 90 90 90 90 93 96 103 107 109 110 113 116 119 118 116 116
55 60 61 61 63 61 61 64 65 66 64 64 66 67 68 70 72 74 77 79 83 85 87 88 86 90 92 93 94 95 95 97 103 108 111 113 115 117 119 120 117 114 114
60 62 65 64 65 66 66 67 67 68 69 68 70 74 76 76 77 80 82 85 88 90 91 93 92 94 97 97 98 99 101 103 107 112 116 119 120 121 122 120 116 116 113
70 67 68 71 70 69 70 71 70 71 75 78 77 79 80 82 83 85 86 89 92 95 96 96 97 100 102 101 103 105 106 109 114 119 122 124 125 124 122 119 117 114 110
76 75 75 76 78 76 75 77 78 80 82 83 84 85 87 88 88 89 91 95 97 98 101 101 101 104 106 107 108 109 112 117 122 125 127 129 127 124 120 119 114 108 102
83 83 83 82 82 83 87 88 86 86 90 91 91 91 91 91 92 95 98 101 100 102 105 105 107 109 111 114 115 115 119 124 128 130 131 128 124 121 118 113 106 102 102
89 89 90 91 89 89 88 87 88 91 92 94 94 94 95 97 100 101 102 102 103 107 108 110 112 114 117 118 117 120 125 130 132 132 129 123 122 117 111 104 101 98 93
89 92 92 91 93 93 92 92 90 89 92 93 95 96 98 102 106 106 104 105 107 110 113 114 116 118 121 122 123 127 131 133 132 129 124 121 115 109 103 98 95 92 86
85 87 90 93 92 88 91 90 88 90 93 94 97 101 105 107 107 108 110 110 112 116 118 119 122 124 126 126 130 133 134 133 129 123 119 113 107 101 95 92 88 84 79
83 86 88 86 84 87 88 91 93 94 95 99 105 108 107 109 110 111 114 117 119 117 121 124 126 127 128 132 133 133 130 124 119 114 108 103 99 93 88 83 78 75 71
86 86 87 88 90 94 95 97 100 104 108 109 109 110 111 109 113 113 119 118 119 122 125 126 127 130 132 131 128 122 118 114 108 103 99 97 91 86 83 78 73 68 63
84 85 88 93 97 100 100 100 102 105 105 108 109 110 113 114 118 119 120 121 123 124 125 128 128 128 125 121 117 112 108 103 99 96 92 87 81 76 73 70 67 61 57
89 90 91 93 95 98 102 105 108 107 109 112 114 115 117 118 120 121 123 124 124 126 126 123 119 116 114 111 105 100 96 92 89 87 83 79 75 70 66 62 59 55 52
98 100 100 100 100 101 105 108 110 113 113 115 116 117 119 120 121 122 122 123 121 117 114 111 109 106 101 98 95 91 88 83 80 77 73 69 66 63 60 57 53 50 49
94 96 99 102 103 105 106 108 110 111 113 115 116 118 120 120 119 118 116 113 112 108 104 101 96 93 91 87 85 82 78 75 71 68 66 63 60 57 54 51 49 46 44

GFSGL_250_spd_051.txt.gz
Wind_Speed
19 20 26 32 38 48 47 49 51 54 54 56 54 52 52 51 51 51 50 48 50 52 51 50 55 58 60 63 68 69 75 79 82 83 92 97 91 89 78 67 69 72 77
22 22 23 27 36 40 43 48 54 54 53 55 53 53 55 55 57 54 54 59 58 53 52 56 54 60 61 64 68 71 77 80 86 94 89 81 76 70 74 78 78 76 78
24 24 26 28 29 33 37 42 43 46 49 52 54 53 54 55 58 58 59 59 60 51 52 54 57 61 64 68 71 74 80 87 88 77 73 74 79 79 78 80 81 83 83
25 24 26 27 29 30 33 35 37 40 44 44 48 51 53 56 58 55 53 51 51 55 59 60 63 66 70 73 77 83 84 75 73 79 76 76 78 79 80 81 84 84 86
25 28 27 28 29 30 29 30 33 36 40 40 43 45 48 47 47 49 53 58 56 56 58 61 65 66 66 67 66 68 74 74 73 78 79 79 80 82 83 85 85 85 86
31 33 29 31 31 33 31 31 30 32 34 38 41 44 44 44 45 45 48 51 54 56 58 61 62 62 65 68 72 75 75 74 78 80 81 80 80 82 85 85 85 86 86
35 36 33 34 34 35 36 36 34 33 32 31 32 33 35 38 41 44 47 50 51 52 54 58 60 60 57 58 61 65 68 72 75 80 82 82 85 87 86 89 88 89 92
38 40 39 38 41 41 41 40 40 43 43 40 39 38 37 39 42 45 48 51 55 57 57 52 55 59 64 64 65 69 73 75 80 83 85 87 90 91 91 90 92 95 97
43 41 39 39 45 49 49 47 46 44 45 44 44 43 43 45 46 51 51 51 55 56 58 62 65 67 67 69 71 74 78 80 83 85 87 89 92 94 95 96 97 98 101
55 47 44 43 45 52 55 54 52 53 51 51 51 51 52 51 54 57 61 63 63 63 65 67 68 71 73 75 79 81 83 85 89 91 92 94 96 98 100 101 102 103 107
57 57 51 49 49 54 55 55 56 59 61 62 61 61 62 63 64 66 69 71 71 70 72 73 74 77 80 83 85 86 89 91 94 96 99 99 101 104 105 109 109 109 110
65 64 62 62 58 61 62 62 62 62 63 65 68 69 68 69 72 75 77 77 78 78 78 80 81 85 88 89 89 92 95 98 99 101 104 106 107 109 112 114 115 115 116
76 74 71 69 70 76 69 70 68 68 70 71 68 71 73 75 76 77 77 80 82 85 86 88 90 94 93 94 95 99 102 103 105 106 109 110 111 113 116 118 118 118 121
71 74 76 74 76 80 80 76 76 75 75 77 78 79 80 78 79 80 82 85 88 91 93 95 97 99 99 99 101 104 106 108 110 110 111 113 116 117 119 119 119 122 126
77 80 76 75 76 82 84 85 85 84 84 83 85 87 86 88 90 91 91 93 95 97 99 100 103 103 103 103 106 109 113 113 114 113 114 118 118 119 121 122 123 127 130
86 86 86 85 82 84 87 90 91 93 93 92 92 95 92 92 93 94 97 99 102 105 106 108 107 107 108 109 112 116 118 117 116 116 120 118 120 122 124 126 129 132 132
87 87 87 86 88 90 94 92 96 97 100 99 98 100 101 102 102 102 104 107 109 109 111 110 110 109 109 112 119 119 117 119 117 122 122 124 125 127 128 131 132 130 127
88 89 91 92 93 97 97 98 100 100 100 103 105 106 106 108 108 108 107 109 111 110 112 112 111 113 115 121 121 118 121 123 126 127 127 128 130 130 132 131 128 123 117
87 91 96 96 96 100 103 104 104 102 104 106 110 111 109 106 105 106 109 109 107 108 110 114 117 118 123 118 120 123 124 128 128 130 130 131 132 131 127 121 116 112 106
82 84 93 96 97 92 98 99 102 108 108 105 105 105 103 102 102 104 106 107 109 111 116 117 116 116 118 121 124 126 128 129 131 131 131 130 127 120 116 111 106 101 95
84 87 90 94 94 96 99 98 102 104 106 106 102 101 101 100 102 104 106 109 113 112 113 116 117 120 123 125 125 127 129 130 130 129 127 121 115 110 103 100 95 92 87
82 86 88 92 95 98 100 104 108 110 106 102 102 102 102 104 107 108 109 110 112 113 115 119 121 123 124 125 127 127 128 126 123 118 112 108 102 97 93 89 86 82 78
84 85 89 92 95 97 99 100 99 98 98 99 100 102 105 104 103 106 108 109 113 116 118 120 122 125 125 125 124 121 117 113 107 102 99 94 92 88 85 82 76 72 68
91 93 93 97 101 102 102 100 101 101 101 100 100 99 102 104 106 108 112 115 117 118 121 123 123 123 121 115 109 105 100 96 94 91 88 85 83 79 75 71 68 64 60
96 99 100 100 99 97 97 97 99 100 100 101 102 103 105 109 112 113 114 116 119 120 118 117 113 109 105 99 96 93 90 88 84 83 81 77 73 69 66 63 59 56 54
93 93 94 95 94 94 94 97 100 102 102 102 104 107 108 109 112 115 116 114 113 110 106 103 99 95 92 89 87 85 82 79 76 74 71 67 65 62 58 55 52 50 48

GFSGL_250_spd_054.txt.gz
Wind_Speed
12 12 11 12 14 24 35 43 47 46 46 49 51 52 55 55 56 57 59 63 63 61 59 57 53 56 56 53 53 54 53 58 62 63 67 71 74 80 84 89 87 86 84
18 19 13 16 14 16 18 22 34 45 52 53 52 54 54 55 58 57 59 59 61 62 59 55 59 61 58 54 55 56 58 61 63 65 70 74 82 84 91 81 81 83 81
23 20 19 13 14 15 17 17 22 30 38 45 50 54 56 57 57 57 58 59 59 60 60 59 64 55 55 54 55 57 60 62 66 70 74 81 79 77 77 76 76 79 82
32 29 27 21 20 19 19 21 20 20 25 34 40 45 47 49 51 51 52 55 59 61 60 56 56 58 58 56 57 60 66 64 63 62 63 66 68 66 72 75 78 83 88
36 35 35 29 27 25 24 24 26 25 25 25 26 33 42 45 49 52 54 55 56 55 55 54 55 56 52 50 53 54 57 61 61 57 62 64 67 70 75 78 80 84 85
39 38 39 38 35 30 28 29 30 32 31 30 29 29 31 33 35 40 42 46 47 49 50 49 46 49 51 52 55 58 60 60 60 67 69 72 75 78 80 83 84 87 89
44 43 42 44 43 39 36 35 35 35 37 38 38 38 39 38 38 37 38 40 41 43 45 46 49 54 55 57 59 60 62 67 70 72 74 76 80 81 86 89 91 94 96
48 45 47 47 47 49 46 43 42 42 42 44 45 47 47 46 46 45 45 47 47 49 52 53 56 57 62 63 65 69 72 74 75 78 81 85 87 88 92 95 98 99 101
52 52 53 50 50 51 50 52 55 50 50 50 50 53 52 54 54 54 54 54 55 56 60 63 66 68 71 74 77 78 80 82 83 86 89 90 93 95 96 99 103 104 105
60 58 58 61 58 54 50 56 57 56 57 57 56 55 58 58 61 63 64 65 66 67 69 71 74 78 81 83 85 87 87 88 91 94 96 97 99 102 103 106 107 110 112
64 66 66 65 63 63 60 60 61 64 63 63 62 61 61 65 65 68 69 69 70 72 74 76 78 82 85 87 88 90 90 93 97 98 100 103 105 109 112 112 113 114 116
72 70 71 69 69 67 65 64 67 74 71 71 71 66 67 72 71 74 77 77 76 77 80 84 87 90 91 92 93 95 99 101 103 106 109 111 113 115 115 116 116 117 120
80 76 74 73 73 71 72 77 77 77 78 79 74 74 75 77 77 78 81 85 87 87 91 92 96 98 99 99 100 103 106 108 110 112 114 117 118 120 119 120 119 120 124
80 78 78 77 77 76 80 81 81 79 80 80 79 81 83 83 86 88 89 90 93 95 98 100 101 103 104 104 103 105 107 110 115 117 118 120 122 122 120 120 125 129 132
83 83 84 81 76 78 80 80 82 83 84 87 89 88 90 91 92 92 93 96 100 102 103 106 108 109 112 112 115 117 116 118 118 118 121 124 121 123 122 126 128 129 125
86 85 88 86 85 84 87 90 92 92 91 95 99 99 99 97 99 99 101 102 105 106 108 108 112 114 114 117 118 117 115 115 116 117 121 118 119 122 127 128 127 127 127
88 89 91 91 92 93 92 96 97 99 100 97 99 102 102 103 104 106 107 108 111 113 116 115 114 116 119 120 115 114 114 115 117 119 120 122 123 126 124 124 124 126 128
76 82 87 88 93 96 97 99 100 99 99 101 103 103 103 106 107 110 112 112 115 118 116 114 111 111 113 109 108 111 114 117 119 119 120 121 122 121 124 125 126 127 128
74 75 81 91 87 93 97 99 101 102 101 103 102 106 109 105 102 109 114 112 114 117 117 112 113 116 111 110 108 111 113 114 115 117 118 118 122 123 125 126 126 125 121
75 78 85 87 84 87 87 92 89 91 89 96 101 100 104 104 104 108 114 114 115 118 118 117 116 112 111 112 113 113 113 116 117 118 121 122 123 124 124 124 120 114 111
78 79 83 86 87 88 90 91 94 97 98 101 103 108 111 114 115 113 113 115 118 120 117 113 113 112 110 111 113 114 115 118 121 120 122 122 121 119 115 110 105 101 96
78 79 80 80 81 84 86 91 100 104 108 108 109 111 113 114 115 116 116 115 112 111 111 111 110 110 112 114 115 118 119 120 120 120 119 116 112 106 101 97 94 91 87
78 80 81 84 86 90 93 95 97 102 106 109 110 111 111 113 113 112 111 110 109 106 107 110 111 112 115 118 118 119 119 119 117 112 106 101 97 94 91 87 83 81 77
80 83 86 88 91 93 96 99 102 104 105 109 112 112 110 109 109 106 102 103 105 106 107 111 115 116 117 118 118 117 113 107 102 97 93 90 86 84 81 78 75 72 69
82 85 89 92 93 97 99 101 103 106 109 109 106 105 104 100 100 103 106 108 109 110 111 113 116 117 114 110 105 101 96 92 88 87 83 80 77 75 73 71 69 67 64
88 88 90 94 97 97 100 101 103 104 104 104 104 102 104 105 104 104 107 108 108 110 111 109 107 103 99 96 93 89 86 83 81 78 75 73 72 70 67 65 62 59 56

GFSGL_250_spd_057.txt.gz
Wind_Speed
17 14 12 14 17 25 31 39 53 61 63 62 67 68 64 62 61 60 59 62 59 60 62 62 63 66 67 64 64 65 64 61 63 60 60 61 60 56 62 66 71 72 75
26 21 21 18 15 17 22 24 27 31 39 45 52 59 60 60 60 60 60 61 59 60 61 63 63 62 61 63 67 67 67 70 69 66 65 62 57 63 66 71 69 74 69
27 31 27 26 23 20 19 17 21 23 27 29 31 38 43 47 52 57 59 62 64 64 64 64 64 65 64 67 66 70 71 68 68 66 63 64 69 74 75 70 64 66 70
28 34 33 32 29 31 30 26 23 23 24 23 24 25 27 31 34 38 44 49 52 54 57 61 65 69 68 69 70 68 66 65 64 61 57 57 59 61 63 63 67 74 75
38 32 41 39 36 36 36 36 31 29 27 27 28 29 26 25 27 29 32 35 36 44 51 55 57 59 60 62 63 63 61 55 55 53 57 59 63 63 67 72 76 79 81
44 39 37 43 44 42 40 38 41 40 38 35 33 34 37 36 36 39 38 36 39 37 35 36 37 41 45 47 49 51 54 57 59 62 64 68 70 73 77 80 83 87 91
47 45 44 40 48 48 45 43 44 44 44 46 45 42 43 40 43 46 45 45 42 47 48 47 49 50 52 54 56 58 61 65 67 72 74 78 81 84 88 90 93 94 95
53 54 52 48 48 49 48 48 46 47 49 51 52 51 50 50 50 50 52 53 50 47 52 54 56 58 59 62 64 67 70 73 76 79 81 84 88 89 92 95 97 97 100
61 58 55 57 56 53 52 52 52 51 55 57 54 54 57 60 61 59 60 59 58 57 57 59 62 64 64 67 69 71 73 75 79 84 88 91 94 97 98 100 102 103 106
68 64 61 60 63 62 57 55 57 58 61 62 61 60 61 62 59 61 62 61 63 65 63 68 68 70 71 74 77 80 82 84 87 89 91 95 97 100 103 104 106 108 110
72 71 71 65 65 69 68 67 67 65 67 66 67 69 71 71 68 70 73 74 74 74 72 72 73 74 77 80 83 87 87 90 96 98 101 102 101 103 106 107 112 115 120
77 76 77 80 74 74 74 75 75 74 71 70 71 74 77 78 77 78 79 78 79 78 76 78 80 83 87 89 92 95 97 98 101 102 101 103 108 112 116 119 119 119 120
87 88 87 88 85 82 81 79 80 80 80 77 79 78 78 79 78 78 80 80 81 83 84 87 88 90 94 99 101 101 102 104 107 110 112 113 115 119 122 118 118 118 116
97 98 97 96 92 88 88 88 87 87 83 80 80 80 81 81 82 84 86 85 89 89 93 97 99 101 104 105 105 104 103 107 110 115 121 118 121 119 118 115 120 117 116
103 103 104 101 99 98 96 94 90 87 88 86 82 84 88 89 89 89 92 92 97 102 102 104 102 102 104 106 104 107 112 117 116 115 117 118 116 116 115 117 113 114 115
87 88 86 85 86 89 89 90 92 91 91 90 91 91 93 92 95 98 97 101 101 103 107 106 108 106 107 109 110 113 114 110 114 118 119 118 118 119 120 118 117 118 117
77 74 71 72 66 69 70 71 79 86 91 92 93 95 96 97 98 104 103 102 106 108 111 111 109 109 110 110 110 109 116 119 119 123 125 124 125 124 122 122 119 118 119
62 57 62 66 69 71 63 63 68 73 82 86 86 86 92 97 96 98 104 110 109 107 103 108 106 110 109 110 115 118 121 122 125 123 125 124 122 120 118 118 119 122 123
69 66 59 58 59 65 57 67 70 71 68 72 74 83 85 87 91 97 98 100 101 104 105 106 112 114 115 119 123 127 128 128 127 126 124 121 119 119 120 123 122 121 119
65 68 72 69 65 59 62 71 72 76 83 82 87 95 96 100 100 102 102 102 105 107 110 115 119 121 122 125 127 129 127 125 126 126 121 121 122 123 122 120 119 114 112
71 72 70 74 79 70 76 80 84 88 89 92 96 101 105 106 104 109 106 107 112 114 117 121 124 126 128 132 129 122 123 125 119 119 122 124 121 119 118 115 113 107 103
76 76 79 78 82 81 90 93 95 96 96 98 102 104 108 110 111 107 107 108 112 116 119 122 125 126 125 123 122 124 121 118 122 123 121 118 117 116 113 108 103 99 95
83 81 87 85 89 93 97 99 101 102 103 99 102 104 106 108 108 109 111 114 116 118 120 121 121 122 121 121 120 121 121 119 118 117 117 116 113 106 102 99 95 90 87
80 83 89 90 93 97 99 98 99 100 101 103 105 106 107 108 110 113 115 118 119 119 120 121 119 117 119 118 116 116 116 117 115 113 109 103 100 96 93 89 86 82 79
76 81 84 86 89 91 94 96 98 98 100 101 103 106 109 112 114 116 117 119 119 118 114 112 115 115 115 115 114 114 112 109 104 99 97 94 90 87 83 80 77 75 72
75 78 81 84 87 89 91 94 96 98 101 104 106 107 107 107 108 108 106 104 104 106 108 110 109 111 112 110 107 103 98 95 92 89 87 85 81 78 76 74 70 67 64

GFSGL_250_spd_060.txt.gz
Wind_Speed
24 24 19 17 14 15 20 29 42 48 52 62 71 76 75 76 79 79 82 84 79 76 78 74 75 75 73 69 70 69 69 70 67 61 64 67 68 69 73 76 73 71 66
27 26 26 26 24 21 19 20 25 29 36 45 54 60 65 70 69 68 69 71 70 71 73 74 76 76 70 69 69 69 72 73 70 64 68 71 71 76 73 69 60 56 58
31 32 30 27 31 29 27 27 26 24 26 31 35 38 39 43 48 54 60 67 72 72 69 66 66 65 65 66 66 66 67 67 68 68 68 72 69 67 65 61 58 60 61
33 37 37 36 33 34 36 37 36 33 32 32 31 32 34 34 34 34 35 37 38 38 37 38 40 43 46 48 46 48 51 52 54 51 49 54 55 57 57 61 64 68 68
38 40 43 43 43 40 36 43 44 41 41 40 38 37 34 34 34 33 32 33 35 36 38 39 39 40 41 43 43 44 45 47 47 49 53 55 59 61 65 67 70 71 73
46 44 49 49 47 45 43 40 39 50 46 45 44 42 45 45 45 45 44 45 45 43 43 45 44 46 46 46 48 51 50 55 55 55 57 58 61 64 67 73 75 78 82
50 48 51 53 51 49 50 50 50 46 44 53 51 47 49 46 46 49 52 53 52 51 52 53 55 56 55 56 58 57 56 60 62 63 66 68 72 75 77 82 83 85 87
55 54 55 57 56 60 59 58 56 56 55 48 54 58 53 50 52 53 53 54 56 58 59 57 57 61 58 57 60 62 63 65 66 69 71 73 77 79 82 86 90 92 94
63 65 64 62 61 63 63 62 61 61 60 60 53 56 58 58 59 61 62 62 63 61 60 61 61 63 66 69 71 72 72 73 74 74 77 79 82 85 88 91 95 96 98
71 65 62 62 61 65 67 67 66 65 67 61 61 61 63 63 64 67 69 73 74 73 74 70 70 71 73 74 75 74 74 76 78 80 81 84 88 93 98 100 103 106 107
76 71 70 66 67 69 71 73 70 67 70 70 67 66 68 71 73 75 76 77 78 78 80 81 81 80 78 76 77 79 80 82 85 87 93 96 99 101 106 106 107 105 104
82 83 77 76 78 79 79 79 74 75 77 75 78 80 75 76 78 78 79 82 84 85 86 82 82 82 85 84 87 86 88 87 91 98 100 103 107 109 107 109 105 107 108
93 91 91 88 87 84 83 83 83 84 83 88 92 91 90 86 82 84 87 88 86 82 85 88 84 87 90 91 94 95 97 98 102 105 106 108 108 106 105 105 107 106 110
97 97 94 91 90 92 91 90 87 85 90 92 91 92 91 90 93 92 91 89 89 78 73 91 92 93 94 97 103 100 102 105 106 107 110 108 108 107 107 110 109 113 115
97 98 99 98 100 101 101 100 100 101 101 100 99 101 101 103 99 92 90 86 84 86 92 96 101 101 100 99 103 106 105 104 105 108 108 112 112 111 110 115 117 120 123
101 102 102 102 101 102 102 100 98 97 99 91 87 90 83 79 77 83 80 75 64 71 91 104 99 100 100 98 98 102 107 108 110 104 106 109 113 117 119 120 122 126 128
87 86 86 84 83 85 83 82 79 78 77 79 72 67 62 63 76 77 73 76 76 88 100 96 99 96 95 97 98 101 107 110 110 113 115 117 118 120 121 127 130 132 136
78 76 77 77 76 76 71 69 58 58 54 43 50 66 82 80 84 58 68 70 82 94 95 85 90 95 98 101 103 108 111 113 116 119 119 121 123 125 129 131 136 137 136
68 68 66 64 66 59 48 55 50 49 47 44 47 58 79 82 87 73 83 95 103 99 91 93 99 104 104 109 112 114 119 120 124 125 125 124 127 128 130 131 130 129 126
66 65 62 62 56 52 58 72 64 64 66 68 74 73 79 89 93 90 99 106 107 105 104 100 103 107 112 119 123 125 125 129 127 125 126 128 129 130 130 129 125 119 119
63 66 64 66 61 65 83 86 81 73 75 79 80 76 86 99 102 110 108 106 108 109 108 110 113 118 119 122 125 130 129 127 131 133 132 130 130 127 123 119 116 116 113
62 65 70 74 74 80 84 79 76 88 84 79 79 80 84 90 98 104 108 108 112 113 116 118 120 122 126 126 128 131 131 131 128 126 127 124 121 117 115 114 112 109 106
61 64 73 77 80 86 87 83 90 95 92 88 88 92 100 102 104 106 107 112 115 118 121 123 120 123 126 125 124 123 123 124 122 120 118 114 112 113 109 106 104 101 99
60 63 65 74 80 83 89 95 96 97 102 102 99 106 106 107 112 114 116 118 118 118 121 123 120 118 118 119 119 117 115 112 111 109 110 111 108 106 103 99 96 91 87
64 65 68 68 70 76 84 89 96 99 100 99 105 108 109 110 109 110 113 116 115 112 110 110 111 110 110 109 110 109 108 107 107 107 105 102 99 95 92 88 85 80 77
65 66 68 70 72 75 78 82 88 93 97 100 101 105 107 106 108 110 107 105 105 105 106 107 107 107 105 106 107 107 105 102 100 96 94 91 88 84 81 78 75 73 72

GFSGL_250_spd_063.txt.gz
Wind_Speed
20 21 19 19 22 25 22 21 27 35 45 53 59 63 63 66 67 71 73 73 74 73 78 81 84 84 83 83 84 82 82 80 77 80 75 70 70 70 70 67 66 65 69
24 25 26 26 23 20 26 28 28 27 29 36 40 38 42 50 62 72 76 76 79 77 74 70 75 74 74 75 77 80 83 84 80 68 63 61 60 60 61 59 59 59 56
35 33 33 34 32 29 27 27 29 32 32 32 33 32 33 35 37 40 43 46 48 52 54 55 55 53 53 53 50 49 48 45 43 42 42 42 45 47 49 48 50 53 56
44 47 40 34 33 33 32 35 36 33 33 38 42 42 40 40 39 37 38 39 40 40 41 41 38 37 38 42 42 43 42 41 44 43 43 43 45 49 52 54 55 58 60
40 46 46 44 38 39 39 40 42 41 42 41 38 41 44 45 46 46 45 43 42 41 42 44 46 46 48 50 49 50 49 51 53 51 54 54 55 56 59 60 62 66 68
46 45 44 49 47 45 45 46 44 49 48 46 49 48 50 46 46 53 55 54 53 52 52 53 55 55 58 56 55 57 59 61 62 62 61 61 62 62 65 67 69 72 76
50 50 53 55 55 53 51 50 49 48 50 51 56 56 56 55 54 54 53 57 55 56 56 57 57 58 59 63 65 66 67 64 65 65 63 67 69 71 72 71 73 76 79
52 51 57 60 58 60 62 57 56 58 58 59 60 59 59 55 60 61 63 60 60 63 62 62 64 67 66 67 68 68 69 70 70 73 76 77 77 76 77 77 78 80 85
57 58 60 65 65 63 61 63 63 66 63 59 63 67 66 66 67 69 64 60 59 59 59 63 66 69 71 71 74 76 76 79 79 81 82 82 79 79 85 81 83 85 88
63 63 62 61 64 68 72 72 73 74 67 64 65 68 72 71 68 64 67 67 71 71 66 68 72 76 79 81 82 82 82 85 84 83 86 86 85 85 91 93 93 94 98
66 65 68 69 71 72 74 78 79 78 75 72 72 71 73 75 76 73 73 74 77 77 75 78 82 84 85 84 86 88 88 88 92 86 81 84 87 93 94 101 102 100 102
70 69 73 76 81 81 83 84 82 82 79 76 77 76 79 83 83 81 79 78 79 82 86 89 88 83 86 86 89 92 94 78 86 88 90 93 97 100 106 107 105 107 110
74 77 83 86 86 88 91 92 91 91 90 92 89 86 85 83 85 83 82 81 82 84 89 89 95 87 90 88 83 84 84 84 81 95 100 106 106 105 105 103 107 110 113
88 87 87 89 94 95 96 96 97 98 97 95 96 92 89 86 90 90 90 89 87 91 92 96 87 90 86 84 74 75 80 83 95 100 105 111 105 110 106 106 104 105 108
94 91 96 94 97 102 104 106 108 107 108 109 110 107 99 93 101 96 91 88 101 86 73 90 89 74 90 94 72 88 89 103 104 98 103 109 113 112 120 108 105 108 111
107 106 108 107 106 106 108 110 111 109 107 106 103 100 100 100 101 110 106 97 99 91 77 91 88 69 65 83 97 104 94 93 102 109 108 112 117 117 111 111 115 117 121
110 106 105 109 108 106 106 104 105 104 101 97 93 88 85 82 89 96 83 100 89 83 93 96 84 81 84 86 95 90 94 100 102 112 106 113 115 114 116 115 119 121 126
106 105 104 101 103 98 93 94 94 93 91 89 87 82 78 76 84 86 86 88 86 78 80 88 91 85 85 85 91 96 103 106 106 111 117 121 126 125 121 122 125 129 134
91 90 88 90 93 89 86 87 86 84 81 78 79 76 71 71 85 77 76 73 71 78 81 83 86 105 104 101 107 105 107 110 115 119 124 131 132 132 127 128 130 136 133
86 86 87 87 86 80 79 79 78 79 76 74 72 70 71 68 66 69 73 77 77 80 83 88 99 93 96 110 111 115 115 117 122 127 133 132 135 130 130 132 134 136 132
80 81 83 84 81 75 74 75 76 78 77 75 77 75 70 71 75 81 82 84 85 85 87 91 94 99 108 113 116 123 124 130 133 138 137 134 136 132 130 130 130 127 126
72 72 74 76 70 66 65 67 68 71 72 73 76 73 75 79 80 86 85 88 91 91 94 96 100 105 112 118 123 126 130 132 132 128 129 126 122 122 123 122 125 119 114
67 68 69 71 70 66 66 67 69 71 73 76 76 80 84 85 89 93 95 97 98 102 106 106 107 111 115 113 115 116 113 113 116 118 119 119 117 119 116 115 113 107 101
60 61 62 64 65 65 65 66 70 73 75 78 82 84 86 92 94 96 100 104 106 112 110 105 108 112 114 111 113 117 117 118 120 115 115 115 112 111 110 105 100 97 94
55 55 56 60 63 66 67 68 72 72 76 80 81 85 87 90 93 98 101 104 109 111 110 111 114 117 120 122 119 116 113 112 110 109 110 110 105 101 99 96 92 90 86
56 56 57 58 60 63 66 69 71 73 75 79 89 90 90 94 97 98 99 100 103 104 106 111 114 110 109 108 106 104 104 105 106 105 101 97 96 92 89 87 85 81 77

GFSGL_250_spd_066.txt.gz
Wind_Speed
20 22 20 20 20 22 23 21 24 25 24 25 42 51 48 53 57 59 61 62 66 67 68 71 75 77 78 80 81 82 83 84 82 80 77 76 76 73 67 62 58 56 54
25 24 28 26 28 29 29 30 26 23 26 29 28 28 33 43 53 60 66 69 72 75 77 77 79 79 81 80 82 82 78 78 74 63 49 47 45 44 45 45 45 46 48
32 31 30 30 31 31 34 31 27 28 26 27 28 30 35 35 35 37 39 42 46 48 49 49 52 52 54 56 55 55 52 48 45 41 43 47 46 50 51 52 52 54 56
40 37 35 34 33 33 35 33 31 31 32 33 34 34 35 33 33 36 42 44 44 46 48 49 51 51 51 51 49 49 49 48 50 49 48 50 49 55 59 60 60 63 66
46 45 40 38 38 37 37 40 40 39 38 39 39 38 38 39 43 44 43 44 45 45 47 51 55 59 60 61 60 60 59 57 58 58 57 58 59 63 65 69 68 69 69
48 48 45 46 42 43 43 42 43 45 47 46 45 44 45 45 46 53 55 56 54 52 51 48 51 53 58 62 65 65 65 65 63 62 62 62 62 63 67 71 72 74 75
51 50 51 51 49 47 47 48 51 53 54 53 53 52 52 53 53 56 62 58 55 53 57 59 60 63 61 58 60 60 61 61 62 64 65 65 67 69 72 75 76 78 79
50 50 52 53 52 51 52 51 53 58 58 58 61 60 56 55 57 55 59 64 64 61 60 59 65 66 59 63 68 66 70 70 67 69 73 76 76 75 77 79 81 84 82
56 55 55 55 56 58 58 55 58 61 64 63 64 62 62 62 60 64 63 67 70 71 68 68 67 66 67 70 72 74 75 75 75 77 82 76 77 80 82 82 81 84 80
59 58 57 57 59 60 60 61 61 65 65 64 63 64 67 68 68 67 70 75 75 72 71 71 72 71 74 74 76 79 83 84 81 85 84 87 89 85 78 78 69 85 79
62 63 63 62 61 60 60 63 65 67 66 69 70 71 74 75 76 71 77 80 77 79 76 76 77 79 81 81 80 80 84 84 84 87 92 97 87 76 68 71 65 75 84
70 70 69 66 64 65 65 67 69 69 72 75 76 77 79 81 81 82 84 85 84 84 85 80 83 83 87 90 88 87 91 93 93 93 97 88 92 79 75 80 79 82 93
72 71 72 69 69 71 73 76 78 77 78 79 78 83 87 87 93 92 90 88 88 90 89 90 89 94 90 94 91 89 88 98 101 101 102 86 86 91 85 86 96 86 92
75 74 75 77 79 81 82 85 87 87 84 84 88 89 93 96 96 96 99 100 97 96 94 96 95 93 98 96 97 90 79 92 111 99 97 94 92 98 93 82 86 100 108
77 80 83 85 87 89 92 92 92 94 97 100 102 103 106 103 106 106 104 101 103 106 100 107 91 103 97 95 99 96 92 100 99 90 97 101 103 93 97 97 96 107 111
87 92 93 95 97 98 100 102 104 107 109 111 110 105 111 110 110 109 108 111 104 111 108 107 108 108 97 110 104 111 118 112 109 109 109 110 110 98 107 97 103 111 124
104 106 107 108 108 110 111 114 118 115 112 111 115 116 116 113 110 109 107 106 105 100 101 108 100 102 111 120 120 117 117 118 114 113 111 108 108 110 111 113 113 119 121
113 114 115 117 120 118 113 113 113 114 112 109 113 110 107 104 103 99 96 93 96 91 92 93 93 93 103 112 108 109 111 109 113 119 121 116 115 116 119 117 122 127 132
121 116 112 111 105 104 101 99 100 101 100 97 100 100 97 98 97 97 94 91 86 83 84 86 90 95 100 105 105 107 108 108 110 116 124 122 123 122 122 126 130 129 132
102 101 102 101 95 94 92 91 91 93 93 93 96 94 91 90 87 88 88 87 85 81 79 79 82 87 89 95 100 103 105 103 105 108 110 112 116 120 118 120 126 130 125
94 94 94 93 90 88 85 82 82 83 84 83 85 82 80 79 80 79 80 82 83 83 83 79 81 86 89 94 94 95 98 100 105 106 110 115 116 115 116 118 121 123 125
86 84 83 82 80 77 73 71 71 71 72 73 74 71 72 73 73 74 75 77 79 80 82 84 86 86 88 93 95 93 93 101 107 108 110 113 115 115 118 121 123 127 128
76 75 75 73 71 70 68 66 66 66 66 66 68 70 72 71 72 74 75 75 77 80 82 83 85 91 93 95 94 95 99 100 101 105 110 114 116 117 119 119 121 122 108
70 70 69 68 66 65 65 64 63 62 62 63 64 66 68 71 73 75 76 77 78 79 83 85 86 88 90 93 95 100 105 109 111 112 115 113 110 109 112 112 107 101 100
62 62 62 63 63 63 62 61 62 62 62 61 62 64 68 70 74 77 78 79 82 83 85 86 88 91 94 95 97 99 99 99 98 99 98 99 100 102 101 101 102 98 98
61 62 62 61 61 62 62 62 62 63 64 64 65 66 68 71 73 77 80 82 85 86 86 86 87 87 88 90 90 91 94 95 95 95 97 98 97 99 99 97 94 90 87

GFSGL_250_spd_069.txt.gz
Wind_Speed
24 19 16 16 17 19 20 20 21 22 20 19 18 20 21 30 43 44 47 48 50 52 57 60 61 63 67 68 71 73 74 77 78 83 85 85 80 76 72 70 60 55 52
31 30 26 22 20 20 21 22 23 23 23 23 20 19 18 21 26 30 41 49 53 54 53 56 60 65 66 69 72 75 71 69 65 57 58 58 55 52 54 55 54 53 52
38 34 34 32 26 25 26 27 27 26 24 26 26 26 24 24 24 26 29 31 34 35 37 41 43 45 48 50 50 49 51 51 50 50 50 53 54 56 57 58 58 58 60
42 38 37 34 34 31 32 31 31 30 30 31 33 32 32 32 32 29 30 32 34 36 38 41 43 43 46 46 46 47 47 49 51 53 54 58 60 62 65 64 62 62 63
44 40 39 38 38 40 38 37 36 35 34 35 38 41 40 39 40 38 38 38 40 42 44 44 45 47 48 48 47 52 54 51 51 52 52 56 59 60 63 66 64 65 64
44 42 42 43 44 45 44 42 43 42 41 41 42 44 45 47 47 46 46 47 48 48 47 48 50 48 49 54 52 55 59 59 59 61 53 57 56 57 59 66 68 69 74
48 48 47 46 45 46 47 47 48 49 47 46 46 47 48 51 55 53 51 52 55 55 54 54 54 54 56 57 61 61 63 61 60 62 61 62 65 69 68 69 75 80 79
53 52 51 50 50 49 50 51 52 53 53 51 52 53 53 53 58 58 58 57 59 60 60 61 60 58 60 65 66 66 63 65 66 68 68 69 73 72 75 75 76 78 82
57 57 56 56 56 56 55 55 56 56 57 58 58 61 59 58 61 61 64 67 64 63 65 68 69 68 69 68 72 70 68 71 70 71 72 76 76 80 80 79 82 83 85
62 62 62 62 62 62 61 62 63 64 64 64 64 61 60 62 66 67 69 71 68 70 72 73 74 73 73 72 75 77 76 77 79 77 76 78 81 81 81 85 91 88 88
67 68 68 68 67 66 67 68 69 69 69 69 70 66 64 63 62 67 69 70 72 75 74 76 80 81 80 79 81 82 83 87 87 86 83 86 83 82 88 89 88 90 96
70 69 69 71 72 71 70 69 71 72 73 74 72 70 69 67 67 70 74 77 79 82 81 79 79 81 84 84 84 78 79 90 82 90 89 83 97 89 98 87 83 99 98
76 76 77 76 76 76 77 74 74 75 75 74 76 75 72 74 76 77 79 82 86 88 87 87 89 89 94 94 96 93 97 94 72 98 98 94 100 99 99 101 96 91 99
77 78 78 77 76 76 77 79 80 80 79 79 77 77 75 78 82 84 86 87 89 94 95 99 101 95 100 88 87 105 105 99 95 102 103 106 110 94 103 105 106 108 104
80 78 77 77 78 80 82 83 84 83 81 80 81 82 84 88 90 93 96 98 102 105 107 106 104 101 108 108 107 109 112 108 112 109 108 112 115 113 104 117 115 119 117
86 86 86 87 87 88 90 90 89 87 86 86 88 95 98 102 106 109 111 113 113 113 114 110 105 109 109 114 118 116 119 118 117 119 123 126 125 122 120 128 127 126 125
93 93 93 94 98 96 96 93 92 94 100 104 107 109 111 116 119 120 123 125 123 117 117 116 116 120 122 118 116 118 118 119 117 116 118 118 117 117 119 122 125 126 121
104 105 105 103 103 102 103 107 108 112 117 118 120 121 122 121 117 116 116 117 118 119 114 111 111 109 109 108 105 105 107 105 103 109 109 108 111 109 117 120 122 126 128
103 105 105 105 109 111 114 117 120 118 113 110 108 104 105 105 105 105 104 104 103 106 107 103 101 101 101 100 100 99 99 98 98 98 100 103 104 108 113 120 121 124 125
112 115 118 118 117 115 113 111 110 109 105 102 99 98 96 95 94 94 95 96 96 98 99 99 96 94 94 94 94 93 92 91 91 91 93 94 97 99 105 111 112 114 116
111 108 109 111 112 109 103 100 98 99 97 95 93 91 89 87 86 85 84 85 87 88 89 88 85 85 83 82 83 83 82 83 84 85 89 87 87 89 89 94 99 104 106
101 97 96 97 97 97 97 95 93 91 91 89 87 85 83 80 79 79 80 80 81 82 82 82 82 82 80 79 80 80 81 80 82 84 85 86 87 88 91 93 94 96 97
92 92 92 92 91 90 89 88 87 85 84 82 79 77 75 74 73 72 72 74 75 76 77 78 79 80 81 80 80 80 81 82 83 84 86 88 90 92 95 97 99 98 97
85 85 85 84 83 83 83 82 80 78 76 74 74 75 74 72 70 68 68 69 69 71 72 75 77 78 80 81 83 83 83 83 85 86 86 87 89 91 92 93 93 94 96
78 77 78 78 77 76 75 75 74 73 72 72 72 70 69 69 68 67 66 67 67 68 70 72 74 76 76 77 79 80 80 81 81 81 82 83 84 85 86 88 90 90 90
74 72 71 70 70 69 69 69 68 68 68 67 66 65 63 63 64 65 65 65 66 67 68 70 71 73 76 77 78 78 79 80 81 82 83 84 84 84 84 84 83 83 84

GFSGL_250_spd_072.txt.gz
Wind_Speed
26 24 19 16 14 14 13 13 13 11 9 10 9 9 9 14 21 22 26 35 43 42 42 43 45 46 50 56 56 58 59 60 61 66 69 66 60 58 56 53 53 53 52
33 28 28 27 22 20 20 18 18 17 16 16 15 16 16 15 15 15 15 19 24 25 26 31 39 43 47 49 48 52 54 53 50 46 51 53 53 53 53 53 53 55 56
39 35 36 33 32 29 29 27 24 24 23 21 21 21 24 24 25 25 26 23 25 26 26 28 28 29 31 31 31 34 37 40 39 40 44 47 49 51 51 51 53 53 53
44 43 41 40 38 36 34 33 31 29 30 29 28 28 28 31 33 35 34 33 33 33 32 33 35 36 37 36 37 36 40 41 41 39 41 47 53 53 54 56 55 54 53
43 41 39 39 41 42 40 37 36 38 37 35 36 35 34 35 36 38 40 41 42 38 37 41 42 42 43 46 44 45 44 41 41 38 41 46 50 55 56 59 57 61 62
42 42 42 41 41 42 43 42 41 41 42 41 42 43 43 43 44 42 42 45 45 46 46 47 48 47 49 48 48 50 50 46 46 49 51 50 53 54 57 59 61 64 63
50 48 46 46 45 46 46 48 48 47 47 46 47 48 49 51 51 49 48 47 46 49 51 54 56 56 53 54 55 54 56 59 57 56 56 58 57 59 59 62 64 70 71
54 54 55 55 54 52 53 53 53 52 52 52 52 54 55 56 56 56 56 56 55 54 55 57 59 60 59 59 59 58 58 61 58 61 62 60 59 62 67 66 69 70 70
59 59 59 60 61 61 61 60 58 59 59 58 59 59 60 61 60 61 63 63 63 62 63 64 66 62 61 64 68 66 66 68 67 70 74 71 67 64 69 73 71 77 76
62 60 60 61 61 61 63 65 66 64 64 64 64 64 64 65 66 69 69 70 70 70 69 69 70 68 68 71 72 73 73 79 79 78 81 82 78 79 78 79 83 81 77
64 64 64 65 67 67 67 68 68 68 69 70 71 71 71 71 71 72 75 76 77 77 74 72 70 68 69 74 75 77 79 79 80 82 82 83 88 85 70 85 87 86 82
69 68 67 71 74 76 76 74 74 75 75 77 78 79 79 80 81 82 81 82 83 85 83 83 79 71 71 77 79 80 84 87 87 86 87 87 90 85 83 98 92 96 94
75 79 77 78 78 76 76 77 78 80 81 81 84 85 86 86 86 88 85 86 89 90 90 89 87 83 80 79 81 84 87 90 93 94 96 97 93 101 104 100 100 101 100
78 78 79 80 80 80 80 79 81 83 87 90 91 90 89 87 87 86 86 89 93 95 96 95 92 90 89 88 89 93 98 102 103 106 106 104 103 108 108 111 113 111 116
86 85 85 82 83 82 83 84 82 82 82 85 89 90 92 90 88 89 89 94 97 95 94 96 95 97 101 102 105 106 109 113 116 113 113 112 111 107 110 112 116 117 122
92 91 92 93 95 92 91 90 88 90 89 87 86 89 92 92 93 97 100 96 96 96 97 102 106 109 114 118 120 122 124 124 120 120 117 117 117 117 120 122 124 125 127
98 98 98 97 99 94 93 95 97 97 98 100 98 101 106 107 103 102 103 101 101 106 109 115 117 119 122 121 119 121 122 121 117 115 115 118 121 122 121 125 127 128 130
100 99 99 102 103 103 105 105 107 106 106 108 112 115 108 107 110 110 111 114 115 115 115 117 119 118 120 120 118 118 118 117 115 114 113 113 114 115 115 112 113 114 113
107 105 105 105 106 107 107 109 111 115 119 118 109 109 113 112 112 113 112 111 111 109 106 106 106 107 107 109 110 109 110 110 110 111 111 110 111 111 110 108 107 108 108
113 114 113 111 109 110 111 111 112 112 109 110 111 111 109 108 109 108 103 101 102 102 102 99 98 97 98 99 100 100 100 99 99 99 100 101 101 100 100 99 98 97 97
103 105 106 105 106 106 107 108 108 109 113 117 115 109 105 102 103 102 101 99 97 95 94 92 89 87 87 87 88 89 90 91 92 92 93 92 91 90 90 92 91 91 91
103 104 107 110 112 114 115 114 111 107 104 103 103 102 101 99 97 96 95 93 92 90 86 83 80 79 79 80 80 81 83 84 86 87 87 87 88 90 90 90 90 89 88
105 104 104 103 101 100 100 100 100 100 100 99 97 96 95 94 93 92 91 87 84 80 78 77 77 76 76 76 77 77 79 79 79 80 81 82 83 84 85 86 87 87 86
94 95 95 95 95 96 95 95 94 94 94 93 92 91 91 91 89 85 81 79 77 76 75 75 75 74 74 74 74 74 76 77 77 78 78 78 78 79 79 80 82 83 84
87 88 89 90 90 91 91 90 89 89 89 88 89 87 85 82 79 77 76 75 75 74 74 74 75 75 76 77 77 77 78 78 79 80 80 80 80 80 80 81 81 82 82
83 84 85 86 86 86 86 86 86 86 85 83 80 78 77 76 76 75 74 74 75 75 76 77 77 78 78 78 77 77 77 77 77 77 77 77 77 78 78 78 78 78 78

GFSGL_250_spd_075.txt.gz
Wind_Speed
32 28 23 21 20 18 15 14 13 12 13 16 16 19 24 27 28 33 37 41 45 48 49 48 46 43 42 43 44 45 48 49 50 57 57 59 62 65 61 56 55 53 55
36 31 28 27 24 22 22 22 19 17 17 16 16 18 22 22 21 21 25 30 31 28 30 35 40 44 49 52 54 55 57 58 56 52 50 49 48 50 50 50 50 47 49
40 37 34 31 28 29 28 26 26 25 24 23 23 22 23 24 24 25 25 25 26 27 27 28 32 35 39 42 42 41 39 40 38 38 43 44 45 47 47 48 50 51 46
44 43 42 38 35 33 33 33 32 31 33 32 30 29 29 31 30 29 29 30 32 33 35 36 36 35 37 37 39 41 42 41 42 41 40 45 45 49 47 50 49 49 48
48 48 46 44 42 40 42 42 41 40 39 38 37 37 37 35 34 36 37 38 38 40 41 44 45 46 44 44 45 47 47 47 47 46 48 46 49 53 53 56 53 58 56
52 51 49 48 44 42 41 41 42 43 43 43 44 44 44 40 44 43 44 45 47 48 48 48 48 50 54 54 53 53 55 55 53 54 51 51 52 56 59 59 59 63 61
54 50 55 52 48 47 45 44 43 44 45 46 46 46 47 48 51 51 51 52 54 55 56 55 54 54 55 56 57 59 61 62 60 59 57 57 58 58 57 58 62 63 64
54 59 55 54 52 49 48 50 51 50 50 50 51 53 55 55 57 57 57 57 57 60 61 62 60 61 62 63 64 64 67 70 69 68 66 68 66 65 66 66 67 68 70
58 58 56 56 56 55 56 58 57 58 59 58 60 61 62 61 61 61 63 64 64 64 65 64 64 67 70 73 72 72 71 73 73 75 74 75 71 69 69 72 71 72 73
65 64 63 63 63 64 66 66 65 65 65 66 68 69 69 66 66 67 69 70 72 72 72 72 70 70 73 76 77 77 79 80 78 76 76 78 79 77 74 73 77 80 82
70 70 72 73 74 72 71 71 72 71 72 74 75 74 74 72 71 70 72 74 76 76 76 76 76 77 79 80 82 82 85 85 84 86 83 82 83 82 81 83 86 86 87
72 71 71 72 74 75 75 75 75 75 73 74 74 75 74 73 75 78 78 81 83 85 87 88 89 88 87 85 83 87 89 91 93 92 91 95 94 90 86 86 84 87 92
73 75 78 79 80 80 79 79 76 75 76 79 79 81 83 83 81 82 82 86 88 90 91 92 93 94 95 96 94 93 94 97 99 99 98 98 97 100 99 96 97 98 99
81 79 81 82 84 82 81 82 86 84 87 87 87 87 88 88 85 86 89 91 92 95 96 97 100 102 101 99 99 97 96 98 102 106 107 105 104 105 104 104 107 109 111
84 86 87 89 89 87 91 95 94 92 89 85 87 88 86 88 90 90 91 90 90 89 94 93 93 94 94 96 100 104 107 113 112 105 102 105 109 110 112 117 117 118 119
86 86 87 89 92 92 94 94 96 93 93 95 96 95 93 96 96 95 95 94 96 99 101 101 97 101 103 107 111 109 110 112 111 110 110 111 115 120 122 126 127 127 127
94 95 94 97 98 99 101 101 103 105 106 107 103 101 102 103 104 103 104 102 104 104 104 105 108 111 115 112 113 113 113 113 112 111 113 114 115 119 119 119 117 117 117
103 103 104 105 105 106 107 107 108 109 110 109 109 110 111 110 111 114 112 110 111 110 111 111 112 112 113 113 111 109 111 109 107 108 108 110 111 111 112 112 112 111 110
106 108 110 111 112 111 109 110 110 111 112 115 116 117 118 120 120 119 119 116 113 114 113 113 113 111 108 105 104 104 103 103 102 102 99 99 100 101 100 100 100 100 99
112 113 113 112 112 113 115 117 117 120 121 120 118 119 121 122 119 114 113 114 115 115 111 105 102 101 101 101 100 99 96 95 95 94 92 90 89 90 90 91 91 91 91
115 117 118 120 120 119 120 122 122 120 118 116 117 117 116 114 113 112 111 109 106 104 103 102 100 99 96 95 94 91 89 88 86 85 85 84 85 86 85 85 84 83 83
105 108 110 110 111 110 110 111 112 112 112 112 112 111 108 105 103 103 103 103 102 101 100 98 96 94 92 90 89 86 84 82 81 81 82 83 83 83 83 83 83 83 82
96 97 96 97 97 98 99 101 102 102 102 101 100 99 101 102 101 100 99 98 97 95 94 93 91 90 88 85 83 81 81 81 82 81 81 81 81 80 80 81 81 80 80
95 96 97 96 96 96 97 97 97 98 99 100 100 100 100 99 97 95 94 93 92 91 89 88 87 85 82 81 81 82 81 81 80 80 79 79 78 78 78 78 78 77 76
91 92 93 94 95 95 95 95 95 95 95 95 95 94 93 93 92 90 89 89 87 85 83 82 81 81 81 81 81 80 80 80 79 80 79 77 77 77 77 77 76 76 76
85 86 87 88 87 88 89 89 89 89 90 90 90 89 88 88 86 83 82 81 80 80 81 81 81 80 80 79 78 79 78 77 76 75 75 74 74 74 73 72 71 71 70

GFSGL_250_spd_078.txt.gz
Wind_Speed
37 32 31 27 24 22 20 20 18 19 25 32 39 43 42 42 41 38 37 39 41 43 45 46 46 47 49 50 51 51 50 50 49 51 50 50 49 52 54 56 61 66 70
40 35 31 31 29 28 26 26 24 22 23 23 22 22 23 25 28 32 37 42 45 46 45 46 48 51 57 59 58 56 55 57 52 54 58 59 58 63 64 65 63 58 57
42 43 38 34 33 33 30 29 28 27 26 25 25 27 27 27 29 30 30 29 28 30 33 35 33 34 37 38 41 44 46 48 48 46 52 52 50 48 49 49 49 54 55
42 48 45 39 36 36 34 33 32 31 31 30 30 29 29 30 31 33 34 34 35 35 35 36 38 39 40 40 40 42 43 44 44 44 45 48 48 53 52 54 56 55 56
45 48 47 46 44 42 40 38 36 34 35 37 38 37 35 38 39 38 38 39 40 40 40 42 43 43 45 45 47 52 52 52 51 51 52 56 55 57 61 63 61 63 62
49 50 50 48 49 48 46 45 44 42 41 43 45 45 46 45 44 45 45 45 45 46 47 48 49 51 53 52 53 56 58 57 58 58 59 59 61 66 68 68 66 66 64
53 54 54 55 52 52 52 51 50 48 45 45 45 45 45 47 49 50 52 53 51 49 51 55 58 59 60 61 62 62 63 65 62 63 63 64 65 68 73 74 76 75 73
58 59 57 57 57 57 58 56 55 53 51 48 48 48 49 51 52 54 56 54 55 58 59 60 62 63 63 65 68 69 71 70 69 71 71 72 73 73 75 75 78 80 82
59 61 60 61 62 64 63 61 59 58 56 54 55 56 56 57 58 59 59 62 65 66 66 66 66 66 68 70 71 74 76 75 75 76 77 76 77 78 78 80 81 83 83
61 61 62 61 62 65 68 67 63 60 60 62 63 64 62 63 66 68 69 70 72 73 72 72 72 72 72 74 76 79 81 81 80 80 83 85 85 84 83 82 84 88 90
63 61 63 57 68 69 68 66 65 66 68 70 71 72 71 72 74 76 78 77 77 80 79 79 79 80 77 78 80 82 85 87 89 91 91 92 92 91 90 90 94 95 94
66 64 65 68 70 70 71 76 74 75 77 79 78 78 79 80 79 81 80 82 84 82 84 85 84 84 85 86 87 89 91 94 96 97 98 97 97 98 100 99 98 98 100
74 76 76 79 76 79 80 82 83 84 85 85 84 84 84 85 84 81 82 84 86 89 89 89 90 91 92 92 94 93 94 96 99 96 95 98 101 102 103 102 98 99 101
73 74 76 77 81 86 86 87 87 86 89 88 89 87 87 85 86 89 92 91 92 95 97 98 99 99 101 94 93 93 95 95 96 99 103 103 104 105 104 104 108 111 112
81 81 81 81 83 84 87 89 92 90 90 92 92 92 93 94 95 97 99 100 100 99 99 100 98 99 102 101 102 100 101 101 102 103 105 109 111 111 112 115 118 121 122
85 84 85 86 88 91 93 94 94 96 96 98 99 100 101 101 102 103 104 101 101 100 103 103 106 108 105 106 108 111 109 111 113 111 112 114 113 113 115 116 120 123 122
92 92 93 94 95 96 98 99 102 104 105 107 108 107 104 103 103 105 106 107 108 111 112 114 115 113 111 112 115 117 118 117 116 114 112 114 114 115 117 117 115 113 113
96 97 100 102 104 105 106 108 108 110 109 108 109 107 108 111 112 113 115 117 118 119 118 117 118 118 120 119 118 118 119 117 114 114 114 114 111 109 109 107 108 107 105
100 101 103 104 105 106 107 109 110 111 113 113 115 116 117 118 118 119 121 123 122 122 122 123 123 123 125 124 120 119 118 116 114 112 107 106 104 102 101 100 99 98 97
109 111 112 114 115 115 117 118 119 121 122 122 123 123 122 123 125 127 127 125 126 127 128 129 127 123 122 122 120 117 112 109 106 104 101 98 96 95 94 93 92 92 90
118 119 121 123 123 124 125 126 125 124 127 128 130 132 134 133 131 130 131 132 131 128 126 124 122 121 118 114 109 106 103 101 99 97 94 93 92 90 88 86 84 84 84
115 117 118 118 118 118 118 119 118 118 119 122 124 125 126 126 125 125 123 121 121 121 118 115 112 109 105 102 99 97 95 95 94 93 92 90 88 85 83 82 82 81 80
109 111 110 109 108 109 109 110 110 110 109 109 108 109 110 111 111 110 110 109 108 107 106 103 102 99 97 95 94 94 92 91 89 87 85 83 81 81 80 79 78 77 76
97 95 94 95 96 96 97 98 98 98 99 99 100 100 100 101 100 99 99 98 98 97 95 95 95 94 92 91 91 90 87 85 83 81 80 79 78 77 78 77 77 77 76
94 94 95 95 95 95 95 95 95 95 94 95 95 95 95 94 93 92 92 92 93 93 91 90 90 89 88 87 85 83 81 80 78 78 78 77 76 75 75 75 74 73 72
90 90 91 91 91 91 91 91 91 91 90 90 89 89 90 90 89 88 88 88 88 88 87 86 85 84 82 81 80 78 78 78 77 75 74 74 73 72 71 70 69 69 68

GFSGL_250_spd_081.txt.gz
Wind_Speed
39 36 34 31 25 20 18 18 31 44 45 41 39 37 37 44 49 54 54 53 55 56 55 58 61 62 63 61 63 61 58 57 52 55 55 57 55 52 54 54 53 54 57
39 39 36 34 31 27 24 21 21 30 48 45 47 43 48 48 44 49 53 56 57 59 61 61 63 61 55 53 54 55 52 53 55 60 63 63 61 63 63 61 63 67 69
41 42 40 38 35 33 30 28 25 25 27 35 45 50 50 48 54 53 53 54 55 55 53 51 51 52 52 52 54 57 56 57 56 55 59 57 56 54 53 53 54 52 53
47 43 42 42 41 36 36 35 34 32 31 29 30 32 33 35 37 39 39 39 38 38 38 38 38 39 40 41 43 44 46 48 47 46 49 52 52 56 54 55 54 55 57
52 46 42 44 45 43 40 38 38 38 37 37 36 36 36 35 35 36 37 39 39 40 41 42 43 44 46 48 49 52 53 53 53 53 54 58 62 63 62 62 61 65 66
56 50 46 46 46 46 47 44 43 42 41 41 40 41 42 43 42 43 44 42 43 45 45 46 48 49 52 53 54 57 59 58 59 62 62 62 63 65 68 69 69 70 70
56 53 52 50 49 48 49 53 51 48 47 46 45 46 47 48 48 49 50 49 50 52 53 54 54 55 57 58 58 59 60 62 63 65 64 66 67 68 72 74 76 77 79
57 56 56 56 55 54 54 57 55 53 54 53 54 54 54 54 53 52 50 52 53 53 55 57 59 60 60 62 65 67 67 67 68 70 72 71 72 74 77 77 78 79 81
59 60 60 60 60 59 59 60 60 59 58 60 61 60 60 61 61 59 58 59 59 59 60 61 62 63 66 69 71 73 73 75 74 76 78 78 77 78 80 83 84 85 86
58 60 62 64 62 61 63 63 62 64 66 66 65 64 65 65 64 65 65 65 65 66 67 66 69 70 73 77 79 79 80 81 84 84 83 83 83 83 85 88 90 92 95
61 61 62 62 64 65 67 67 65 64 65 67 72 71 71 69 68 68 70 71 71 72 72 73 75 78 81 81 84 84 85 87 88 88 88 88 89 92 94 94 96 100 103
64 65 64 64 66 69 67 69 68 64 64 74 75 74 75 76 76 76 78 79 78 77 78 80 83 85 87 86 87 88 90 91 91 94 96 96 98 99 101 98 98 102 103
67 65 60 57 58 75 73 73 65 70 78 79 82 79 80 81 81 82 83 85 86 85 86 88 89 89 89 91 92 93 96 97 100 101 104 105 107 106 109 109 108 110 107
72 73 73 75 76 75 78 80 81 81 85 87 86 86 89 90 87 88 92 94 96 95 93 93 93 93 95 97 99 103 104 106 110 112 111 114 110 111 113 112 114 113 116
75 75 77 78 80 81 82 82 86 86 88 90 92 92 93 95 97 99 100 100 99 98 99 100 99 100 100 101 106 110 110 111 111 109 108 110 111 115 113 118 121 121 121
83 82 80 80 82 82 84 86 88 91 93 94 94 94 98 103 104 102 103 104 105 105 107 106 108 108 108 113 115 114 113 111 111 114 116 120 120 121 121 122 123 122 123
91 89 89 88 89 88 89 88 89 92 93 95 97 100 101 102 104 108 110 111 111 113 115 114 116 118 120 121 119 117 118 120 122 125 128 129 127 126 126 126 119 117 114
94 95 95 94 95 96 97 98 100 101 102 104 105 107 107 109 111 114 115 116 118 119 120 123 124 122 122 125 124 127 128 129 132 134 137 132 127 124 124 119 114 112 109
97 99 100 101 102 102 103 104 106 107 109 110 112 113 115 117 118 119 120 122 125 126 125 125 126 128 128 130 134 135 135 138 141 136 131 131 128 121 115 112 111 110 107
103 102 103 105 107 109 111 111 112 113 114 115 117 118 121 124 125 125 125 126 127 129 130 132 135 136 137 136 137 139 138 136 132 125 121 118 114 112 111 109 106 103 100
105 105 107 109 113 115 116 118 119 121 123 123 124 124 125 126 128 128 129 130 132 136 137 137 137 136 135 133 128 127 123 120 119 116 113 112 110 107 102 100 98 96 93
110 112 113 114 115 115 117 119 120 121 123 125 126 127 127 129 130 131 131 130 127 125 124 123 122 121 120 118 117 116 115 113 111 108 106 103 100 99 97 95 93 90 86
110 110 110 111 113 115 117 119 119 118 118 118 118 119 120 120 120 119 120 118 116 115 114 113 112 111 111 110 109 107 105 102 101 99 98 97 96 93 90 87 84 82 80
104 105 106 106 106 107 108 109 109 110 110 110 111 112 112 111 110 109 109 109 107 107 106 105 104 103 101 100 99 98 98 97 96 93 91 88 86 84 81 80 80 80 80
96 98 99 100 101 102 103 103 104 104 104 104 104 104 104 104 103 102 101 100 99 99 99 98 98 97 96 95 94 92 90 88 86 84 83 82 81 81 81 80 79 78 77
91 92 92 93 94 95 95 96 96 97 98 98 98 97 97 97 97 96 96 96 95 94 94 93 92 90 88 86 84 83 82 82 81 80 80 79 79 78 77 76 75 74 73

GFSGL_250_spd_084.txt.gz
Wind_Speed
39 40 37 35 30 28 24 25 25 37 37 35 31 31 31 35 33 35 37 38 43 46 50 52 53 55 58 62 64 65 67 68 70 63 61 62 54 51 52 54 57 61 62
44 41 39 36 32 29 25 24 23 34 41 36 37 36 37 33 39 40 44 44 48 50 52 54 54 55 58 61 63 61 62 67 65 59 54 52 53 54 58 63 59 56 56
47 43 42 40 37 33 29 26 24 24 38 46 36 38 36 38 41 39 46 50 56 56 54 56 57 56 58 60 65 62 55 55 55 57 57 54 55 53 50 51 51 51 53
52 48 44 42 41 37 33 30 29 27 25 30 43 39 43 45 47 47 47 49 49 49 52 57 60 64 64 61 56 53 50 48 45 46 48 47 50 53 54 56 57 57 60
55 51 45 44 43 41 39 36 35 34 32 30 30 32 36 37 46 43 44 48 51 51 49 48 48 49 49 47 46 47 46 46 47 48 52 55 58 60 60 63 64 67 68
58 55 50 46 42 42 44 43 41 38 40 40 38 38 37 36 36 38 39 39 41 43 42 43 45 47 47 47 47 50 50 52 55 56 58 59 59 58 60 63 67 70 72
63 59 55 49 45 42 42 44 46 46 44 43 44 45 45 45 44 44 42 42 44 45 46 48 51 52 53 55 54 57 59 59 60 61 62 63 64 64 67 71 71 72 73
67 64 59 54 52 51 48 46 47 49 51 50 50 48 49 48 48 49 50 51 52 54 54 55 57 59 62 62 60 61 63 64 65 67 67 67 69 72 74 76 78 80 81
59 59 62 61 58 57 55 54 54 55 55 56 57 55 56 56 57 58 59 59 60 61 61 62 61 62 64 65 66 66 66 67 69 71 71 72 75 79 81 82 84 85 87
51 56 55 56 58 58 59 59 60 61 60 59 60 60 61 61 63 65 66 66 66 67 67 67 68 70 71 70 71 72 73 74 76 78 78 81 82 83 85 87 89 91 90
53 51 47 53 54 54 56 58 62 63 64 64 67 67 66 67 69 70 71 71 71 71 72 73 72 73 76 76 77 78 79 79 81 83 87 89 90 89 89 91 91 91 94
54 51 44 55 54 55 50 59 67 62 66 67 68 71 71 70 70 71 71 76 78 81 77 75 77 76 79 81 82 82 83 86 89 91 94 94 94 94 96 98 99 101 104
53 60 53 53 58 62 70 75 77 71 71 68 69 72 72 74 74 75 75 78 81 83 83 84 86 86 85 85 86 89 91 92 95 97 99 97 97 99 100 104 108 108 111
63 60 55 76 76 73 74 74 77 75 72 72 73 75 72 78 78 74 82 84 88 90 89 91 93 92 92 91 93 96 99 101 103 105 103 103 105 107 108 111 114 116 120
67 61 67 74 65 71 78 76 77 74 74 75 78 81 83 88 87 90 89 92 96 94 94 98 102 103 100 100 102 105 107 109 109 109 110 112 113 115 118 121 123 127 127
82 78 79 81 79 82 81 82 82 81 80 83 84 86 88 89 94 96 99 101 102 103 103 103 106 109 109 110 111 111 111 112 113 116 118 119 121 124 127 131 131 132 133
85 89 88 90 93 92 91 90 90 89 91 93 95 95 97 99 100 101 104 106 108 111 112 113 112 112 114 113 114 115 117 118 120 123 125 127 130 132 134 136 139 140 140
86 88 89 90 94 95 94 93 92 93 94 96 98 99 100 102 103 104 107 109 110 111 113 113 114 115 118 119 121 123 124 126 128 131 132 134 136 136 138 140 140 139 137
101 100 99 97 97 98 99 101 102 103 104 105 106 107 109 110 110 110 113 114 116 117 119 121 121 122 124 126 126 129 131 132 133 135 135 136 139 142 143 141 135 131 126
110 107 109 111 110 110 111 111 113 113 113 113 113 114 116 117 119 120 120 121 123 123 124 125 126 127 130 130 132 134 135 136 135 137 140 138 135 135 131 128 125 121 117
110 111 111 114 117 118 118 119 119 118 118 119 120 120 121 122 124 125 126 126 127 127 128 131 132 133 134 134 135 135 139 138 135 133 135 131 127 125 121 117 115 114 110
107 107 110 114 115 116 117 118 119 120 120 121 121 122 124 125 126 127 129 130 131 133 132 132 132 134 135 136 135 133 134 130 126 125 122 120 117 115 112 110 108 107 104
107 107 108 110 111 114 115 117 118 119 121 122 123 124 126 126 126 127 128 128 129 130 130 130 128 128 128 127 123 122 120 118 116 115 112 110 109 107 106 104 101 98 94
108 110 111 112 111 113 113 114 114 115 116 117 118 120 121 122 121 120 119 118 117 117 117 116 116 115 115 113 113 113 111 109 108 106 105 103 101 98 95 92 90 88 87
106 108 111 113 114 115 116 117 116 114 112 111 111 111 111 110 109 109 109 109 108 108 109 108 108 107 106 105 104 102 101 100 100 99 95 91 90 88 87 86 85 83 82
93 95 96 97 98 99 100 100 101 102 102 102 102 103 102 102 102 102 102 102 102 102 101 100 99 97 97 98 96 94 92 90 89 88 86 84 83 82 81 78 77 76 75

GFSGL_250_spd_087.txt.gz
Wind_Speed
33 40 38 39 37 33 30 29 26 27 26 28 29 34 33 37 40 39 41 42 43 44 37 44 44 46 51 51 54 56 55 57 58 61 63 62 63 67 64 66 64 54 54
43 42 41 40 36 31 32 29 23 28 24 32 29 35 34 31 31 36 34 36 33 33 41 45 46 47 48 48 52 54 56 59 61 65 65 66 63 62 57 54 57 56 54
45 44 43 41 38 35 37 31 25 23 23 36 33 33 34 32 31 38 40 39 39 41 42 41 45 48 50 51 52 56 58 59 61 61 60 61 67 60 55 52 49 47 48
52 50 49 46 42 41 40 34 30 26 25 26 34 35 35 37 37 37 38 40 43 43 43 45 47 51 55 57 57 59 60 58 58 67 66 55 50 47 46 47 49 50 53
56 56 53 51 47 43 44 40 35 31 30 27 25 35 35 41 38 38 43 45 45 43 45 49 54 56 57 57 56 58 63 64 61 52 52 51 51 51 51 53 56 58 59
60 60 57 58 53 47 48 45 41 36 35 34 33 31 31 35 40 46 49 51 51 53 54 55 57 61 62 63 59 56 54 51 50 50 52 54 55 56 58 60 62 64 66
65 60 63 61 58 49 48 47 45 42 41 39 38 38 37 35 35 36 39 42 44 44 46 45 45 45 47 49 49 50 51 53 54 55 57 60 63 65 67 69 69 70 70
69 63 66 65 59 51 45 45 45 44 45 46 46 45 43 43 43 43 44 44 45 46 48 50 50 50 51 53 55 56 56 58 60 63 63 64 64 66 69 71 73 73 74
67 68 64 67 64 57 53 49 47 46 47 48 49 49 50 50 50 49 49 52 54 54 55 56 57 57 58 60 61 62 63 65 67 68 69 69 71 73 76 76 76 78 81
66 69 64 69 67 62 59 57 54 53 53 52 53 55 55 56 57 56 57 58 59 60 62 64 65 67 67 68 69 70 73 74 73 75 76 77 78 79 80 82 82 84 86
61 67 67 63 63 67 64 62 62 60 59 59 60 61 61 61 60 63 67 65 64 65 67 68 71 74 76 77 77 78 80 80 80 81 81 82 83 83 85 87 88 89 92
57 57 64 64 58 61 65 64 67 68 67 61 58 60 60 62 62 60 64 67 68 69 71 72 74 77 78 80 83 81 81 85 82 82 82 82 84 83 84 89 93 96 98
56 54 55 51 56 54 58 61 57 57 56 55 57 63 69 69 67 64 68 72 72 74 75 76 76 77 79 81 82 84 85 86 87 87 89 91 93 92 94 97 99 102 106
59 57 54 57 63 62 61 62 58 61 64 58 66 70 73 76 79 75 76 76 77 78 79 77 71 82 85 87 88 90 90 93 95 96 99 99 102 103 104 105 108 110 113
61 63 67 65 72 69 68 66 69 67 65 68 72 78 75 76 80 77 81 84 82 85 88 84 85 93 92 93 96 97 101 103 103 105 107 109 111 113 115 117 119 118 118
68 66 71 73 72 73 77 76 71 74 77 84 84 87 91 90 91 92 90 88 87 89 90 90 91 96 100 103 104 105 106 108 112 113 115 117 119 121 125 124 122 124 125
73 72 74 76 77 85 80 81 82 79 85 84 92 94 98 103 99 100 101 100 99 99 99 99 100 103 104 107 109 111 112 115 118 121 122 121 122 122 124 129 130 130 132
80 81 83 84 86 85 86 90 91 90 90 94 95 98 100 95 96 96 95 97 100 103 105 105 107 108 110 112 115 119 121 121 122 125 125 126 127 131 132 133 135 136 136
88 89 92 92 92 89 93 96 95 95 95 97 101 105 105 100 102 101 104 109 110 111 112 113 115 115 117 117 121 124 126 127 129 131 133 134 135 136 136 136 138 140 140
94 96 97 97 102 103 100 105 103 103 103 101 104 106 107 109 112 115 116 117 119 118 117 116 120 123 124 128 130 131 132 133 133 135 136 137 138 139 140 139 140 141 136
101 101 102 104 102 105 106 111 116 116 115 115 115 116 117 119 120 122 122 122 122 123 125 128 129 131 133 136 138 136 136 136 137 139 138 138 141 137 135 135 131 132 126
109 110 109 111 111 113 114 113 115 116 116 118 118 118 120 121 122 125 128 130 132 133 133 135 138 139 139 140 139 137 135 137 137 135 134 133 131 130 128 125 123 122 120
98 104 114 115 118 118 118 121 124 125 127 126 126 127 129 131 134 135 136 139 140 139 138 138 137 133 132 132 132 131 132 132 129 127 125 122 121 119 118 115 114 114 111
95 97 99 101 110 121 124 124 125 127 129 134 134 135 136 139 143 141 134 129 128 129 129 128 126 125 125 126 124 122 119 117 116 116 115 113 112 113 112 108 107 106 103
91 94 98 98 99 100 103 104 109 112 116 117 118 118 117 118 119 119 119 119 119 120 119 117 118 116 115 113 112 113 112 111 110 110 109 108 106 105 103 99 97 95 94
86 88 91 93 95 97 99 101 102 101 102 104 105 106 108 109 110 111 113 112 112 112 111 111 111 110 109 108 107 105 105 104 104 103 100 98 96 94 92 90 88 85 83

GFSGL_250_spd_090.txt.gz
Wind_Speed
22 27 34 24 21 26 32 34 35 34 32 31 27 20 28 23 28 29 27 23 25 25 30 32 34 43 50 47 50 55 56 54 52 50 49 52 55 57 58 59 63 64 65
25 37 41 39 28 33 36 36 37 34 32 30 22 19 28 27 30 32 31 31 32 35 35 35 32 38 45 49 54 55 58 56 53 56 57 58 57 58 60 61 63 62 62
33 44 45 47 41 41 38 40 36 34 31 28 22 24 28 33 38 38 37 41 39 35 37 39 42 42 43 44 44 42 44 48 53 55 57 56 59 61 62 63 62 67 59
34 43 45 47 49 48 43 42 38 36 33 26 24 28 30 35 38 40 35 40 42 37 38 42 43 40 40 44 46 46 47 49 55 57 59 58 61 63 63 65 66 55 51
43 39 53 53 48 51 47 46 40 39 36 30 27 27 34 34 37 39 40 39 41 42 42 40 41 41 42 45 46 49 51 55 56 58 63 64 62 62 63 61 57 55 54
54 57 53 48 54 54 52 49 44 42 40 35 31 28 27 35 40 39 40 42 41 41 44 45 46 47 50 51 52 53 56 59 61 60 61 62 62 59 56 55 57 58 58
53 56 51 57 55 57 58 51 47 45 46 42 38 36 33 32 32 39 46 50 51 49 48 48 51 52 53 55 55 56 60 62 62 60 58 56 57 58 60 60 62 64 65
54 53 52 60 63 63 63 56 51 47 50 49 46 43 42 40 38 36 36 38 41 47 50 53 55 56 57 57 57 56 54 54 56 56 57 58 60 62 64 65 65 67 69
53 55 56 53 62 63 68 62 55 51 50 53 53 51 49 46 45 44 43 44 44 44 45 47 49 50 52 53 54 56 57 59 59 60 62 64 67 70 71 72 73 75 77
60 57 59 56 65 71 70 66 63 60 57 55 52 52 51 51 50 50 50 50 51 51 51 52 54 55 57 58 59 61 63 65 67 68 71 72 74 76 78 80 80 82 82
57 58 55 57 68 69 62 66 66 66 63 61 58 55 53 53 53 54 54 55 55 56 57 59 61 62 62 64 65 66 68 71 73 75 77 80 82 83 84 84 86 88 91
53 51 51 58 64 68 67 65 70 70 68 67 63 62 61 61 61 62 62 62 62 64 66 68 69 69 69 70 72 72 73 75 78 80 82 85 85 85 87 89 90 91 90
52 54 57 59 67 70 68 68 66 71 74 74 72 72 69 67 67 68 65 68 70 68 68 72 73 72 74 73 75 79 80 82 84 85 88 92 92 90 90 93 93 94 97
56 59 61 60 65 70 73 76 74 72 76 78 80 78 76 73 75 76 78 68 70 73 73 75 77 78 79 81 81 83 84 86 89 87 89 90 93 97 97 98 98 101 103
65 64 61 63 63 71 70 71 73 77 75 71 74 74 74 71 68 68 71 66 75 83 78 83 86 83 84 85 90 93 92 93 94 94 95 99 100 102 105 106 107 108 110
67 69 64 66 66 70 71 71 74 78 79 76 77 76 77 77 74 77 66 74 80 87 82 86 90 91 90 93 94 97 98 97 101 104 105 105 107 108 110 111 111 113 116
72 74 73 73 73 72 78 76 75 80 82 80 80 82 82 80 83 85 86 82 83 86 93 99 99 98 100 104 101 104 106 109 110 108 108 109 111 112 114 118 119 122 126
75 78 81 78 76 80 81 81 81 83 85 87 85 84 83 85 86 90 91 90 91 97 99 98 100 106 109 111 114 115 115 116 114 111 111 114 117 119 123 126 129 128 129
74 83 86 88 85 82 85 85 86 90 90 92 92 94 92 90 90 96 97 101 103 102 103 108 111 114 116 118 119 120 118 119 117 117 119 123 125 129 130 129 131 135 141
82 82 91 94 95 94 93 94 94 95 98 100 100 100 101 100 101 100 104 106 106 109 111 115 118 120 120 121 120 121 124 126 124 123 130 132 134 136 136 137 142 146 146
85 89 88 96 101 103 101 102 103 102 104 104 108 108 108 108 112 112 113 115 115 115 119 120 122 123 124 124 124 126 129 128 129 135 139 141 141 140 140 145 148 144 143
86 88 95 94 100 104 108 107 107 108 109 110 112 113 115 116 117 117 119 120 121 123 124 124 126 127 129 131 131 131 134 137 141 142 142 142 144 149 151 151 149 145 139
87 90 90 94 97 103 109 113 113 114 114 115 117 119 122 123 123 124 125 126 126 127 129 132 134 136 136 137 139 142 145 144 143 145 145 146 149 154 149 141 133 130 128
85 86 89 92 95 98 100 106 112 113 117 118 119 124 126 127 128 128 130 132 134 134 135 134 136 140 141 141 144 143 143 145 147 146 151 154 143 131 131 125 118 118 118
84 85 86 87 90 92 94 97 99 101 108 112 113 118 121 121 124 126 129 131 133 133 134 132 132 134 135 137 138 140 142 148 147 138 131 129 123 117 115 112 108 105 103
81 83 85 86 87 88 89 91 92 95 99 102 103 105 108 111 114 116 118 122 126 130 133 134 134 134 135 136 132 129 127 125 120 116 116 114 109 106 104 102 99 97 94

GFSGL_250_spd_093.txt.gz
Wind_Speed
19 21 27 27 22 31 31 27 25 27 28 30 31 31 31 27 31 28 28 29 30 34 39 44 48 51 50 55 57 58 58 58 58 59 61 53 50 52 56 55 52 51 52
27 27 23 25 22 31 32 25 23 24 28 30 30 29 28 27 25 24 24 25 22 23 29 32 38 40 49 52 56 58 53 52 55 54 51 57 60 56 56 54 55 56 56
35 29 27 26 27 34 32 29 27 28 31 32 31 31 26 23 26 23 30 27 28 27 25 25 28 32 35 37 42 45 55 62 64 59 55 60 60 57 56 56 61 56 59
35 34 24 35 35 32 32 38 28 33 34 36 32 31 29 23 30 26 31 33 29 34 30 33 35 39 39 39 38 40 46 49 50 51 52 53 55 54 57 60 62 61 61
36 26 21 43 39 41 44 46 36 32 41 39 36 32 32 26 30 35 34 33 39 39 40 43 41 42 42 41 42 46 50 52 53 55 55 56 56 60 62 65 64 64 65
38 35 47 37 46 53 50 51 46 38 43 44 38 36 37 31 33 37 39 42 43 41 43 46 49 53 54 51 43 50 48 49 51 52 54 54 56 59 63 65 68 70 63
43 48 48 46 47 49 46 44 42 42 46 47 42 41 39 36 35 41 42 44 45 45 47 49 50 48 49 48 48 50 51 53 54 55 58 59 61 62 65 69 68 65 63
55 62 55 56 47 39 48 53 51 46 48 52 49 47 45 41 39 39 45 50 50 48 49 49 50 51 52 54 55 56 57 57 58 57 60 64 68 69 67 63 63 64 65
62 64 66 66 64 68 62 57 57 60 52 56 55 51 53 50 47 45 44 43 47 53 58 60 61 60 60 60 61 63 64 63 63 63 63 63 61 62 62 64 66 67 69
67 67 67 70 66 65 64 61 59 61 63 58 61 59 56 57 56 54 52 52 51 49 50 52 55 57 58 59 60 59 59 59 60 60 62 64 66 67 69 71 73 75 77
67 68 65 66 65 66 64 65 63 58 60 65 65 66 63 60 61 61 60 59 58 57 56 55 55 56 58 58 60 61 62 63 64 65 68 69 72 73 74 76 78 80 81
75 71 70 69 71 73 71 69 64 61 67 72 68 73 72 69 65 64 64 65 65 62 60 60 59 60 61 61 64 65 66 68 70 71 73 75 77 79 81 82 83 84 85
73 71 74 77 77 75 71 76 77 74 72 66 74 77 79 76 73 71 70 69 68 66 65 66 66 66 68 69 71 72 72 75 76 77 77 78 79 81 82 85 88 90 91
74 72 79 75 72 68 68 73 74 77 87 81 79 76 81 81 83 79 77 77 77 76 75 74 72 75 78 78 77 76 79 81 83 83 85 84 84 85 87 89 92 95 97
79 79 79 78 76 70 69 67 67 74 81 83 84 82 79 84 86 86 86 82 82 81 81 82 80 81 83 85 87 89 89 91 90 92 90 91 93 94 94 94 98 100 100
81 80 80 78 77 74 70 69 64 69 78 82 84 84 81 82 85 92 93 91 89 87 86 83 87 88 84 77 81 79 86 85 89 91 98 101 99 101 104 106 105 105 108
83 84 82 82 81 79 76 75 70 72 76 85 86 86 85 86 88 90 91 94 97 96 94 95 90 86 87 85 85 86 87 93 97 103 103 105 106 107 111 110 111 110 115
89 89 88 87 86 87 82 80 76 80 79 84 91 96 96 94 92 94 95 96 95 98 98 97 96 97 97 96 96 94 94 103 106 104 105 110 112 115 118 120 120 122 124
93 94 94 93 91 89 87 84 81 83 86 86 87 94 97 100 100 101 101 100 99 102 101 104 100 102 104 102 102 101 107 107 111 115 116 116 118 122 124 126 127 129 133
88 90 92 93 94 93 91 90 88 89 90 92 93 92 94 98 101 102 104 106 106 107 108 108 108 108 107 108 107 107 108 113 115 118 122 125 126 128 132 132 133 133 135
85 88 90 92 93 94 96 95 94 94 97 98 100 99 100 102 105 107 107 109 111 111 113 112 112 110 111 112 113 116 116 118 121 126 128 130 131 132 136 135 138 140 140
83 87 90 92 93 94 97 96 98 99 100 103 105 108 107 108 108 111 112 114 116 116 117 120 120 121 123 122 122 122 124 125 126 129 133 135 136 137 142 144 144 143 142
80 84 88 91 94 95 97 98 100 103 104 106 108 111 113 115 115 115 115 118 120 122 124 125 126 127 129 130 131 133 133 134 137 140 142 145 146 145 142 142 144 145 148
80 82 85 87 89 92 93 97 99 100 101 104 106 110 109 114 115 119 122 124 125 125 127 129 130 131 132 134 135 136 139 139 139 137 138 142 144 143 139 139 142 141 141
78 79 81 82 85 87 89 91 92 94 97 99 102 104 106 110 113 112 115 119 119 122 127 129 129 129 130 132 132 132 134 134 134 133 132 134 139 141 136 135 135 131 129
73 74 76 78 80 82 83 85 87 88 90 92 94 96 98 101 105 109 111 113 116 116 116 118 120 121 122 125 126 126 127 128 129 127 124 125 128 126 122 121 120 117 115

GFSGL_250_spd_096.txt.gz
Wind_Speed
38 34 33 32 28 26 21 28 30 30 34 28 30 31 30 27 26 28 33 35 36 38 40 43 47 49 59 61 57 53 55 61 64 62 62 63 66 62 58 59 54 53 53
38 34 37 37 31 21 21 31 24 28 31 21 25 26 24 24 27 29 31 32 36 37 36 40 45 51 52 61 58 57 57 58 64 67 66 66 66 64 57 55 57 54 51
38 39 42 37 30 29 25 31 23 22 24 18 21 20 23 26 26 28 28 30 27 30 27 33 40 44 50 55 56 51 60 62 62 62 63 63 58 56 59 59 56 56 58
44 43 42 37 30 30 30 31 24 21 27 17 21 25 27 26 25 27 28 26 22 23 26 25 28 36 41 47 52 56 52 57 60 62 60 57 56 54 55 58 62 64 63
47 46 39 41 41 31 30 35 31 28 34 25 23 29 31 31 28 27 30 24 24 27 31 23 23 26 31 30 40 43 45 43 44 43 46 51 56 60 60 61 61 63 63
45 42 41 37 28 26 33 41 33 34 37 36 32 27 35 37 32 28 34 30 28 34 34 31 38 37 35 41 45 44 44 42 46 48 52 55 56 58 61 65 66 62 64
48 45 40 39 33 31 48 52 44 53 45 47 40 38 35 39 37 33 37 36 39 38 40 41 43 41 44 46 46 46 50 52 51 51 52 56 60 64 64 65 64 63 61
53 52 44 40 37 36 49 55 57 52 52 50 49 45 39 42 41 39 38 43 46 45 43 45 49 50 52 54 58 59 55 57 58 58 54 56 58 60 58 58 60 63 65
54 54 50 48 45 51 48 55 53 56 58 54 45 41 41 41 45 43 44 44 47 51 51 51 53 54 53 56 56 58 58 55 54 54 56 58 60 61 62 65 69 73 75
62 58 53 56 61 61 54 51 50 59 55 52 53 51 53 48 47 51 49 51 50 50 57 60 60 60 62 64 63 61 61 62 63 64 65 67 69 70 72 74 71 72 72
65 65 65 62 62 62 66 67 59 54 62 63 64 62 62 63 61 56 58 57 59 57 55 57 63 66 69 70 70 71 72 74 75 75 73 71 68 69 69 70 71 74 76
71 72 70 70 69 74 76 76 76 71 66 72 70 67 65 68 69 69 64 66 64 67 65 64 63 63 64 66 67 67 68 68 68 68 67 68 69 72 74 75 76 77 80
78 74 74 79 78 80 83 83 82 84 85 84 82 78 76 74 74 72 76 73 72 72 74 73 72 72 71 71 71 72 71 71 72 72 73 74 76 77 78 79 81 80 79
85 86 84 82 87 89 89 92 90 88 82 80 79 80 78 80 81 77 73 76 80 79 78 81 82 79 77 77 78 79 79 78 79 79 79 81 82 82 84 85 86 86 89
88 90 89 91 92 94 96 92 91 91 89 88 87 84 85 85 85 88 84 82 81 87 88 93 89 88 85 84 83 83 83 84 84 84 86 88 88 88 90 92 93 95 97
91 98 95 95 95 97 97 99 96 97 95 95 95 91 86 81 82 83 86 87 88 88 91 92 91 92 93 93 92 91 91 93 94 93 93 95 96 96 97 101 104 106 107
96 96 99 98 101 101 98 100 99 96 96 97 96 92 86 82 78 82 86 89 90 91 88 90 94 98 100 101 101 101 100 101 101 102 102 102 103 105 108 108 109 110 111
101 100 100 101 102 102 103 101 100 100 100 99 99 96 93 88 81 79 78 90 96 101 98 98 99 98 101 106 105 104 106 107 108 108 110 110 112 112 110 110 110 109 109
98 103 106 107 106 106 105 105 105 105 105 104 102 98 96 94 90 87 86 84 93 103 102 100 98 100 102 106 107 109 109 110 110 112 114 114 116 116 115 115 115 116 115
92 97 101 105 106 107 108 108 107 107 107 106 104 103 101 100 100 98 94 91 92 96 99 107 109 108 112 110 110 112 113 113 112 115 118 118 117 119 120 121 122 122 122
88 91 93 98 104 106 107 109 109 109 110 110 108 108 108 108 107 107 104 100 97 99 102 105 111 113 114 113 112 115 117 119 120 120 121 123 122 124 126 126 129 128 129
83 84 86 90 94 97 101 104 108 111 112 113 114 114 114 113 111 110 109 107 105 103 102 107 108 113 119 122 125 126 126 127 128 128 127 129 130 130 131 132 133 134 135
77 80 82 83 85 87 91 95 100 104 106 107 108 109 109 109 109 109 110 111 111 110 110 108 111 114 115 118 119 121 125 127 128 130 130 131 132 134 135 135 136 137 140
71 74 78 81 83 85 87 90 92 94 96 99 102 104 105 106 105 106 107 108 109 111 111 112 112 112 115 118 121 124 125 125 126 127 130 132 134 136 139 140 141 139 138
68 71 73 76 78 80 82 85 88 90 91 92 92 94 95 97 100 101 102 104 105 106 107 108 110 112 114 116 116 118 121 122 122 122 123 125 128 130 131 132 133 134 132
68 70 71 73 74 75 77 79 80 82 84 86 88 89 90 91 92 93 95 97 100 102 103 104 106 108 110 112 112 113 115 116 117 118 120 122 124 124 124 122 121 122 121

GFSGL_250_spd_099.txt.gz
Wind_Speed
29 32 37 39 35 42 40 38 41 37 36 42 34 39 41 49 54 50 41 35 37 42 44 49 54 54 55 59 56 55 51 51 53 54 58 59 60 62 62 61 63 59 58
39 38 36 34 38 43 43 40 43 40 43 44 35 39 43 37 36 31 30 32 36 39 41 38 40 43 51 58 62 59 54 54 59 61 62 63 63 62 62 60 60 61 63
41 39 41 38 41 45 42 44 46 46 36 21 37 31 25 17 21 27 27 28 31 29 31 34 37 40 48 50 60 66 63 58 59 63 65 67 69 67 65 64 64 63 64
50 48 49 48 46 45 46 49 50 40 31 22 18 12 17 19 20 21 25 27 31 31 32 34 37 38 43 46 50 54 56 62 64 62 66 68 67 65 64 68 67 67 66
52 52 51 52 49 46 48 46 43 41 29 22 24 14 15 22 22 26 26 28 31 31 31 32 31 31 35 38 44 50 52 60 60 60 66 68 67 66 66 67 64 61 60
52 54 54 53 55 50 46 39 28 30 36 35 35 29 25 22 27 30 33 30 31 30 31 29 24 26 24 25 32 36 43 53 58 58 56 65 67 70 64 63 63 66 69
55 59 56 53 54 54 49 37 27 46 42 41 34 35 29 30 29 29 31 33 33 33 33 33 33 31 30 29 28 40 40 43 54 53 51 50 50 53 55 53 53 56 57
57 56 52 50 51 47 45 37 45 48 52 44 41 44 46 45 40 31 31 34 35 35 37 36 40 38 39 41 43 42 43 45 52 52 53 52 55 55 56 55 56 57 62
55 58 53 52 50 48 47 46 46 54 50 49 52 53 53 52 53 46 35 37 39 37 40 41 42 44 46 42 49 48 49 54 56 55 57 56 53 55 56 58 61 63 64
58 58 55 52 49 53 49 48 43 47 56 58 51 49 55 58 53 49 40 36 40 42 41 43 49 49 50 55 57 57 60 60 61 62 63 63 64 66 69 67 64 66 67
64 62 61 60 57 56 55 57 54 44 48 58 53 58 63 61 58 55 48 44 39 40 45 47 47 53 59 58 58 66 68 68 68 67 69 69 72 71 68 68 70 71 72
69 65 64 63 65 62 60 65 64 60 58 57 63 66 68 68 64 57 54 55 59 59 60 52 53 56 57 59 67 68 68 71 73 73 73 75 76 76 75 77 80 83 86
73 75 71 70 68 70 70 72 72 70 65 66 68 71 70 69 68 64 62 64 65 65 64 62 57 61 63 67 68 68 70 77 81 81 82 83 84 82 82 83 83 82 82
81 79 78 75 77 74 73 76 79 79 78 79 81 76 74 73 72 75 74 77 76 77 77 74 76 74 72 74 76 79 79 79 80 80 81 82 81 82 83 84 85 87 88
87 85 84 84 84 83 81 82 84 88 84 82 85 87 87 87 88 86 84 86 84 80 82 84 84 83 78 75 80 83 86 87 89 92 91 92 92 92 92 92 92 93 94
89 94 89 91 93 93 93 92 92 94 94 91 92 93 92 92 93 95 95 94 90 89 90 91 89 85 88 88 86 88 90 90 93 95 98 99 100 101 100 100 100 100 102
93 95 99 98 97 99 99 100 99 99 102 103 104 103 104 107 107 106 105 100 101 99 99 100 96 92 94 93 86 84 91 95 98 103 103 102 101 103 103 105 105 105 106
100 101 103 104 105 105 107 108 109 110 110 111 110 111 112 112 111 112 112 113 110 108 107 107 104 103 95 95 91 92 92 95 97 105 111 110 109 109 110 111 113 113 114
106 106 109 112 114 114 114 116 117 117 117 117 118 119 118 119 117 117 118 117 115 116 114 111 111 108 107 100 95 92 94 98 99 101 104 108 110 113 116 117 117 120 120
97 106 109 110 115 118 121 122 123 125 126 126 125 126 126 124 125 126 124 123 120 120 118 119 118 115 113 109 103 99 95 93 99 107 108 110 113 115 117 118 120 121 120
82 88 97 105 112 117 122 123 128 128 127 130 134 134 134 132 131 131 133 134 132 130 128 127 124 121 120 116 111 107 106 101 98 100 106 113 118 119 118 118 118 120 122
73 79 86 90 93 96 99 105 109 112 118 126 127 130 132 133 135 138 139 139 139 135 132 130 129 127 123 119 114 113 112 112 111 108 108 108 111 114 115 120 124 126 128
67 69 75 79 82 87 93 94 93 94 99 104 108 112 116 118 121 122 124 125 125 125 124 124 123 121 119 118 118 119 118 118 119 119 116 113 113 112 114 118 119 121 124
62 66 68 70 72 74 77 82 86 88 89 91 94 98 101 104 107 108 110 112 114 115 117 117 118 119 119 118 118 118 118 118 118 117 117 116 117 117 117 117 117 118 120
61 62 64 66 68 71 74 77 80 83 85 87 88 89 91 94 97 99 101 102 104 106 107 108 109 109 110 111 111 111 112 113 113 113 113 113 114 115 116 117 118 118 117
63 63 64 66 67 68 70 73 75 77 79 81 83 85 87 89 91 92 94 96 97 98 99 99 100 100 101 102 103 103 104 106 107 108 109 110 110 110 111 112 114 116 117

GFSGL_250_spd_102.txt.gz
Wind_Speed
27 27 23 22 21 18 26 28 33 44 56 51 47 40 30 32 37 41 45 49 51 57 56 57 55 50 46 48 63 64 60 67 75 71 70 55 55 60 67 69 68 67 67
33 34 32 26 25 33 36 36 34 39 46 46 45 42 40 30 34 41 47 51 54 59 63 57 50 43 45 51 64 62 59 62 65 73 67 69 60 52 55 58 63 65 66
37 36 36 35 38 39 33 33 36 39 42 44 42 46 35 26 36 46 48 52 58 52 49 46 43 43 50 52 58 62 63 65 58 56 56 62 58 51 53 54 58 58 61
38 42 44 46 44 44 44 43 45 45 45 42 42 45 37 31 36 43 47 40 35 33 36 37 39 42 45 55 57 60 64 66 66 63 57 58 59 59 60 61 61 62 63
47 48 51 47 49 43 43 47 46 44 47 47 46 43 37 32 39 31 26 24 24 28 28 28 31 35 40 43 48 52 57 65 74 74 65 61 63 65 64 64 69 70 70
54 55 58 54 52 54 51 50 45 48 50 51 52 45 35 41 31 26 26 25 25 24 24 26 31 36 36 38 38 45 50 54 61 57 68 70 65 64 69 70 71 72 72
57 55 56 54 53 54 52 51 47 50 51 46 48 46 45 40 31 26 30 28 28 31 29 26 31 34 34 35 39 35 36 43 45 48 55 59 61 61 67 65 70 74 76
60 55 60 60 57 59 55 51 51 49 48 48 47 47 48 45 38 35 28 26 32 32 32 34 31 32 37 38 34 28 28 27 32 33 45 52 52 49 61 68 71 70 69
60 58 60 62 59 58 53 52 54 50 49 48 47 43 44 45 43 44 44 41 38 37 34 36 39 35 37 40 40 36 39 39 39 39 44 49 49 57 62 67 66 64 65
62 60 59 60 58 56 56 57 57 50 47 47 58 56 55 52 46 49 50 51 48 51 47 42 43 42 41 40 44 46 41 43 46 46 52 54 55 54 60 62 59 58 56
65 62 63 60 60 60 60 58 59 56 57 52 54 56 55 55 55 51 55 51 58 60 54 45 46 46 43 44 44 49 51 53 49 53 55 57 59 62 65 67 69 70 69
68 64 63 60 57 62 62 60 60 61 64 63 60 59 65 66 63 60 59 62 62 65 62 55 48 50 48 44 46 51 52 54 58 62 63 65 67 70 72 74 76 76 78
73 68 64 64 64 68 64 64 65 64 67 70 69 70 71 72 73 69 71 71 72 76 71 65 56 54 49 50 54 51 51 52 61 63 63 66 71 76 79 82 84 85 84
77 74 71 71 69 71 71 69 68 69 70 74 72 74 75 76 75 76 80 84 81 80 77 72 64 64 65 71 62 64 65 64 60 60 63 70 75 78 79 82 84 88 90
76 79 77 75 76 77 78 78 75 75 76 81 81 84 84 80 78 78 82 86 87 85 83 81 79 80 77 76 78 76 76 74 76 73 71 70 71 78 82 87 91 94 94
80 81 85 84 81 84 85 85 85 84 82 84 87 87 90 90 91 88 88 89 90 89 88 88 85 87 86 88 85 80 83 83 83 83 82 85 86 86 86 89 96 100 100
86 85 88 91 91 89 91 92 92 93 92 92 92 91 93 96 95 97 95 95 94 95 97 95 94 90 91 91 93 91 90 89 94 92 93 92 93 94 90 92 93 94 105
94 94 94 96 99 100 99 100 101 102 102 102 103 102 102 102 102 104 104 104 103 101 99 100 99 100 100 98 98 98 100 102 105 105 105 103 100 102 104 102 95 93 93
100 101 102 101 102 105 110 108 110 111 110 111 111 112 114 113 114 112 112 110 108 107 107 108 109 110 110 110 112 112 113 115 112 112 112 111 112 113 110 109 104 102 99
91 101 105 109 112 111 115 117 120 119 119 120 120 121 120 121 122 122 121 121 121 121 123 123 122 123 123 122 122 124 121 121 121 121 119 119 118 116 115 115 114 113 115
80 86 95 102 108 111 118 117 121 126 129 129 129 129 129 130 129 129 129 129 129 131 131 132 133 131 130 132 133 133 131 127 127 126 125 124 125 125 123 124 123 123 125
68 74 82 89 96 101 106 111 114 121 125 129 133 136 137 137 138 139 140 140 140 140 140 140 140 139 139 139 141 139 139 140 137 136 135 135 135 133 132 130 130 134 127
64 67 72 76 81 86 90 97 104 109 112 117 121 124 126 132 137 139 143 146 145 145 145 145 146 147 147 147 147 148 147 147 145 143 142 141 141 143 143 141 138 135 136
59 62 65 68 72 77 82 84 89 93 96 102 107 110 112 114 118 123 129 133 136 137 140 143 144 144 144 143 143 143 144 145 145 146 145 144 142 142 143 141 137 133 128
61 63 64 66 68 71 74 77 80 83 86 89 93 96 98 100 102 104 107 112 116 118 119 119 121 123 125 128 130 130 131 133 134 135 136 137 137 134 130 127 125 125 124
61 62 63 65 66 68 70 71 72 73 76 79 83 85 87 89 90 91 93 95 97 100 104 107 110 111 111 111 112 112 113 114 114 115 116 117 117 116 114 112 112 112 112

GFSGL_250_spd_105.txt.gz
Wind_Speed
56 49 38 29 29 24 21 23 27 26 34 39 48 51 56 53 52 38 43 33 39 43 44 47 50 53 55 55 57 52 48 52 70 86 86 81 78 78 80 77 74 70 70
44 40 31 32 33 26 24 26 25 28 33 39 52 48 53 51 47 22 21 31 43 45 57 55 56 55 60 63 58 57 56 57 58 79 84 81 82 72 70 71 75 79 68
39 33 34 34 33 31 31 31 30 31 41 43 49 55 54 50 53 34 34 44 42 49 51 53 56 59 60 62 65 65 62 57 57 62 73 76 72 68 64 62 59 59 71
36 35 36 34 33 32 36 33 30 26 29 33 46 53 55 48 50 54 45 43 52 51 50 47 54 58 65 65 63 59 51 51 61 57 55 63 68 73 74 74 71 68 63
38 41 42 39 37 40 39 27 29 34 38 42 51 55 55 53 48 49 50 45 37 41 44 53 61 59 49 45 43 42 44 45 54 58 55 59 57 64 70 70 70 72 66
45 47 46 46 46 49 48 49 38 41 46 48 51 52 52 53 56 47 50 57 44 46 51 42 27 24 27 31 37 38 46 47 49 58 69 67 67 64 61 62 63 61 62
50 49 45 49 54 55 46 42 47 47 49 45 49 51 49 48 54 52 51 43 48 44 38 29 26 26 27 31 32 34 38 44 51 58 63 69 70 78 80 72 63 64 63
57 55 49 52 58 56 50 51 51 51 53 48 51 51 48 49 49 40 41 38 39 35 37 34 32 31 29 31 33 33 36 40 43 42 50 52 53 58 58 74 72 71 72
61 62 56 52 60 57 55 57 56 52 53 44 46 50 50 50 51 51 49 47 44 41 42 39 39 37 36 34 34 37 29 33 39 35 29 31 36 36 35 46 56 56 60
64 64 63 53 59 58 61 60 55 53 54 47 48 46 55 52 51 47 51 54 48 42 43 43 39 38 39 39 39 39 35 43 36 42 41 37 40 36 39 48 52 52 56
65 67 68 58 59 58 62 62 57 58 52 48 52 51 50 54 56 55 52 51 50 49 46 51 54 50 51 48 43 45 43 44 46 44 47 46 44 49 50 49 51 58 58
67 69 68 68 61 62 63 60 63 58 57 53 58 61 59 58 61 61 59 60 59 57 58 53 51 54 54 56 54 46 50 48 51 54 51 50 53 52 55 55 59 61 65
69 70 74 71 67 65 64 67 64 64 60 58 60 61 63 60 63 68 73 63 64 68 66 67 63 63 57 65 60 54 53 55 54 57 57 62 59 58 59 60 62 64 66
70 73 73 76 72 71 72 68 67 67 69 67 68 70 73 73 71 71 77 77 75 74 72 72 76 75 71 72 72 62 58 58 62 60 58 59 64 66 66 67 69 69 69
74 75 77 78 75 75 75 78 73 71 74 75 76 76 78 81 81 83 80 84 85 86 82 83 82 81 80 77 79 78 76 68 67 68 68 62 61 64 65 67 66 73 79
77 79 80 82 85 81 80 80 81 80 79 82 84 85 85 87 89 89 89 89 91 88 88 89 89 86 87 86 87 87 86 86 77 74 74 75 78 79 78 77 78 78 75
82 83 86 88 88 90 86 86 91 88 86 89 88 91 94 93 92 93 94 96 98 97 95 94 94 94 93 93 92 92 94 93 88 85 86 89 88 87 86 85 83 83 84
84 86 88 92 95 98 99 96 96 97 97 95 98 98 96 101 101 100 99 102 102 102 102 102 101 98 96 97 97 97 97 96 94 94 95 95 97 96 95 94 93 91 92
85 86 90 92 96 100 103 106 105 104 106 107 107 108 108 107 105 107 107 106 107 107 108 109 109 110 109 109 110 109 107 106 105 103 102 102 99 99 100 101 100 101 101
75 85 93 95 98 101 105 109 114 116 115 113 115 116 117 119 119 118 116 114 115 115 115 114 114 115 115 115 115 114 112 112 112 111 110 109 108 107 108 109 108 109 112
74 78 83 89 97 105 108 111 115 118 124 125 124 125 125 126 126 127 128 126 125 124 124 124 124 125 124 124 123 122 121 121 121 119 117 117 117 116 114 115 118 120 123
60 69 78 85 89 92 95 104 114 114 116 120 125 131 131 131 132 132 132 133 134 133 132 133 133 132 131 130 129 127 125 124 123 124 125 125 126 127 129 131 133 134 134
56 61 66 72 79 83 89 93 96 99 102 108 113 117 120 125 132 138 140 140 140 140 140 139 138 139 139 138 138 138 138 138 138 138 139 139 139 139 141 141 142 143 143
60 63 66 69 72 76 80 83 85 89 92 95 97 100 104 109 114 119 121 126 133 140 144 146 147 146 146 147 147 148 147 147 147 146 146 147 148 147 149 150 150 152 154
62 64 67 68 70 72 75 77 80 82 85 87 88 90 91 94 96 99 102 104 107 113 119 124 129 135 140 145 149 151 152 152 153 154 154 153 155 155 155 155 156 157 156
62 62 61 61 62 65 67 70 73 75 76 78 79 81 83 85 87 89 90 92 94 96 100 103 106 109 113 119 123 126 130 132 135 138 142 144 144 144 145 147 147 147 146

GFSGL_250_spd_108.txt.gz
Wind_Speed
84 81 79 76 70 65 48 39 27 26 19 18 22 26 29 36 40 45 55 55 50 43 45 44 42 43 47 48 46 44 47 47 49 43 59 69 82 86 89 90 90 83 78
81 78 75 71 64 50 41 38 36 23 14 13 13 24 21 38 47 47 53 50 50 50 48 37 40 41 51 51 46 47 50 49 47 44 44 44 64 84 89 91 90 88 87
79 74 66 62 52 40 39 39 35 30 25 20 18 20 25 40 46 49 50 47 49 44 33 40 50 54 52 50 51 55 52 53 55 55 59 54 52 58 79 95 94 91 91
72 60 59 52 41 38 38 37 36 31 29 34 30 33 37 36 49 46 53 55 54 53 51 48 54 56 54 59 61 60 61 58 60 58 60 63 62 63 63 77 88 97 92
60 48 49 41 39 41 39 38 37 39 38 39 36 42 39 45 46 50 54 53 50 47 50 54 58 53 55 53 55 64 59 66 60 60 69 72 68 64 61 64 79 72 74
49 40 42 42 45 44 43 44 44 40 38 39 39 39 44 51 54 55 53 50 48 42 40 45 53 51 48 47 48 53 62 66 66 58 51 49 52 49 51 50 57 65 74
40 39 42 46 49 49 50 49 47 44 42 38 43 46 58 59 61 57 57 52 53 50 46 49 41 42 42 47 55 46 37 35 34 37 40 42 45 49 54 55 56 61 66
37 41 49 53 55 54 56 54 50 49 47 42 51 46 61 62 62 61 61 62 61 59 52 53 53 53 51 45 34 32 30 30 31 35 42 45 47 50 59 62 63 61 64
41 47 55 56 59 58 62 58 51 53 51 44 55 53 61 62 62 61 60 57 57 58 54 55 50 50 47 37 39 35 33 32 35 38 40 45 47 51 59 62 63 78 77
46 54 62 61 61 62 65 65 54 55 53 48 52 54 56 59 59 54 58 56 59 61 58 49 45 43 39 40 42 42 38 37 37 37 41 42 38 40 40 41 48 58 60
47 60 66 62 62 63 65 73 63 59 53 55 52 54 54 61 58 59 60 58 57 57 50 47 47 47 45 45 45 46 42 39 41 43 40 45 44 41 43 37 38 41 41
55 65 69 67 65 62 67 68 69 70 62 57 59 60 59 60 61 62 59 57 58 62 58 59 56 52 50 51 49 53 52 51 48 44 45 46 50 48 47 47 45 48 48
61 68 72 69 70 67 67 67 72 76 70 60 59 63 62 58 59 63 64 70 66 69 67 65 62 61 56 58 58 55 56 57 56 56 49 49 52 56 56 54 57 54 54
65 69 72 74 75 71 69 71 68 71 73 66 65 69 69 66 65 67 70 71 72 73 75 72 72 70 72 70 68 67 68 69 67 63 66 51 52 57 60 63 63 62 61
68 73 73 76 79 81 78 73 74 72 72 71 76 73 71 73 70 76 75 78 79 80 81 83 80 82 83 81 80 78 78 78 77 75 73 67 62 59 59 61 68 73 75
71 74 76 76 83 82 85 82 80 77 77 78 76 78 81 80 78 82 86 86 86 87 87 88 88 89 88 83 81 82 82 83 83 81 76 78 76 74 71 71 70 71 77
71 76 80 81 83 86 87 88 87 85 83 85 83 85 88 88 87 88 88 92 96 96 93 91 92 91 94 95 93 92 89 89 90 89 85 85 84 83 83 80 81 76 79
67 75 81 85 86 88 91 95 96 96 94 94 96 92 95 99 99 96 96 98 99 103 102 103 102 101 102 102 102 99 99 100 98 97 97 95 93 90 89 87 85 87 81
63 71 78 85 88 92 93 98 102 102 107 106 105 107 106 105 108 107 106 106 106 108 110 111 111 109 108 109 109 107 105 105 104 104 104 104 104 101 97 96 96 95 96
61 68 74 81 87 92 96 99 101 105 109 112 115 114 113 114 115 116 118 117 116 116 117 118 118 118 117 116 115 114 113 112 110 109 109 108 107 106 106 105 102 101 101
59 63 67 72 78 84 91 97 101 106 110 114 118 121 121 121 121 123 125 126 126 128 126 125 125 125 124 122 123 122 120 118 118 116 115 114 114 114 113 113 113 111 113
47 52 57 64 74 81 86 90 93 97 102 106 109 116 120 119 123 125 126 129 131 133 134 132 133 134 134 132 131 130 128 128 128 126 124 123 121 120 120 121 120 121 122
46 48 53 58 63 67 74 83 89 92 92 92 94 97 103 108 111 114 122 128 129 131 136 140 141 140 139 137 137 137 138 137 135 134 133 131 130 130 131 131 130 130 131
48 51 55 60 65 69 73 76 77 79 82 87 89 91 92 94 97 101 106 111 115 122 129 134 135 137 140 143 146 145 144 144 143 141 140 140 139 138 138 137 137 137 138
54 58 61 64 67 69 69 69 70 73 76 79 81 83 87 89 90 90 90 94 96 100 104 109 116 122 128 137 140 141 143 144 144 145 145 146 145 145 144 145 145 146 147
62 65 67 68 67 64 62 60 60 63 66 70 73 75 77 77 78 79 79 83 86 85 88 93 96 100 104 109 114 120 126 132 137 140 144 146 148 149 149 150 151 152 151

GFSGL_250_spd_111.txt.gz
Wind_Speed
65 64 67 71 75 77 78 78 71 65 62 52 36 36 42 46 46 51 57 60 57 59 60 59 56 58 52 54 53 53 51 52 55 50 48 47 44 55 61 66 67 74 71
61 63 62 66 72 75 75 67 60 59 52 35 33 34 33 32 36 40 46 50 46 69 66 60 56 50 49 51 52 55 51 54 52 51 50 50 52 57 62 72 73 76 75
61 64 65 68 72 70 67 61 55 49 38 38 39 39 34 23 20 24 32 37 41 54 64 60 57 56 55 53 53 50 53 53 52 49 48 55 50 59 66 68 73 80 82
68 71 72 73 70 66 57 56 46 40 33 44 47 42 36 23 14 30 28 35 42 51 55 57 58 53 53 53 47 50 50 53 55 54 52 53 54 52 59 65 70 72 72
73 76 79 77 68 58 50 46 38 34 37 48 48 42 36 21 34 40 42 47 51 56 61 53 60 53 50 50 50 48 52 52 52 58 52 52 60 58 55 61 64 62 64
75 76 73 68 58 38 47 39 36 36 45 51 51 52 48 42 47 45 47 42 60 64 60 55 57 60 57 55 58 57 56 57 52 56 55 51 56 61 61 66 68 67 66
77 76 64 56 42 38 47 39 38 42 51 53 54 56 51 39 40 44 50 47 51 60 61 59 62 59 59 61 58 54 53 53 54 45 50 60 63 66 66 65 71 72 72
61 56 52 44 39 41 44 42 43 52 56 54 54 55 56 51 38 37 53 50 51 56 59 63 64 63 62 56 54 58 56 55 43 46 40 44 53 55 55 59 61 58 54
58 54 49 44 40 48 46 47 53 58 58 55 54 56 56 65 55 49 54 51 53 64 63 67 69 67 66 64 62 60 60 58 48 47 39 37 35 38 41 39 41 40 48
54 51 45 44 45 52 50 54 58 63 61 55 56 60 60 68 67 57 58 51 68 65 59 63 59 66 61 59 55 54 53 52 51 48 39 39 39 37 38 40 45 47 48
47 43 41 40 47 49 53 59 62 66 64 62 58 62 61 55 60 63 69 71 67 69 68 63 60 58 63 60 59 51 53 52 49 44 42 43 44 42 43 44 45 47 50
39 38 37 38 43 50 59 64 66 70 69 70 66 61 57 62 57 61 69 75 75 71 70 66 63 64 67 65 63 59 58 57 52 50 49 52 49 47 47 46 44 45 49
35 36 37 40 46 59 65 66 70 75 75 71 67 73 66 58 62 62 63 79 78 73 73 72 72 71 70 71 73 69 64 62 57 58 54 53 52 48 47 48 50 48 50
36 37 40 44 53 66 69 70 74 77 82 78 73 74 72 66 63 68 69 72 80 80 81 78 82 83 80 76 74 72 69 68 66 63 61 59 61 57 56 57 53 54 54
38 40 44 49 59 71 72 73 74 80 77 82 83 77 76 79 72 69 74 78 76 78 85 86 85 85 88 86 81 77 75 75 76 73 74 71 69 68 67 66 65 60 57
41 43 47 52 62 74 77 77 78 79 83 81 85 86 86 84 83 81 78 78 83 86 81 88 91 88 91 92 90 89 87 87 87 85 80 78 78 75 76 70 69 72 74
42 45 49 55 64 78 82 83 85 86 86 88 92 89 94 94 94 90 88 87 86 91 94 94 91 91 95 95 97 95 94 96 94 92 91 87 84 81 81 81 80 79 79
43 45 49 55 62 72 80 88 89 92 94 93 97 101 97 102 103 103 100 97 97 97 97 97 98 98 98 100 99 100 100 100 103 100 96 96 94 92 92 92 89 88 86
47 50 54 56 59 69 78 80 88 95 96 101 101 101 106 108 109 110 114 110 110 107 106 108 107 106 107 107 107 107 108 107 107 105 104 103 102 101 100 97 94 93 93
50 52 52 55 59 62 68 77 85 88 93 99 104 109 109 109 112 113 114 116 120 117 115 114 113 115 114 115 116 115 113 112 113 113 110 110 111 110 106 104 102 102 102
43 47 51 54 59 63 66 70 75 80 87 94 100 103 106 111 117 121 120 119 120 120 122 123 123 124 123 124 122 123 123 122 122 120 120 120 119 119 115 113 114 113 112
35 39 43 46 49 53 60 67 75 79 82 85 88 94 100 105 105 104 106 110 117 121 123 124 125 126 128 130 130 130 129 129 128 127 126 126 127 128 127 126 124 122 120
36 39 43 45 49 52 57 61 66 70 74 79 83 87 88 89 91 94 96 100 107 112 118 124 127 127 129 131 133 136 136 137 137 136 136 134 133 133 134 133 133 132 130
38 42 47 50 53 56 59 62 65 68 71 74 76 79 82 86 88 89 88 88 88 92 98 104 109 115 120 125 130 134 135 136 139 139 141 141 141 141 140 139 138 138 137
43 47 51 53 56 59 62 65 66 67 68 67 68 70 73 77 80 82 84 85 82 79 83 89 92 96 102 107 109 115 122 126 133 138 140 141 143 144 144 144 144 143 142
48 52 56 59 62 64 65 68 68 66 64 63 61 61 62 66 69 73 77 79 80 76 72 75 77 81 86 91 98 100 103 106 111 117 124 129 134 139 142 144 146 146 146

GFSGL_250_spd_117.txt.gz
Wind_Speed
50 51 54 58 63 65 69 73 77 80 82 84 83 86 82 79 82 83 79 79 81 82 76 72 67 69 67 64 64 69 73 71 63 69 69 70 72 61 58 58 59 56 53
45 48 55 60 60 62 66 65 67 68 71 71 74 79 80 80 82 80 79 75 70 69 67 62 61 56 47 42 47 59 64 65 63 63 70 70 64 57 50 53 52 46 54
44 50 57 57 58 62 64 62 61 65 66 66 70 70 72 74 76 78 70 66 59 60 57 54 47 41 35 44 46 52 59 61 64 58 58 60 45 42 51 48 47 48 51
54 55 58 62 60 62 66 65 66 67 66 65 64 65 66 69 71 71 67 59 56 53 49 43 42 38 45 52 51 56 54 60 60 58 54 43 41 45 48 47 49 51 47
62 60 64 62 68 68 69 70 70 73 69 67 67 67 67 67 69 68 62 53 52 46 42 44 43 44 46 50 56 57 62 59 53 47 48 38 41 44 44 51 53 54 50
63 59 61 62 67 68 66 65 66 70 70 72 69 68 68 62 59 63 55 51 47 45 41 38 38 38 24 25 29 34 33 34 46 50 52 43 41 46 50 52 56 51 52
61 63 66 63 61 59 59 63 65 64 66 67 67 61 58 56 61 56 50 48 50 52 52 42 35 38 22 41 57 47 37 39 45 45 41 39 40 47 53 52 53 52 53
60 64 66 68 65 63 64 64 64 63 64 64 64 65 62 62 56 49 46 52 54 56 54 59 42 32 31 57 48 48 41 44 47 45 45 44 44 45 51 54 55 56 56
44 46 48 49 48 49 52 53 56 58 58 59 56 54 53 53 48 45 53 56 59 59 55 50 47 40 49 55 53 41 47 52 48 50 53 54 54 50 50 55 58 58 57
46 45 44 45 44 45 45 45 45 46 47 47 47 49 51 52 47 49 59 63 62 56 58 52 52 50 44 50 58 47 46 43 52 54 54 51 54 53 52 52 57 59 56
46 47 48 49 48 47 46 46 46 46 47 49 51 53 56 55 51 58 66 70 64 61 64 58 53 52 51 56 59 57 55 53 51 52 60 58 61 60 60 59 55 55 59
40 42 42 43 44 45 44 45 44 43 43 45 48 54 54 49 52 66 71 73 69 60 60 60 56 51 55 52 57 65 62 63 62 59 64 65 62 63 63 64 64 62 61
35 36 36 36 36 36 37 36 36 37 38 40 44 47 45 47 56 71 72 72 72 70 65 63 64 58 58 58 61 59 63 65 68 67 72 71 67 67 67 67 65 62 65
32 32 33 33 33 33 34 34 34 35 36 37 39 42 46 49 63 73 72 74 72 74 71 71 72 75 75 69 67 67 70 68 70 71 75 81 78 75 74 74 73 72 70
29 30 32 32 33 34 34 34 35 34 35 36 41 46 51 57 69 76 77 78 76 76 75 78 77 80 76 77 83 82 77 74 77 77 81 85 86 86 84 82 80 76 75
27 29 30 32 33 35 35 36 37 38 39 42 46 51 57 63 72 79 82 83 84 84 81 84 85 83 85 82 84 81 89 89 85 85 85 87 87 90 93 90 87 85 82
29 30 32 34 37 38 38 39 39 41 42 44 48 51 58 65 74 80 86 89 89 91 92 93 94 93 92 92 88 90 93 93 94 95 94 94 95 93 94 92 93 95 95
34 35 37 38 39 40 39 40 41 42 43 45 49 50 54 63 73 79 87 92 95 97 98 98 99 102 102 104 104 102 100 100 101 97 97 102 99 100 102 101 99 96 97
37 38 40 42 43 43 44 45 45 46 47 49 52 53 54 58 66 79 84 91 97 100 103 104 106 107 109 109 109 111 111 108 105 106 110 108 108 108 108 108 107 108 107
38 39 41 43 43 45 46 46 46 48 49 50 52 54 56 59 64 68 80 85 86 94 96 104 107 112 114 114 117 119 116 118 118 119 115 115 116 117 116 116 115 115 114
36 37 38 39 40 42 43 45 46 47 49 51 54 57 59 61 63 67 72 74 82 85 88 96 99 101 107 113 120 123 122 125 124 124 123 122 121 118 116 115 115 116 117
36 34 35 36 36 38 40 40 40 43 45 48 51 54 57 59 59 61 64 69 75 80 84 88 90 93 96 101 107 114 120 123 126 131 132 132 129 128 127 125 124 122 121
34 34 36 37 37 38 39 40 44 47 50 53 56 59 60 61 64 66 70 72 74 74 76 81 85 88 92 96 99 105 107 112 120 126 130 132 133 132 131 129 129 129 127
35 36 37 37 38 39 42 46 49 52 56 58 59 60 59 62 67 69 71 73 77 79 80 80 78 78 81 86 89 93 97 101 106 112 117 123 129 133 136 137 136 135 133
37 37 38 39 41 44 47 52 55 58 60 62 63 63 65 67 68 69 70 72 74 75 78 80 81 80 80 78 78 82 86 89 92 97 102 107 113 119 122 127 133 137 139
36 38 40 43 46 49 53 57 60 62 64 65 65 65 66 66 67 68 67 65 65 66 69 72 75 76 77 78 78 77 77 77 78 83 90 95 99 103 107 111 116 121 128

GFSGL_250_spd_120.txt.gz
Wind_Speed
41 46 47 56 62 63 65 66 71 77 81 86 93 96 99 101 98 94 95 97 97 97 97 93 94 89 87 88 81 73 73 75 71 74 77 76 81 84 83 82 78 77 69
43 46 48 52 52 52 56 59 59 60 66 76 84 89 90 92 89 90 95 96 93 92 92 89 87 84 83 78 75 69 67 68 69 71 71 70 74 76 67 66 57 55 57
42 43 45 46 46 46 48 51 57 58 62 63 65 69 73 74 77 79 83 85 87 85 83 82 80 82 77 72 65 64 62 60 57 54 49 51 51 56 55 56 54 56 61
50 47 48 46 48 47 51 51 57 62 62 63 60 59 61 63 65 68 71 73 76 77 78 76 74 72 66 64 62 55 48 40 38 34 39 45 45 53 50 51 50 50 52
58 57 52 48 53 53 55 58 59 56 57 59 61 59 61 62 65 69 70 71 72 71 71 70 66 62 60 56 52 42 41 41 34 37 39 42 47 48 53 55 49 49 42
61 59 56 50 53 58 62 58 59 59 61 61 66 68 67 69 71 69 69 71 72 73 71 67 63 60 52 50 43 40 39 36 39 43 46 48 50 51 51 51 44 42 43
58 57 56 59 59 55 57 62 67 67 65 62 67 71 72 71 73 75 76 75 73 72 67 64 63 53 49 47 45 42 35 37 37 30 33 43 51 55 52 45 38 45 46
65 62 62 64 63 63 63 61 65 66 67 63 65 70 72 72 71 73 76 77 75 69 67 59 55 48 48 52 45 45 35 38 38 35 32 32 39 44 46 43 42 45 48
61 68 67 62 57 54 55 57 62 62 61 62 65 67 69 72 75 72 72 70 71 69 63 53 48 51 49 50 45 45 39 45 43 40 38 37 35 38 43 48 46 45 48
54 53 53 54 55 54 53 50 49 51 53 55 57 60 65 69 71 70 68 70 69 69 54 51 54 59 54 50 54 44 40 50 50 45 41 42 41 41 40 39 39 43 50
53 54 56 57 56 55 53 50 48 49 51 53 54 56 58 59 60 61 61 61 62 56 53 57 61 66 62 61 58 55 55 57 53 56 47 47 50 49 51 51 49 49 53
47 47 47 47 47 47 47 47 47 48 49 51 52 55 57 58 58 59 61 58 60 53 55 63 64 65 69 67 69 61 58 58 56 59 59 51 48 54 61 60 56 54 56
36 37 37 37 39 40 40 40 41 42 43 44 47 50 53 55 59 60 58 58 51 51 61 67 65 68 69 69 68 65 61 61 65 63 60 57 56 58 56 57 60 58 57
32 33 33 34 36 37 37 37 37 38 38 39 40 41 43 45 47 51 53 54 53 54 64 70 69 70 73 69 70 73 73 71 65 69 70 69 68 64 67 68 63 63 65
30 30 31 32 33 34 34 35 36 37 38 38 39 40 41 42 44 46 50 53 56 57 67 72 73 77 78 75 76 76 82 75 74 77 73 72 71 74 77 73 74 70 68
28 28 28 29 31 33 34 36 37 38 40 40 41 42 43 43 45 48 51 56 62 67 75 79 80 83 87 82 79 80 82 78 76 76 76 74 76 78 80 79 82 80 80
26 27 29 31 33 35 36 38 40 41 42 43 43 43 43 44 46 48 54 57 64 69 77 84 89 90 97 93 92 87 87 86 86 88 84 86 84 82 81 84 89 89 89
31 32 33 34 36 38 39 40 42 43 45 44 45 46 47 47 48 49 51 57 62 69 77 86 93 97 98 102 101 96 96 95 96 95 95 94 94 91 92 92 91 91 91
34 36 37 38 40 43 44 45 46 46 47 48 49 49 50 51 51 54 56 57 60 65 74 81 88 97 105 108 107 110 107 106 104 107 107 107 105 102 103 102 100 101 98
38 39 40 40 42 45 47 47 48 48 49 49 48 48 49 51 53 56 58 60 63 66 70 75 85 94 99 106 112 114 117 118 116 115 113 115 113 112 111 111 109 109 109
38 40 39 39 40 42 43 44 45 45 45 45 47 48 48 50 51 53 57 61 64 67 69 73 78 81 93 98 100 108 112 122 126 125 125 123 123 121 120 118 115 114 113
40 41 41 40 41 41 43 43 43 44 45 45 47 49 51 52 53 54 56 57 59 61 65 70 76 82 85 88 93 100 103 107 114 123 126 128 128 127 126 125 124 123 122
39 42 43 43 42 40 41 42 42 42 43 46 49 51 53 55 57 58 59 60 63 64 67 70 74 77 82 86 88 89 92 96 101 106 109 115 124 131 132 134 135 135 133
42 42 43 43 41 42 43 41 42 45 48 51 54 56 58 60 63 64 65 66 67 68 69 71 71 73 75 76 79 84 88 89 91 95 101 105 110 114 117 121 127 133 135
41 44 44 42 41 41 42 44 47 50 53 56 58 62 63 65 65 66 67 68 69 70 70 69 69 70 72 74 75 75 76 78 82 86 89 93 97 102 106 110 115 120 126
41 42 42 41 41 42 44 48 52 54 57 61 63 64 65 65 66 67 68 68 68 67 66 65 65 65 66 69 72 73 73 73 72 71 72 78 85 90 94 98 102 105 110

GFSGL_250_spd_123.txt.gz
Wind_Speed
42 44 47 44 50 53 52 51 54 60 63 68 67 69 72 79 87 92 97 100 99 102 97 96 94 94 93 94 93 92 93 88 79 75 71 76 77 78 73 81 84 80 81
44 43 49 49 48 51 51 51 55 59 59 55 59 64 69 72 74 79 84 95 99 98 98 98 98 97 94 95 93 90 94 91 80 72 74 70 77 75 75 77 78 76 72
46 44 46 50 47 49 48 53 51 50 50 50 53 56 59 64 69 74 80 83 86 91 93 97 98 97 96 97 98 96 95 92 82 74 71 72 72 67 66 67 66 64 62
51 52 50 55 52 49 48 52 50 49 49 49 49 50 55 59 61 64 72 77 80 83 85 87 88 91 92 90 89 92 92 87 78 70 68 64 61 58 55 54 49 44 49
54 53 55 57 54 50 50 50 48 49 48 49 51 52 54 55 60 60 61 64 68 74 78 79 79 81 84 82 81 79 78 73 67 67 62 56 49 42 42 38 39 48 45
53 57 55 58 59 52 48 52 52 52 56 53 53 54 53 55 55 60 62 60 63 64 66 68 71 73 75 75 74 72 67 64 60 58 56 54 46 41 36 40 43 40 44
56 55 54 58 54 52 53 55 53 49 49 54 61 62 64 62 61 58 60 63 63 64 67 68 70 72 72 70 68 65 61 59 55 52 49 49 45 44 41 45 48 43 43
52 53 51 56 54 55 52 51 51 54 55 57 62 68 70 68 66 66 63 66 70 70 72 72 73 72 72 72 69 63 59 52 51 48 47 48 46 45 46 52 52 51 48
44 50 53 56 59 60 61 60 58 57 57 59 59 67 69 72 72 68 69 69 73 75 75 76 75 75 74 70 67 57 55 51 48 48 50 49 48 43 41 44 53 59 59
41 43 45 50 56 60 59 58 57 55 53 50 50 53 55 62 66 67 71 73 75 77 77 77 75 74 73 71 58 52 51 55 54 56 55 52 51 49 40 37 37 41 47
44 45 45 46 47 49 51 51 50 49 49 49 51 52 51 52 56 65 71 75 76 77 75 75 76 74 71 69 58 54 57 63 62 59 61 60 52 45 39 42 42 42 46
41 43 45 46 48 49 52 53 52 52 52 53 55 57 57 55 56 59 61 64 67 68 69 71 73 74 74 68 62 60 66 70 70 64 60 54 55 54 48 47 47 45 44
34 35 36 38 40 42 43 44 46 46 46 46 47 49 52 55 58 60 61 63 65 65 62 60 59 57 60 56 57 69 72 69 70 69 68 60 64 61 56 54 51 50 51
31 31 32 33 35 37 39 40 40 41 41 42 42 43 44 46 49 52 55 58 61 62 62 60 57 55 50 53 62 75 78 77 77 75 73 71 71 69 65 63 61 56 58
26 26 27 28 31 33 34 36 37 38 40 42 43 43 43 43 44 45 47 49 52 54 56 56 57 56 55 59 65 79 85 81 79 79 76 77 76 73 69 66 67 63 66
23 24 25 26 28 30 32 35 36 38 40 43 44 44 43 43 43 44 46 47 49 51 53 54 56 58 60 64 68 80 94 90 86 85 83 82 80 79 77 78 73 73 73
23 24 25 26 28 31 34 36 37 40 42 44 45 45 46 46 46 47 47 47 47 49 52 55 57 62 65 70 74 79 93 98 93 95 91 87 86 86 82 83 81 83 80
26 27 28 30 32 34 36 38 40 42 44 46 47 47 48 49 49 50 50 51 52 53 53 54 59 62 66 73 81 81 93 99 99 100 97 94 94 93 92 87 89 87 86
31 31 33 34 35 38 39 42 45 46 48 48 48 49 50 50 51 53 54 55 56 57 58 60 62 64 67 71 78 84 87 93 100 105 106 104 103 101 102 102 98 97 95
34 35 36 38 38 39 40 41 42 45 47 48 48 48 48 48 50 51 54 56 58 61 63 65 66 67 70 74 76 79 83 86 93 98 109 112 111 111 108 106 110 108 105
36 37 38 39 39 40 42 42 43 44 45 46 48 47 48 49 51 52 54 55 57 59 61 64 67 70 73 76 78 80 83 87 87 89 96 102 112 117 120 117 115 113 109
37 38 39 39 40 41 44 44 44 46 47 46 46 47 50 52 54 55 55 56 57 59 61 63 66 68 72 75 77 81 84 87 87 90 92 95 100 110 114 119 123 121 121
40 41 41 40 41 43 44 45 46 47 46 47 48 50 50 51 53 55 56 58 61 63 65 66 68 69 72 76 80 82 83 84 86 88 88 90 93 98 105 113 120 123 125
44 45 43 43 43 44 46 47 47 47 46 47 47 49 51 54 55 57 60 63 64 64 64 65 67 68 70 72 74 76 78 79 80 82 85 85 87 90 93 97 105 115 124
48 48 47 45 46 45 47 48 47 46 46 48 51 53 55 58 60 63 65 65 65 65 65 66 66 67 67 68 70 72 73 75 75 76 78 80 82 84 87 90 94 98 104
50 49 49 47 47 49 50 49 47 47 49 52 55 57 60 63 65 66 65 65 65 65 65 65 64 62 62 63 64 66 68 69 69 68 69 70 72 75 80 83 84 88 94